[[{"header":{"parameterUnit":"m.s-1","parameterCategory":1,"la1":31.0,"la2":29.5877,"lo1":-88.7671,"lo2":-86.6584,"dy":0.0162,"dx":0.0185,"nx":115,"ny":88,"refTime":"2024-03-07T18:00:00:Z","depth":0,"parameterNumber":2,"parameterNumberName":"U-component_of_WINDS"},"data":[0.0,0.0,0.0,0.0,0.0,0.0,0.0,0.0,0.0,0.0,0.0,0.0,0.0,0.0,0.0,0.0,0.0,0.0,0.0,0.0,0.0,0.0,0.0,0.0,0.0,0.0,0.0,0.0,0.0,0.0,0.0,0.0,0.0,0.0,0.0,0.0,0.0,0.0,0.0,0.0,0.0,0.0,0.0,0.0,0.0,0.0,0.0,0.0,0.0,0.0,0.0,0.0,0.0,0.0,0.0,0.0,0.0,0.0,0.0,0.0,0.0,0.0,0.0,0.0,0.0,0.0,0.0,0.0,0.0,0.0,0.0,0.0,0.0,0.0,0.0,0.0,0.0,0.0,0.0,0.0,0.0,0.0,0.0,0.0,0.0,0.0,0.0,0.0,0.0,0.0,0.0,0.0,0.0,0.0,0.0,0.0,0.0,0.0,0.0,0.0,0.0,0.0,0.0,0.0,0.0,0.0,0.0,0.0,0.0,0.0,0.0,0.0,0.0,0.0,0.0,0.0,0.0,0.0,0.0,0.0,0.0,0.0,0.0,0.0,0.0,0.0,0.0,0.0,0.0,0.0,0.0,0.0,0.0,0.0,0.0,0.0,0.0,0.0,0.0,0.0,0.0,0.0,0.0,0.0,0.0,0.0,0.0,0.0,0.0,0.0,0.0,0.0,0.0,0.0,0.0,0.0,0.0,0.0,0.0,0.0,0.0,0.0,0.0,0.0,0.0,0.0,0.0,0.0,0.0,0.0,0.0,0.0,0.0,0.0,0.0,0.0,0.0,0.0,0.0,0.0,0.0,0.0,0.0,0.0,0.0,0.0,0.0,0.0,0.0,0.0,0.0,0.0,0.0,0.0,0.0,0.0,0.0,0.0,0.0,0.0,0.0,0.0,0.0,0.0,0.0,0.0,0.0,0.0,0.0,0.0,0.0,0.0,0.0,0.0,0.0,0.0,0.0,0.0,0.0,0.0,0.0,0.0,0.0,0.0,0.0,0.0,0.0,0.0,0.0,0.0,0.0,0.0,0.0,0.0,0.0,0.0,0.0,0.0,0.0,0.0,0.0,0.0,0.0,0.0,0.0,0.0,0.0,0.0,0.0,0.0,0.0,0.0,0.0,0.0,0.0,0.0,0.0,0.0,0.0,0.0,0.0,0.0,0.0,0.0,0.0,0.0,0.0,0.0,0.0,0.0,0.0,0.0,0.0,0.0,0.0,0.0,0.0,0.0,0.0,0.0,0.0,0.0,0.0,0.0,0.0,0.0,0.0,0.0,0.0,0.0,0.0,0.0,0.0,0.0,0.0,0.0,0.0,0.0,0.0,0.0,0.0,0.0,0.0,0.0,0.0,0.0,0.0,0.0,0.0,0.0,0.0,0.0,0.0,0.0,0.0,0.0,0.0,0.0,0.0,0.0,0.0,0.0,0.0,0.0,0.0,0.0,0.0,0.0,0.0,0.0,0.0,0.0,0.0,0.0,0.0,0.0,0.0,0.0,0.0,0.0,0.0,0.0,0.0,0.0,0.0,0.0,0.0,0.0,0.0,0.0,0.0,0.0,0.0,0.0,0.0,0.0,0.0,0.0,0.0,0.0,0.0,0.0,0.0,0.0,0.0,0.0,0.0,0.0,0.0,0.0,0.0,0.0,0.0,0.0,0.0,0.0,0.0,0.0,0.0,0.0,0.0,0.0,0.0,0.0,0.0,0.0,0.0,0.0,0.0,0.0,0.0,0.0,0.0,0.0,0.0,0.0,0.0,0.0,0.0,0.0,0.0,0.0,0.0,0.0,0.0,0.0,0.0,0.0,0.0,0.0,0.0,0.0,0.0,0.0,0.0,0.0,0.0,0.0,0.0,0.0,0.0,0.0,0.0,0.0,0.0,0.0,0.0,0.0,0.0,0.0,0.0,0.0,0.0,0.0,0.0,0.0,0.0,0.0,0.0,0.0,0.0,0.0,0.0,0.0,0.0,0.0,0.0,0.0,0.0,0.0,0.0,0.0,0.0,0.0,0.0,0.0,0.0,0.0,0.0,0.0,0.0,0.0,0.0,0.0,0.0,0.0,0.0,0.0,0.0,0.0,0.0,0.0,0.0,0.0,0.0,0.0,0.0,0.0,0.0,0.0,0.0,0.0,0.0,0.0,0.0,0.0,0.0,0.0,0.0,0.0,0.0,0.0,0.0,0.0,0.0,0.0,0.0,0.0,0.0,0.0,0.0,0.0,0.0,0.0,0.0,0.0,0.0,0.0,0.0,0.0,0.0,0.0,0.0,0.0,0.0,0.0,0.0,0.0,0.0,0.0,0.0,0.0,0.0,0.0,0.0,0.0,0.0,0.0,0.0,0.0,0.0,0.0,0.0,0.0,0.0,0.0,0.0,0.0,0.0,0.0,0.0,0.0,0.0,0.0,0.0,0.0,0.0,0.0,0.0,0.0,0.0,0.0,0.0,0.0,0.0,0.0,0.0,0.0,0.0,0.0,0.0,0.0,0.0,0.0,0.0,0.0,0.0,0.0,0.0,0.0,0.0,0.0,0.0,0.0,0.0,0.0,0.0,0.0,0.0,0.0,0.0,0.0,0.0,0.0,0.0,0.0,0.0,0.0,0.0,0.0,0.0,0.0,0.0,0.0,0.0,0.0,0.0,0.0,0.0,0.0,0.0,0.0,0.0,0.0,0.0,0.0,0.0,0.0,0.0,0.0,0.0,0.0,0.0,0.0,0.0,0.0,0.0,0.0,0.0,0.0,0.0,0.0,0.0,0.0,0.0,0.0,0.0,0.0,0.0,0.0,0.0,0.0,0.0,0.0,0.0,0.0,0.0,0.0,0.0,0.0,0.0,0.0,0.0,0.0,0.0,0.0,0.0,0.0,0.0,0.0,0.0,0.0,0.0,0.0,0.0,0.0,0.0,0.0,0.0,0.0,0.0,0.0,0.0,0.0,0.0,0.0,0.0,0.0,0.0,0.0,0.0,0.0,0.0,0.0,0.0,0.0,0.0,0.0,0.0,0.0,0.0,0.0,0.0,0.0,0.0,0.0,0.0,0.0,0.0,0.0,0.0,0.0,0.0,0.0,0.0,0.0,0.0,0.0,0.0,0.0,0.0,0.0,0.0,0.0,0.0,0.0,0.0,0.0,0.0,0.0,0.0,0.0,0.0,0.0,0.0,0.0,0.0,0.0,0.0,0.0,0.0,0.0,0.0,0.0,0.0,0.0,0.0,0.0,0.0,0.0,0.0,0.0,0.0,0.0,0.0,0.0,0.0,0.0,0.0,0.0,0.0,0.0,0.0,0.0,0.0,0.0,0.0,0.0,0.0,0.0,0.0,0.0,0.0,0.0,0.0,0.0,0.0,0.0,0.0,0.0,0.0,0.0,0.0,0.0,0.0,0.0,0.0,0.0,0.0,0.0,0.0,0.0,0.0,0.0,0.0,0.0,0.0,0.0,0.0,0.0,0.0,0.0,0.0,0.0,0.0,0.0,0.0,0.0,0.0,0.0,0.0,0.0,0.0,0.0,0.0,0.0,0.0,0.0,0.0,0.0,0.0,0.0,0.0,0.0,0.0,0.0,0.0,0.0,0.0,0.0,0.0,0.0,0.0,0.0,0.0,0.0,0.0,0.0,0.0,0.0,0.0,0.0,0.0,0.0,0.0,0.0,0.0,0.0,0.0,0.0,0.0,0.0,0.0,0.0,0.0,0.0,0.0,0.0,0.0,0.0,0.0,0.0,0.0,0.0,0.0,0.0,0.0,0.0,0.0,0.0,0.0,0.0,0.0,0.0,0.0,0.0,0.0,0.0,0.0,0.0,0.0,0.0,0.0,0.0,0.0,0.0,0.0,0.0,0.0,0.0,0.0,0.0,0.0,0.0,0.0,0.0,0.0,0.0,0.0,0.0,0.0,0.0,0.0,0.0,0.0,0.0,0.0,0.0,0.0,0.0,0.0,0.0,0.0,0.0,0.0,0.0,0.0,0.0,0.0,0.0,0.0,0.0,0.0,0.0,0.0,0.0,0.0,0.0,0.0,0.0,0.0,0.0,0.0,0.0,0.0,0.0,0.0,0.0,0.0,0.0,0.0,0.0,0.0,0.0,0.0,0.0,0.0,0.0,0.0,0.0,0.0,0.0,0.0,0.0,0.0,0.0,0.0,0.0,0.0,0.0,0.0,0.0,0.0,0.0,0.0,0.0,0.0,0.0,0.0,0.0,0.0,0.0,0.0,0.0,0.0,0.0,0.0,0.0,0.0,0.0,0.0,0.0,0.0,0.0,0.0,0.0,3.5888,0.0,0.0,0.0,0.0,0.0,0.0,0.0,0.0,0.0,0.0,0.0,0.0,0.0,0.0,0.0,0.0,0.0,0.0,0.0,0.0,0.0,0.0,0.0,0.0,0.0,0.0,0.0,0.0,0.0,0.0,0.0,0.0,0.0,0.0,0.0,0.0,0.0,0.0,0.0,0.0,0.0,0.0,0.0,0.0,0.0,0.0,0.0,0.0,0.0,0.0,0.0,0.0,0.0,0.0,0.0,0.0,0.0,0.0,0.0,0.0,0.0,0.0,0.0,0.0,0.0,0.0,0.0,0.0,0.0,0.0,0.0,0.0,0.0,0.0,0.0,0.0,0.0,0.0,0.0,0.0,0.0,0.0,0.0,0.0,0.0,0.0,0.0,0.0,0.0,0.0,0.0,0.0,0.0,0.0,0.0,0.0,0.0,0.0,0.0,0.0,0.0,0.0,0.0,0.0,0.0,0.0,0.0,0.0,0.0,0.0,3.7371,3.5739,3.8824,3.8936,3.5584,0.0,0.0,0.0,0.0,0.0,0.0,0.0,0.0,0.0,0.0,0.0,0.0,0.0,0.0,0.0,0.0,0.0,0.0,0.0,0.0,0.0,0.0,0.0,0.0,0.0,0.0,0.0,0.0,0.0,0.0,0.0,0.0,0.0,0.0,0.0,0.0,0.0,0.0,0.0,0.0,0.0,0.0,0.0,0.0,0.0,0.0,0.0,0.0,0.0,0.0,0.0,0.0,0.0,0.0,0.0,0.0,0.0,0.0,0.0,0.0,0.0,0.0,0.0,0.0,0.0,0.0,0.0,0.0,0.0,0.0,0.0,0.0,0.0,0.0,0.0,0.0,0.0,0.0,0.0,0.0,0.0,0.0,0.0,0.0,0.0,0.0,0.0,0.0,0.0,0.0,0.0,0.0,0.0,0.0,0.0,0.0,0.0,0.0,0.0,0.0,0.0,0.0,0.0,0.0,0.0,0.0,0.0,0.0,0.0,0.0,0.0,0.0,3.9096,3.9042,3.6406,0.0,0.0,0.0,0.0,0.0,0.0,0.0,0.0,0.0,0.0,0.0,0.0,0.0,0.0,0.0,0.0,0.0,0.0,0.0,0.0,0.0,0.0,0.0,0.0,0.0,0.0,0.0,0.0,0.0,0.0,0.0,0.0,0.0,0.0,0.0,0.0,0.0,0.0,0.0,0.0,0.0,0.0,0.0,0.0,0.0,0.0,0.0,0.0,0.0,0.0,0.0,0.0,0.0,0.0,0.0,0.0,0.0,0.0,0.0,0.0,0.0,0.0,0.0,0.0,0.0,0.0,0.0,0.0,0.0,0.0,0.0,0.0,0.0,0.0,0.0,0.0,0.0,0.0,0.0,0.0,0.0,0.0,0.0,0.0,0.0,0.0,0.0,0.0,0.0,0.0,0.0,0.0,0.0,0.0,0.0,0.0,0.0,0.0,0.0,0.0,0.0,0.0,0.0,0.0,0.0,0.0,0.0,0.0,0.0,0.0,3.7328,4.023,3.9779,0.0,3.8845,0.0,0.0,0.0,0.0,0.0,0.0,0.0,0.0,0.0,0.0,0.0,0.0,0.0,0.0,0.0,0.0,0.0,0.0,0.0,0.0,0.0,0.0,0.0,0.0,0.0,0.0,0.0,0.0,0.0,0.0,0.0,0.0,0.0,0.0,0.0,0.0,0.0,0.0,0.0,0.0,0.0,0.0,0.0,0.0,0.0,0.0,0.0,0.0,0.0,0.0,0.0,0.0,0.0,0.0,0.0,0.0,0.0,0.0,0.0,0.0,0.0,0.0,0.0,0.0,0.0,0.0,0.0,0.0,0.0,0.0,0.0,0.0,0.0,0.0,0.0,0.0,0.0,0.0,0.0,0.0,0.0,0.0,0.0,0.0,0.0,0.0,0.0,0.0,0.0,0.0,0.0,0.0,0.0,0.0,0.0,0.0,0.0,0.0,0.0,0.0,0.0,0.0,0.0,0.0,0.0,0.0,0.0,0.0,0.0,0.0,3.756,3.9971,3.9676,3.8737,0.0,0.0,0.0,0.0,0.0,0.0,0.0,0.0,0.0,0.0,0.0,0.0,0.0,0.0,0.0,0.0,0.0,0.0,0.0,0.0,0.0,0.0,0.0,0.0,0.0,0.0,0.0,0.0,0.0,0.0,0.0,0.0,0.0,0.0,0.0,0.0,0.0,0.0,0.0,0.0,0.0,0.0,0.0,0.0,0.0,0.0,0.0,0.0,0.0,0.0,0.0,0.0,0.0,0.0,0.0,0.0,0.0,0.0,0.0,0.0,0.0,0.0,0.0,0.0,0.0,0.0,0.0,0.0,0.0,0.0,0.0,0.0,0.0,0.0,0.0,0.0,0.0,0.0,0.0,0.0,0.0,0.0,0.0,0.0,0.0,0.0,0.0,0.0,0.0,0.0,0.0,0.0,0.0,0.0,0.0,0.0,0.0,0.0,0.0,0.0,0.0,0.0,0.0,0.0,0.0,0.0,0.0,0.0,0.0,0.0,3.7804,3.8551,4.037,3.9197,3.7897,3.6728,0.0,0.0,0.0,0.0,0.0,0.0,0.0,0.0,0.0,0.0,0.0,0.0,0.0,0.0,0.0,0.0,0.0,0.0,0.0,0.0,0.0,0.0,0.0,0.0,0.0,0.0,0.0,0.0,0.0,0.0,0.0,0.0,0.0,0.0,0.0,0.0,0.0,0.0,0.0,0.0,0.0,0.0,0.0,0.0,0.0,0.0,0.0,0.0,0.0,0.0,0.0,0.0,0.0,0.0,0.0,0.0,0.0,0.0,0.0,0.0,0.0,0.0,0.0,0.0,0.0,0.0,0.0,0.0,0.0,0.0,0.0,0.0,0.0,0.0,0.0,0.0,0.0,0.0,0.0,0.0,0.0,0.0,0.0,0.0,0.0,0.0,0.0,0.0,0.0,0.0,0.0,0.0,0.0,0.0,0.0,0.0,0.0,0.0,0.0,0.0,0.0,0.0,0.0,0.0,0.0,0.0,0.0,0.0,4.3672,4.1013,4.0599,4.2872,3.8435,3.6942,0.0,0.0,0.0,0.0,0.0,0.0,0.0,0.0,0.0,0.0,0.0,0.0,0.0,0.0,0.0,0.0,0.0,0.0,0.0,0.0,0.0,0.0,0.0,0.0,0.0,0.0,0.0,0.0,0.0,0.0,0.0,0.0,0.0,0.0,0.0,0.0,0.0,0.0,0.0,0.0,0.0,0.0,0.0,0.0,0.0,0.0,0.0,0.0,0.0,0.0,0.0,0.0,0.0,0.0,0.0,0.0,0.0,0.0,0.0,0.0,0.0,0.0,0.0,0.0,0.0,0.0,0.0,0.0,0.0,0.0,0.0,0.0,0.0,0.0,0.0,0.0,0.0,0.0,0.0,0.0,0.0,0.0,0.0,0.0,0.0,0.0,0.0,0.0,0.0,0.0,0.0,0.0,0.0,0.0,0.0,0.0,0.0,0.0,0.0,0.0,0.0,0.0,0.0,0.0,0.0,0.0,0.0,0.0,0.0,3.8837,4.0861,4.1867,4.1699,4.0926,3.9997,0.0,0.0,0.0,0.0,0.0,0.0,0.0,0.0,0.0,0.0,0.0,0.0,0.0,0.0,0.0,0.0,0.0,0.0,0.0,0.0,0.0,0.0,0.0,0.0,0.0,0.0,0.0,0.0,0.0,0.0,0.0,0.0,0.0,0.0,0.0,0.0,0.0,0.0,0.0,0.0,0.0,0.0,0.0,0.0,0.0,0.0,0.0,0.0,0.0,0.0,0.0,0.0,0.0,0.0,0.0,0.0,0.0,0.0,0.0,0.0,0.0,0.0,0.0,0.0,0.0,0.0,0.0,0.0,0.0,0.0,0.0,0.0,0.0,0.0,0.0,0.0,0.0,0.0,0.0,0.0,0.0,0.0,0.0,0.0,0.0,0.0,0.0,0.0,0.0,0.0,0.0,0.0,0.0,0.0,0.0,0.0,0.0,0.0,0.0,0.0,0.0,0.0,0.0,0.0,0.0,0.0,0.0,0.0,0.0,3.8202,0.0,4.3982,4.2899,4.2318,4.0977,0.0,0.0,0.0,0.0,0.0,0.0,0.0,0.0,0.0,0.0,0.0,0.0,0.0,0.0,0.0,0.0,0.0,0.0,0.0,0.0,0.0,0.0,0.0,0.0,0.0,0.0,0.0,0.0,0.0,0.0,0.0,0.0,0.0,0.0,0.0,0.0,0.0,0.0,0.0,0.0,0.0,0.0,0.0,0.0,0.0,0.0,0.0,0.0,0.0,0.0,0.0,0.0,0.0,0.0,0.0,0.0,0.0,0.0,0.0,0.0,0.0,0.0,0.0,0.0,0.0,0.0,0.0,0.0,0.0,0.0,0.0,0.0,0.0,0.0,0.0,0.0,0.0,0.0,0.0,0.0,0.0,0.0,0.0,0.0,0.0,0.0,0.0,0.0,0.0,0.0,0.0,0.0,0.0,0.0,0.0,0.0,0.0,0.0,0.0,0.0,0.0,0.0,0.0,0.0,0.0,0.0,0.0,0.0,3.823,4.2988,4.5659,4.6975,4.6952,4.2305,3.9635,0.0,0.0,0.0,0.0,0.0,0.0,0.0,0.0,0.0,0.0,0.0,0.0,0.0,0.0,0.0,0.0,0.0,0.0,0.0,0.0,0.0,0.0,0.0,0.0,0.0,0.0,0.0,0.0,0.0,0.0,0.0,0.0,0.0,0.0,0.0,0.0,0.0,0.0,0.0,0.0,0.0,0.0,0.0,0.0,0.0,0.0,0.0,0.0,0.0,0.0,0.0,0.0,0.0,0.0,0.0,0.0,0.0,0.0,0.0,0.0,0.0,0.0,0.0,0.0,0.0,0.0,0.0,0.0,0.0,0.0,0.0,0.0,0.0,0.0,0.0,0.0,0.0,0.0,0.0,0.0,0.0,0.0,0.0,0.0,0.0,0.0,0.0,0.0,0.0,0.0,0.0,0.0,0.0,0.0,0.0,0.0,0.0,0.0,0.0,0.0,0.0,0.0,0.0,0.0,0.0,0.0,0.0,0.0,0.0,4.0783,4.5462,4.8005,4.7874,4.4175,4.2099,0.0,0.0,0.0,0.0,0.0,0.0,0.0,0.0,0.0,0.0,0.0,0.0,0.0,0.0,0.0,0.0,0.0,0.0,0.0,0.0,0.0,0.0,0.0,0.0,0.0,0.0,0.0,0.0,0.0,0.0,0.0,0.0,0.0,0.0,0.0,0.0,0.0,0.0,0.0,0.0,0.0,0.0,0.0,0.0,0.0,0.0,0.0,0.0,0.0,0.0,0.0,0.0,0.0,0.0,0.0,0.0,0.0,0.0,0.0,0.0,0.0,0.0,0.0,0.0,0.0,0.0,0.0,0.0,0.0,0.0,0.0,0.0,0.0,0.0,0.0,0.0,0.0,0.0,0.0,0.0,0.0,0.0,0.0,0.0,0.0,0.0,0.0,0.0,0.0,0.0,0.0,0.0,0.0,0.0,0.0,0.0,0.0,0.0,0.0,0.0,0.0,0.0,0.0,0.0,0.0,0.0,0.0,0.0,0.0,4.3564,4.8207,5.0465,4.983,4.6172,4.3776,4.2741,0.0,0.0,0.0,0.0,0.0,0.0,0.0,0.0,0.0,0.0,0.0,0.0,0.0,0.0,0.0,0.0,0.0,0.0,0.0,0.0,0.0,0.0,0.0,0.0,0.0,0.0,0.0,0.0,0.0,0.0,0.0,0.0,0.0,0.0,0.0,0.0,0.0,0.0,0.0,0.0,0.0,0.0,0.0,0.0,0.0,0.0,0.0,0.0,0.0,0.0,0.0,0.0,0.0,0.0,0.0,0.0,0.0,0.0,0.0,0.0,0.0,0.0,0.0,0.0,0.0,0.0,0.0,0.0,0.0,0.0,0.0,0.0,0.0,0.0,0.0,0.0,0.0,0.0,0.0,0.0,0.0,0.0,0.0,0.0,0.0,0.0,0.0,0.0,0.0,0.0,0.0,0.0,0.0,0.0,0.0,0.0,0.0,0.0,0.0,0.0,0.0,0.0,0.0,0.0,0.0,0.0,0.0,0.0,4.99,5.3343,5.4233,5.2314,4.8058,4.4641,0.0,0.0,0.0,0.0,0.0,0.0,0.0,0.0,0.0,0.0,0.0,0.0,0.0,0.0,0.0,0.0,0.0,0.0,0.0,0.0,0.0,0.0,0.0,0.0,0.0,0.0,0.0,0.0,0.0,0.0,0.0,0.0,0.0,0.0,0.0,0.0,0.0,0.0,0.0,0.0,0.0,0.0,0.0,0.0,0.0,0.0,0.0,0.0,0.0,0.0,0.0,0.0,0.0,0.0,0.0,0.0,0.0,0.0,0.0,0.0,0.0,0.0,0.0,0.0,0.0,0.0,0.0,0.0,0.0,0.0,0.0,0.0,0.0,0.0,0.0,0.0,0.0,0.0,0.0,0.0,0.0,0.0,0.0,0.0,0.0,0.0,0.0,0.0,0.0,0.0,0.0,0.0,0.0,0.0,0.0,0.0,0.0,0.0,0.0,0.0,0.0,0.0,0.0,0.0,0.0,0.0,0.0,0.0,0.0,5.2492,5.7056,5.7753,5.4172,4.8716,4.5208,0.0,0.0,0.0,0.0,0.0,0.0,0.0,0.0,0.0,0.0,0.0,0.0,0.0,0.0,0.0,0.0,0.0,0.0,0.0,0.0,0.0,0.0,0.0,0.0,0.0,0.0,0.0,0.0,0.0,0.0,0.0,0.0,0.0,0.0,0.0,0.0,0.0,0.0,0.0,0.0,0.0,0.0,0.0,0.0,0.0,0.0,0.0,0.0,0.0,0.0,0.0,0.0,0.0,0.0,0.0,0.0,0.0,0.0,0.0,0.0,0.0,0.0,0.0,0.0,0.0,0.0,0.0,0.0,0.0,0.0,0.0,0.0,0.0,0.0,0.0,0.0,0.0,0.0,0.0,0.0,0.0,0.0,0.0,0.0,0.0,0.0,0.0,0.0,0.0,0.0,0.0,0.0,0.0,0.0,0.0,0.0,0.0,0.0,0.0,0.0,0.0,0.0,0.0,0.0,0.0,0.0,0.0,0.0,5.0596,5.5548,5.9223,5.9764,5.6979,5.2492,4.8358,0.0,0.0,0.0,0.0,0.0,0.0,0.0,0.0,0.0,0.0,0.0,0.0,0.0,0.0,0.0,0.0,0.0,0.0,0.0,0.0,0.0,0.0,0.0,0.0,0.0,0.0,0.0,0.0,0.0,0.0,0.0,0.0,0.0,0.0,0.0,0.0,0.0,0.0,0.0,0.0,0.0,0.0,0.0,0.0,0.0,0.0,0.0,0.0,0.0,0.0,0.0,0.0,0.0,0.0,0.0,0.0,0.0,0.0,0.0,0.0,0.0,0.0,0.0,0.0,0.0,0.0,0.0,0.0,0.0,0.0,0.0,0.0,0.0,0.0,0.0,0.0,0.0,0.0,0.0,0.0,0.0,0.0,0.0,0.0,0.0,0.0,0.0,0.0,0.0,0.0,0.0,0.0,0.0,0.0,0.0,0.0,0.0,0.0,0.0,0.0,0.0,0.0,0.0,0.0,0.0,0.0,0.0,0.0,5.2531,5.8565,6.0383,6.0886,6.0112,5.7288,5.2268,0.0,0.0,0.0,0.0,0.0,0.0,0.0,0.0,0.0,0.0,0.0,0.0,0.0,0.0,0.0,0.0,0.0,0.0,0.0,0.0,0.0,0.0,0.0,0.0,0.0,0.0,0.0,0.0,0.0,0.0,0.0,0.0,0.0,0.0,0.0,0.0,0.0,0.0,0.0,0.0,0.0,0.0,0.0,0.0,0.0,0.0,0.0,0.0,0.0,0.0,0.0,0.0,0.0,0.0,0.0,0.0,0.0,0.0,0.0,0.0,0.0,0.0,0.0,0.0,0.0,0.0,0.0,0.0,0.0,0.0,0.0,0.0,0.0,0.0,0.0,0.0,0.0,0.0,0.0,0.0,0.0,0.0,0.0,0.0,0.0,0.0,0.0,0.0,0.0,0.0,0.0,0.0,0.0,0.0,0.0,0.0,0.0,0.0,0.0,0.0,0.0,0.0,0.0,0.0,0.0,0.0,0.0,0.0,5.226,5.9416,6.1273,6.2046,6.1853,5.6786,5.137,0.0,0.0,0.0,0.0,0.0,0.0,0.0,0.0,0.0,0.0,0.0,0.0,0.0,0.0,0.0,0.0,0.0,0.0,0.0,0.0,0.0,0.0,0.0,0.0,0.0,0.0,0.0,0.0,0.0,0.0,0.0,0.0,0.0,0.0,0.0,0.0,0.0,0.0,0.0,0.0,0.0,0.0,0.0,0.0,0.0,0.0,0.0,0.0,3.7107,0.0,0.0,0.0,0.0,0.0,0.0,0.0,0.0,0.0,0.0,0.0,0.0,0.0,0.0,0.0,0.0,0.0,0.0,0.0,0.0,0.0,0.0,0.0,0.0,0.0,0.0,0.0,0.0,0.0,0.0,0.0,0.0,0.0,0.0,0.0,0.0,0.0,0.0,0.0,0.0,0.0,0.0,0.0,0.0,0.0,0.0,0.0,0.0,0.0,0.0,0.0,0.0,0.0,0.0,0.0,0.0,0.0,0.0,0.0,5.3923,6.0228,6.135,6.1969,6.2221,5.8565,5.3498,0.0,0.0,0.0,0.0,0.0,0.0,0.0,0.0,0.0,0.0,0.0,0.0,0.0,0.0,0.0,0.0,0.0,0.0,0.0,0.0,0.0,0.0,0.0,0.0,0.0,0.0,0.0,0.0,0.0,0.0,0.0,0.0,0.0,0.0,0.0,0.0,0.0,0.0,0.0,0.0,0.0,0.0,0.0,0.0,0.0,0.0,0.0,0.0,0.0,0.0,0.0,0.0,0.0,0.0,0.0,0.0,0.0,0.0,0.0,0.0,0.0,0.0,0.0,0.0,0.0,0.0,0.0,0.0,0.0,0.0,0.0,0.0,0.0,0.0,0.0,0.0,0.0,0.0,0.0,0.0,0.0,0.0,0.0,0.0,0.0,0.0,0.0,0.0,0.0,0.0,0.0,0.0,0.0,0.0,0.0,0.0,0.0,0.0,0.0,0.0,0.0,0.0,0.0,0.0,0.0,0.0,0.0,5.0945,5.547,6.0809,6.1118,6.1466,6.2143,6.0731,5.63,4.872,0.0,0.0,0.0,0.0,0.0,0.0,0.0,0.0,0.0,0.0,0.0,0.0,0.0,0.0,0.0,0.0,0.0,0.0,0.0,0.0,0.0,0.0,0.0,0.0,0.0,0.0,0.0,0.0,0.0,0.0,0.0,0.0,0.0,0.0,0.0,0.0,0.0,0.0,3.4717,3.7467,0.0,0.0,0.0,0.0,0.0,0.0,0.0,0.0,3.9827,0.0,0.0,0.0,0.0,0.0,0.0,0.0,0.0,0.0,0.0,0.0,0.0,0.0,0.0,0.0,0.0,0.0,0.0,0.0,0.0,0.0,0.0,0.0,0.0,0.0,0.0,0.0,0.0,0.0,0.0,0.0,0.0,0.0,0.0,0.0,0.0,0.0,0.0,0.0,0.0,0.0,0.0,0.0,0.0,0.0,0.0,0.0,0.0,0.0,0.0,0.0,0.0,0.0,0.0,0.0,0.0,4.9126,4.9243,5.3072,6.0847,6.1118,6.1157,6.1273,6.0383,5.6283,4.8909,0.0,0.0,0.0,0.0,0.0,0.0,0.0,0.0,0.0,0.0,0.0,0.0,0.0,0.0,0.0,0.0,0.0,0.0,0.0,0.0,0.0,0.0,0.0,0.0,0.0,0.0,0.0,0.0,0.0,0.0,0.0,0.0,0.0,0.0,0.0,0.0,0.0,0.0,0.0,4.3995,4.4738,0.0,0.0,0.0,0.0,0.0,0.0,0.0,0.0,4.0113,0.0,0.0,0.0,0.0,0.0,0.0,0.0,0.0,0.0,0.0,0.0,0.0,0.0,0.0,0.0,0.0,0.0,0.0,0.0,0.0,0.0,0.0,0.0,0.0,0.0,0.0,0.0,0.0,0.0,0.0,0.0,0.0,0.0,0.0,0.0,0.0,0.0,0.0,0.0,0.0,0.0,0.0,0.0,0.0,0.0,0.0,0.0,0.0,0.0,0.0,0.0,0.0,0.0,0.0,0.0,4.9397,5.2337,5.6321,6.1543,6.1311,6.1118,6.1079,6.0306,5.63,0.0,0.0,0.0,0.0,0.0,0.0,0.0,0.0,0.0,0.0,0.0,0.0,0.0,0.0,0.0,0.0,0.0,0.0,0.0,0.0,0.0,0.0,0.0,0.0,0.0,0.0,0.0,0.0,0.0,0.0,0.0,0.0,0.0,0.0,0.0,0.0,0.0,0.0,0.0,0.0,4.5703,4.6771,4.8517,0.0,0.0,0.0,0.0,0.0,0.0,4.2194,4.1177,0.0,0.0,0.0,0.0,0.0,0.0,0.0,0.0,0.0,0.0,0.0,0.0,0.0,0.0,0.0,0.0,0.0,0.0,0.0,0.0,0.0,0.0,0.0,0.0,0.0,0.0,0.0,0.0,0.0,0.0,0.0,0.0,0.0,0.0,0.0,0.0,0.0,0.0,0.0,0.0,0.0,0.0,0.0,0.0,0.0,0.0,0.0,0.0,0.0,0.0,0.0,0.0,0.0,0.0,0.0,4.9707,5.5238,5.9493,6.224,6.1737,6.1273,6.1079,6.046,5.6455,0.0,0.0,0.0,0.0,0.0,0.0,0.0,0.0,0.0,0.0,0.0,0.0,0.0,0.0,0.0,0.0,0.0,0.0,0.0,0.0,0.0,0.0,0.0,0.0,0.0,0.0,0.0,0.0,0.0,0.0,0.0,0.0,0.0,0.0,0.0,0.0,0.0,0.0,0.0,0.0,0.0,4.8457,5.0579,4.8739,0.0,0.0,0.0,0.0,4.5036,4.4923,0.0,0.0,0.0,0.0,0.0,0.0,0.0,0.0,0.0,0.0,0.0,0.0,0.0,0.0,0.0,0.0,0.0,0.0,0.0,0.0,0.0,0.0,0.0,0.0,0.0,0.0,0.0,0.0,0.0,0.0,0.0,0.0,0.0,0.0,0.0,0.0,0.0,0.0,0.0,0.0,0.0,0.0,0.0,0.0,0.0,0.0,0.0,0.0,0.0,0.0,0.0,0.0,0.0,0.0,0.0,0.0,4.9591,5.4078,5.8294,6.2162,6.2317,6.1892,6.1118,6.1002,5.7018,0.0,0.0,0.0,0.0,0.0,0.0,0.0,0.0,0.0,0.0,0.0,0.0,0.0,0.0,0.0,0.0,0.0,0.0,0.0,0.0,0.0,0.0,0.0,0.0,0.0,0.0,0.0,0.0,0.0,0.0,0.0,0.0,0.0,0.0,0.0,0.0,0.0,0.0,0.0,0.0,0.0,5.1513,4.963,4.9199,4.8833,0.0,0.0,4.9809,5.1292,5.2589,0.0,0.0,0.0,0.0,0.0,0.0,0.0,0.0,0.0,0.0,0.0,0.0,0.0,0.0,0.0,0.0,0.0,0.0,0.0,0.0,0.0,0.0,0.0,0.0,0.0,0.0,0.0,0.0,0.0,0.0,0.0,0.0,0.0,0.0,0.0,0.0,0.0,0.0,0.0,0.0,0.0,0.0,0.0,0.0,0.0,0.0,0.0,0.0,0.0,0.0,0.0,0.0,0.0,0.0,0.0,4.549,5.0364,5.5973,6.0267,6.3013,6.2665,6.1969,6.1118,6.0635,5.6613,0.0,0.0,0.0,0.0,0.0,0.0,0.0,0.0,0.0,0.0,0.0,0.0,0.0,0.0,0.0,0.0,0.0,0.0,0.0,0.0,0.0,0.0,0.0,0.0,0.0,0.0,0.0,0.0,0.0,0.0,0.0,0.0,0.0,0.0,0.0,0.0,0.0,0.0,0.0,0.0,0.0,0.0,5.4454,5.4033,0.0,0.0,0.0,5.302,5.2509,0.0,0.0,0.0,0.0,0.0,0.0,0.0,0.0,0.0,0.0,0.0,0.0,0.0,0.0,0.0,0.0,0.0,0.0,0.0,0.0,0.0,0.0,0.0,0.0,0.0,0.0,0.0,0.0,0.0,0.0,0.0,0.0,0.0,0.0,0.0,0.0,0.0,0.0,0.0,0.0,0.0,0.0,0.0,0.0,0.0,0.0,0.0,0.0,0.0,0.0,0.0,0.0,0.0,0.0,0.0,0.0,0.0,5.0945,5.8062,6.2394,6.3632,6.3052,6.2201,6.1157,6.0326,0.0,0.0,0.0,0.0,0.0,0.0,0.0,0.0,0.0,0.0,0.0,0.0,0.0,0.0,0.0,0.0,0.0,0.0,0.0,0.0,0.0,0.0,0.0,0.0,0.0,0.0,0.0,0.0,0.0,0.0,0.0,0.0,0.0,0.0,0.0,0.0,0.0,0.0,0.0,0.0,0.0,0.0,5.712,5.8008,5.7738,5.7099,0.0,0.0,5.5677,5.4291,5.5767,5.6245,0.0,0.0,0.0,0.0,0.0,0.0,0.0,0.0,0.0,0.0,0.0,0.0,0.0,0.0,0.0,0.0,0.0,0.0,0.0,0.0,0.0,0.0,0.0,0.0,0.0,0.0,0.0,0.0,0.0,0.0,0.0,0.0,0.0,0.0,0.0,0.0,0.0,0.0,0.0,0.0,0.0,0.0,0.0,0.0,0.0,0.0,0.0,0.0,0.0,0.0,0.0,0.0,0.0,0.0,0.0,5.1099,5.9223,6.3555,6.3671,6.3632,6.282,6.1157,6.0344,5.6321,0.0,0.0,0.0,0.0,0.0,0.0,0.0,0.0,0.0,0.0,0.0,0.0,0.0,0.0,0.0,0.0,0.0,0.0,0.0,0.0,0.0,0.0,0.0,0.0,0.0,0.0,0.0,0.0,0.0,0.0,0.0,0.0,0.0,0.0,0.0,0.0,0.0,0.0,0.0,0.0,0.0,5.6309,5.7271,5.7987,5.8896,0.0,0.0,5.828,5.8744,6.0759,6.1857,6.0562,0.0,0.0,0.0,0.0,0.0,0.0,0.0,0.0,0.0,0.0,0.0,0.0,0.0,0.0,0.0,0.0,0.0,0.0,0.0,0.0,0.0,0.0,0.0,0.0,0.0,0.0,0.0,0.0,0.0,0.0,0.0,0.0,0.0,0.0,0.0,0.0,0.0,0.0,0.0,0.0,0.0,0.0,0.0,0.0,0.0,0.0,0.0,0.0,0.0,0.0,0.0,0.0,0.0,4.8624,5.0248,5.9106,6.3439,6.2936,6.3942,6.3671,6.193,6.1655,5.8629,0.0,0.0,0.0,0.0,0.0,0.0,0.0,0.0,0.0,0.0,0.0,0.0,0.0,0.0,0.0,0.0,0.0,0.0,0.0,0.0,0.0,0.0,0.0,0.0,0.0,0.0,0.0,0.0,3.8682,3.8914,3.8528,0.0,0.0,0.0,0.0,0.0,0.0,0.0,0.0,0.0,0.0,5.965,5.9029,6.048,0.0,0.0,6.0616,6.0843,6.1012,6.1735,6.2202,6.2109,6.1576,0.0,0.0,0.0,0.0,0.0,0.0,0.0,0.0,0.0,0.0,0.0,0.0,0.0,0.0,0.0,0.0,0.0,0.0,0.0,0.0,0.0,0.0,0.0,0.0,0.0,0.0,0.0,0.0,0.0,0.0,0.0,0.0,0.0,0.0,0.0,0.0,0.0,0.0,0.0,0.0,0.0,0.0,0.0,0.0,0.0,0.0,0.0,0.0,0.0,0.0,0.0,0.0,4.8972,5.0094,5.9068,6.342,6.2819,6.4251,6.4309,6.2913,6.2416,6.0002,0.0,0.0,0.0,0.0,0.0,0.0,0.0,0.0,0.0,0.0,0.0,0.0,0.0,0.0,0.0,0.0,0.0,0.0,0.0,0.0,0.0,0.0,0.0,0.0,0.0,0.0,0.0,0.0,4.1081,4.1197,4.1042,0.0,0.0,0.0,0.0,0.0,0.0,0.0,0.0,0.0,0.0,6.166,6.0809,6.2394,6.3052,6.1273,6.2008,6.2722,6.2535,6.219,6.2158,6.2758,0.0,0.0,0.0,0.0,0.0,0.0,0.0,0.0,0.0,0.0,0.0,0.0,0.0,0.0,0.0,0.0,0.0,0.0,0.0,0.0,0.0,0.0,0.0,0.0,0.0,0.0,0.0,0.0,0.0,0.0,3.0598,0.0,0.0,0.0,0.0,0.0,0.0,0.0,0.0,0.0,0.0,0.0,0.0,0.0,0.0,0.0,0.0,0.0,0.0,0.0,0.0,0.0,0.0,0.0,5.0945,5.9339,6.3728,6.3779,6.4632,6.4704,6.3867,6.2313,5.9801,5.6317,0.0,0.0,0.0,0.0,0.0,0.0,0.0,0.0,0.0,0.0,0.0,0.0,0.0,0.0,0.0,0.0,0.0,0.0,0.0,0.0,0.0,0.0,0.0,0.0,0.0,0.0,3.8411,3.9146,4.1003,0.0,0.0,0.0,0.0,0.0,0.0,0.0,0.0,0.0,0.0,5.9996,6.1427,6.2201,6.3091,6.3594,6.3478,6.3555,6.3613,6.3411,6.269,6.2329,0.0,0.0,0.0,0.0,0.0,0.0,0.0,0.0,0.0,0.0,0.0,0.0,0.0,0.0,0.0,0.0,0.0,0.0,0.0,0.0,0.0,0.0,0.0,0.0,0.0,0.0,0.0,3.1952,3.141,0.0,0.0,0.0,0.0,0.0,0.0,0.0,0.0,0.0,0.0,0.0,5.0558,5.2298,0.0,0.0,0.0,0.0,0.0,0.0,0.0,0.0,0.0,0.0,0.0,0.0,4.9243,5.1215,5.9409,6.38,6.3817,6.5281,6.5623,6.4775,6.4273,6.1576,5.6503,0.0,0.0,0.0,0.0,0.0,0.0,0.0,0.0,0.0,0.0,0.0,0.0,0.0,0.0,0.0,0.0,0.0,0.0,0.0,0.0,0.0,0.0,0.0,0.0,0.0,4.2473,0.0,0.0,0.0,0.0,0.0,0.0,0.0,0.0,0.0,0.0,0.0,5.5664,5.8255,5.9571,6.0615,6.1427,6.2278,6.2627,0.0,0.0,0.0,0.0,0.0,0.0,0.0,0.0,0.0,0.0,0.0,0.0,0.0,0.0,5.9928,5.6983,5.6216,5.592,5.5617,0.0,0.0,0.0,0.0,0.0,0.0,0.0,0.0,0.0,0.0,0.0,0.0,0.0,0.0,0.0,0.0,3.5007,0.0,0.0,0.0,0.0,0.0,0.0,0.0,0.0,4.9853,5.2768,5.3575,5.5277,5.5818,0.0,5.5277,5.3398,0.0,0.0,0.0,0.0,0.0,0.0,0.0,0.0,5.1154,5.3352,6.0157,6.3967,6.4342,6.5785,6.6256,6.5739,6.5154,6.2764,5.8345,5.4918,5.2212,0.0,0.0,0.0,0.0,0.0,0.0,0.0,0.0,0.0,0.0,0.0,0.0,0.0,0.0,0.0,0.0,0.0,0.0,0.0,0.0,0.0,0.0,0.0,4.6728,0.0,0.0,0.0,0.0,0.0,0.0,0.0,0.0,0.0,5.3149,5.5586,5.7791,5.8913,5.9764,6.0615,6.1427,0.0,0.0,0.0,0.0,0.0,0.0,0.0,6.3973,6.3891,6.4016,6.4215,6.4398,6.4718,6.5076,6.5231,0.0,0.0,6.1908,6.1408,6.1302,6.1035,6.059,6.0446,6.0943,6.0326,5.992,0.0,0.0,0.0,0.0,0.0,0.0,0.0,0.0,4.3285,4.3634,0.0,4.0965,0.0,0.0,0.0,0.0,0.0,4.2721,0.0,0.0,5.4332,5.6768,5.6205,5.7753,5.8565,5.8604,5.8526,5.8041,5.6996,5.2392,0.0,0.0,0.0,0.0,0.0,0.0,5.4878,5.7397,6.1663,6.4342,6.5336,6.6153,6.6618,6.6624,6.5036,6.34,6.1646,5.8345,5.5745,5.3877,4.7416,0.0,0.0,0.0,0.0,0.0,0.0,0.0,0.0,0.0,0.0,0.0,0.0,0.0,0.0,0.0,0.0,0.0,0.0,0.0,0.0,4.8856,0.0,0.0,0.0,0.0,0.0,0.0,0.0,0.0,0.0,0.0,5.725,5.872,5.9841,5.9919,0.0,0.0,0.0,0.0,6.3013,6.4599,6.4948,6.5218,6.5953,6.5528,6.5025,6.4986,0.0,0.0,6.4579,6.4144,6.3951,6.4446,6.417,6.3792,6.4446,6.427,6.395,6.3207,6.3089,6.3338,6.3399,6.3218,6.3167,4.9533,0.0,0.0,0.0,0.0,4.3634,4.4175,4.5065,4.5104,4.4523,4.3634,4.3324,0.0,0.0,0.0,0.0,0.0,0.0,4.8111,5.1172,5.349,5.5766,5.7869,5.8372,5.8604,5.8604,5.8604,5.8488,5.8196,5.7434,5.4777,5.0418,0.0,0.0,0.0,0.0,5.6403,5.8531,6.2652,6.5311,6.6192,6.6513,6.6691,6.6712,6.5621,6.453,6.34,6.1286,5.8734,5.5745,5.2572,0.0,0.0,0.0,0.0,0.0,0.0,0.0,0.0,0.0,0.0,0.0,0.0,0.0,0.0,0.0,0.0,0.0,0.0,0.0,5.0442,5.284,5.2995,0.0,0.0,0.0,0.0,0.0,0.0,0.0,0.0,0.0,5.988,5.8836,5.872,0.0,0.0,6.077,6.2201,6.2394,6.2588,6.3091,0.0,0.0,0.0,6.5605,6.5644,6.5064,6.4793,6.485,6.5621,6.5564,6.5487,6.5677,6.5582,6.5311,6.4904,6.4238,6.3515,6.2744,6.3042,6.351,6.3548,6.3631,6.3632,5.5821,5.079,4.8813,4.818,4.841,4.8023,4.8614,4.9861,4.9823,4.9475,4.8817,4.8353,4.7347,4.5993,4.5181,0.0,0.0,0.0,5.1154,5.4743,5.5284,5.6809,5.9068,5.9416,5.9571,5.9609,5.9663,5.968,5.968,6.0267,5.9172,5.6412,0.0,0.0,5.441,5.6922,5.9255,6.1356,6.3988,6.5777,6.6657,6.673,6.6751,6.6712,6.5855,6.4997,6.4101,6.2815,6.1013,5.854,5.6145,5.3322,0.0,0.0,0.0,0.0,0.0,0.0,0.0,0.0,0.0,0.0,0.0,4.2705,0.0,0.0,0.0,0.0,4.874,5.1138,5.3498,5.5084,0.0,0.0,0.0,0.0,0.0,0.0,0.0,5.8952,5.899,5.9591,6.1311,5.9687,5.9145,6.1311,6.1195,6.1389,6.2704,0.0,6.2781,6.3748,6.4793,6.5605,6.5953,6.6688,6.7036,6.6572,6.6224,6.6147,6.6611,6.6456,6.6224,6.6185,6.6185,6.5953,6.5141,6.4752,6.4325,6.3513,6.3456,6.3825,6.4482,6.4425,6.4213,6.0566,5.87,5.3941,5.2302,5.2743,5.1967,5.3344,5.6051,5.6089,5.6476,5.694,5.4774,5.3343,5.2414,4.932,0.0,5.3691,5.3034,5.4855,5.8604,5.8722,5.9224,5.9996,6.0827,6.1214,6.1214,6.1358,6.1446,6.1524,6.1599,6.1991,6.2768,6.1291,6.0823,6.1407,6.1624,6.2871,6.5178,6.5414,6.5944,6.6761,6.68,6.68,6.679,6.5894,6.4997,6.4101,6.3322,6.2503,6.1568,5.853,5.6067,5.4315,0.0,0.0,0.0,0.0,0.0,0.0,0.0,0.0,0.0,0.0,0.0,0.0,0.0,0.0,0.0,5.4387,0.0,5.5857,5.5973,0.0,0.0,0.0,5.6399,5.7327,5.6691,5.7193,5.9687,0.0,0.0,6.2085,0.0,6.0809,6.2394,6.2511,6.2743,6.3671,6.3129,6.3478,6.5721,6.6224,6.6611,6.7384,6.8158,6.8622,6.8545,6.8119,6.7617,6.7578,6.7036,6.6495,6.6379,6.634,6.6031,6.5141,6.5528,6.5876,6.5025,6.4406,6.4406,6.5682,6.5528,6.5102,6.2274,6.1719,5.9267,5.78,5.7149,5.6955,5.6908,5.7018,5.7018,5.6399,5.5432,5.6089,5.6283,5.6051,5.5238,5.5084,5.547,5.6571,5.7615,5.8642,5.9919,6.0615,6.0847,6.1733,6.2155,6.2172,6.2253,6.2609,6.3269,6.334,6.3482,6.3728,6.4048,6.392,6.3392,6.4092,6.4791,6.5434,6.6096,6.6576,6.6772,6.6811,6.6783,6.679,6.5933,6.5036,6.414,6.3322,6.2503,6.1646,6.0818,5.9883,5.8754,5.3934,0.0,0.0,0.0,0.0,0.0,0.0,0.0,0.0,0.0,5.1215,5.3304,0.0,5.4271,0.0,5.5238,5.5548,5.5122,5.5625,0.0,0.0,5.6012,5.6592,5.8101,5.8121,5.8702,6.0576,6.046,6.1002,6.3129,6.3052,6.3207,6.4213,6.3245,6.2975,6.4406,6.4522,6.4793,6.5992,6.6804,6.7501,6.8352,6.8661,6.8854,6.8777,6.8622,6.8506,6.8506,6.8352,6.7965,6.7346,6.7191,6.6611,6.5334,6.518,6.5257,6.5064,6.5296,6.5682,6.6147,6.6031,6.5915,6.3013,6.2279,6.1725,6.0683,5.9335,5.896,5.8464,5.7986,5.7986,5.7443,5.6637,5.7538,5.8351,5.8966,5.8621,5.8372,5.8333,5.8931,5.9413,5.9835,6.0799,6.1436,6.1801,6.2703,6.3107,6.3146,6.3541,6.4012,6.4506,6.4973,6.5193,6.5267,6.5805,6.5787,6.526,6.5366,6.5621,6.5946,6.6524,6.6814,6.6823,6.6823,6.6813,6.6784,6.633,6.5465,6.4218,6.3672,6.2854,6.1685,6.1568,6.1023,5.9776,5.6972,5.5986,0.0,0.0,0.0,0.0,0.0,0.0,0.0,0.0,0.0,0.0,0.0,5.4813,0.0,5.5548,5.5818,5.5393,5.5741,5.6167,5.6553,5.6592,5.725,5.899,5.8836,5.9261,6.0886,6.077,6.135,6.3362,6.3362,6.3748,6.5296,6.4406,6.4019,6.5218,6.5528,6.5953,6.7152,6.8081,6.8893,6.9783,6.9899,6.9938,6.9899,6.9589,6.9319,6.9319,6.9048,6.8661,6.8197,6.8081,6.781,6.6882,6.6688,6.6688,6.6766,6.7036,6.7036,6.6379,6.5915,6.5721,6.3316,6.2026,6.2638,6.2067,6.0652,5.9902,5.916,5.8428,5.835,5.8492,5.8799,5.8828,5.9758,6.1158,6.03,6.0265,6.0768,6.0381,6.0511,6.1081,6.1522,6.2055,6.2638,6.3609,6.409,6.4129,6.4867,6.5297,6.5516,6.6127,6.6579,6.679,6.679,6.6806,6.6761,6.6042,6.5979,6.6562,6.6708,6.6883,6.703,6.6875,6.6875,6.695,6.6649,6.5748,6.4296,6.3945,6.3088,6.1685,6.1568,6.0906,5.9425,5.923,5.8773,0.0,5.7826,0.0,0.0,0.0,0.0,0.0,0.0,0.0,0.0,5.578,5.4929,5.4813,5.5548,5.6051,5.6167,5.6167,5.6515,5.7366,5.7482,5.8139,5.9648,5.9223,5.9377,6.0925,6.0576,6.1118,6.3284,6.3091,6.3671,6.5644,6.5528,6.5412,6.6185,6.6379,6.6959,6.87,6.9667,7.0324,7.0982,7.1214,7.1214,7.1175,7.0634,7.017,7.017,6.9628,6.9125,6.9009,6.8932,6.8893,6.8816,6.8738,6.8738,6.8622,6.8622,6.8236,6.6998,6.6224,6.576,6.4094,6.3731,6.3201,6.3164,6.3432,6.3254,6.0721,5.6641,5.6006,5.6861,5.8803,5.9527,6.042,6.125,6.0459,5.9745,5.9318,6.0566,6.0854,6.0395,6.2457,6.3118,6.2716,6.4247,6.5012,6.5064,6.5255,6.5745,6.6418,6.5922,6.6078,6.679,6.679,6.6783,6.6708,0.0,0.0,0.0,6.6862,6.719,6.7804,6.7226,6.7182,6.7793,6.5836,0.0,6.4189,6.2815,6.1919,6.1607,6.1568,0.0,0.0,0.0,0.0,0.0,0.0,0.0,0.0,0.0,0.0,0.0,5.844,5.6946,5.63,5.5935,5.5509,5.489,5.5548,5.6321,5.7018,5.7056,5.7404,5.8217,5.8372,5.8758,5.9764,5.9725,6.0035,6.0963,6.1582,6.2356,6.3478,6.4135,6.4909,6.5953,6.6069,6.634,6.7114,6.723,6.7887,6.9473,7.0518,7.1059,7.1253,7.133,7.1291,7.1253,7.1214,7.1021,7.0982,7.0905,7.0518,6.9938,6.9783,6.9551,6.897,6.8777,6.8893,6.8816,6.8816,6.87,6.8352,6.8197,6.8119,6.47,0.0,6.4275,6.4016,0.0,6.3564,6.1526,5.8282,5.9149,6.02,6.1445,6.1823,6.2277,6.2601,6.1317,6.0487,6.0099,6.0172,6.0395,6.089,6.258,6.3642,6.4013,6.5372,6.6007,6.5968,6.6007,6.6252,6.6663,6.6252,6.6312,6.6783,6.6798,6.679,6.6794,6.6833,6.7068,6.7536,6.7526,6.7703,6.8062,6.7721,6.7526,6.7477,0.0,0.0,0.0,0.0,0.0,0.0,0.0,0.0,0.0,0.0,0.0,6.0243,5.9794,5.9733,6.0122,5.9772,5.9709,6.0073,5.8823,5.7637,5.6776,5.6311,5.6217,5.6631,5.667,5.7018,5.783,5.7946,5.8294,5.9106,5.9223,5.9571,6.0306,6.0499,6.0809,6.1621,6.2124,6.2859,6.4174,6.4677,6.5296,6.6031,6.6185,6.6533,6.7346,6.7887,6.8854,7.0866,7.1175,7.1601,7.2336,7.1756,7.1485,7.1756,7.1601,7.133,7.1291,7.1291,7.1137,7.0711,7.0634,7.0479,7.017,7.0054,6.9899,6.9551,6.9744,6.9821,6.9512,6.9087,6.8777,6.5194,6.4609,6.5312,6.486,6.367,6.362,6.274,6.152,0.0,0.0,0.0,6.3998,6.4091,6.4142,6.2575,6.1888,6.1771,6.0604,6.0744,6.2001,6.3068,6.4218,6.5426,6.6283,6.6712,6.6712,6.6669,6.6669,6.6702,6.6657,6.6712,6.6778,6.6811,6.694,6.7078,6.7068,6.7654,6.8791,6.8398,6.8297,6.8523,6.8323,6.791,6.7342,6.6844,6.6232,6.5546,6.4661,6.3867,6.3127,6.2426,6.1646,6.0828,6.075,6.0672,6.0555,6.0516,6.0516,6.0516,6.0516,6.0087,5.9128,5.894,5.8551,5.7692,5.6978,5.7102,5.8505,5.7946,5.7869,5.872,5.8836,5.9184,6.0035,6.0112,6.0383,6.1002,6.1273,6.1621,6.2278,6.2704,6.34,6.4754,6.5141,6.5412,6.6069,6.6379,6.692,6.7926,6.8738,6.9744,7.164,7.164,7.1794,7.2761,7.2258,7.164,7.2065,7.1717,7.133,7.1291,7.1291,7.1291,7.1253,7.1291,7.1253,7.1253,7.1175,7.1021,7.0363,7.0789,7.1098,7.0363,6.9705,6.9357,6.5507,6.5429,6.5546,6.5902,6.6344,6.6281,6.6057,6.5582,6.3088,6.2387,6.3088,6.378,6.4509,6.5143,6.4159,6.373,6.3769,6.4257,6.4218,0.0,6.5426,6.5894,6.5465,6.6283,6.6712,6.6712,6.6702,6.6741,6.679,6.6771,6.6798,6.6798,6.6839,6.7226,6.7893,6.7927,6.9098,7.1363,6.9283,6.8828,7.0267,6.8882,6.8401,6.8913,6.6945,6.5693,6.5468,6.4692,6.413,6.3945,6.3828,6.3361,6.2581,6.2503,6.2192,6.149,6.1412,6.1412,6.1412,6.1412,6.1052,6.0185,6.0098,5.9631,5.8599,5.8363,5.8351,5.8604,5.8544,5.8758,5.9571,5.9687,6.0035,6.077,6.0925,6.1002,6.1157,6.1814,6.2278,6.2511,6.3748,6.4599,6.5025,6.5605,6.6031,6.6263,6.6882,6.8081,6.9783,7.0208,7.0324,7.1175,7.1407,7.1407,7.191,7.1562,7.1407,7.1446,7.1446,7.1291,7.1291,7.1291,7.1291,7.1291,7.1291,7.1291,7.1291,7.1291,7.1175,7.0982,7.1137,7.1175,7.0982,7.0789,7.0827,6.6249,6.6249,6.6249,6.6492,6.6862,6.6813,6.6783,6.6624,6.5124,6.4608,6.4958,6.5348,6.5738,6.5972,6.4725,6.4101,6.4062,6.3565,6.3604,6.414,6.4919,6.5582,6.6127,6.6517,6.6946,6.7374,6.7394,6.7423,6.7423,6.7485,6.7247,6.6878,6.7304,6.7958,6.8765,6.926,7.0348,7.1909,7.0358,7.0377,7.1992,7.0388,6.9713,7.0079,6.8496,6.7411,6.6906,6.6063,6.5367,6.488,6.4374,6.3945,6.3556,6.3556,6.3361,6.2971,6.2542,6.2309,6.2309,6.1811,6.1383,6.1062,6.0934,6.0721,6.0268,5.9308,5.9148,5.9956,5.9692,5.9697,6.0493,6.0574,6.0692,6.1079,6.1505,6.1814,6.1892,6.2588,6.3284,6.3748,6.4483,6.518,6.5605,6.5953,6.6417,6.6843,6.7655,6.8854,7.0363,7.0286,7.0672,7.222,7.1949,7.1833,7.2413,7.1833,7.1601,7.191,7.1601,7.133,7.1291,7.1291,7.1291,7.1291,7.1291,7.1291,7.1291,7.1291,7.1098,7.0672,7.1021,7.1098,7.0789,7.0943,7.1291,6.6951,6.7107,6.6873,6.6817,6.6796,6.6805,6.6791,6.6798,6.6789,6.678,6.6741,6.6722,6.6712,6.6556,6.527,6.4686,6.4491,6.3361,6.3478,6.4608,6.4686,6.5426,6.6595,6.6712,6.7063,6.7696,6.7911,6.792,6.7794,6.8183,6.818,6.7808,6.8349,6.9195,7.026,7.0943,7.1792,7.2729,7.1831,7.1919,7.3189,7.1951,7.1209,7.0956,7.0128,6.9277,6.8429,6.7727,6.6993,6.6127,6.5387,6.4803,6.4413,6.4413,6.4296,6.4101,6.3517,6.3166,6.3127,6.2502,6.2102,6.2143,6.2079,6.2043,6.1962,6.0884,6.0382,6.1161,6.0716,6.0631,6.1336,6.1423,6.1485,6.1698,6.2278,6.2665,6.2781,6.3478,6.4213,6.487,6.5141,6.5605,6.6263,6.6495,6.6959,6.7965,6.8661,6.9396,7.0324,7.044,7.1291,7.2529,7.2297,7.1794,7.2993,7.222,7.1678,7.222,7.1756,7.1369,7.1291,7.1291,7.1291,7.1291,7.1291,7.1291,7.1291,7.1291,7.1059,7.0634,7.0943,7.1098,7.0595,7.0905,7.1291,6.7264,6.781,6.7146,6.6787,6.6795,6.6787,6.6795,6.6814,6.6811,6.679,6.6778,6.6789,6.679,6.6751,6.6517,6.6361,6.64,6.6283,6.6244,6.6361,6.6478,6.6556,6.6712,6.6712,6.6722,6.7014,6.7686,6.7781,6.7298,6.8596,6.9599,7.0273,7.0423,7.1275,7.272,7.2974,7.3822,7.5345,7.39,7.3158,7.3281,7.316,7.2695,7.1875,7.1048,7.0167,6.9341,6.9198,6.871,6.7852,6.7647,6.6907,6.5504,6.527,6.4919,6.4218,6.4062,6.3984,6.3984,6.3935,6.378,6.3867,6.378,6.373,6.378,6.3624,6.2919,6.1888,6.1381,6.1662,6.2283,6.2383,6.2603,6.3149,6.3458,6.3594,6.3671,6.4367,6.4909,6.4986,6.5721,6.6417,6.7191,6.7423,6.8042,6.9319,6.9705,7.0324,7.1562,7.1407,7.133,7.2258,7.1872,7.1446,7.164,7.1485,7.1369,7.1485,7.1407,7.1291,7.1291,7.1291,7.1291,7.1291,7.1291,7.1291,7.1291,7.1291,7.1253,7.1098,7.1137,7.1253,7.1175,7.1214,7.1291,6.7771,6.8005,6.7146,6.6817,6.6795,6.6794,6.6787,6.6817,6.6839,6.6873,6.6873,6.6805,6.6806,6.679,6.6712,6.6712,6.6712,6.6712,6.6712,6.6712,6.6712,6.6712,6.6712,6.6732,6.7209,6.8193,6.8648,6.8897,6.9192,6.9833,7.0351,7.0777,7.1698,7.2588,7.333,7.4296,7.4915,7.5032,7.5384,7.5305,7.4647,7.3295,7.2611,7.2655,7.1912,7.1083,7.0291,7.0114,6.9692,6.8816,6.831,6.7686,6.6985,6.6478,6.6011,6.5621,6.5153,6.4647,6.414,6.4101,6.4101,6.4101,6.4101,6.4101,6.4101,6.4101,6.3769,6.3181,6.2989,6.3068,6.3337,6.3347,6.3479,6.3783,6.4191,6.4521,6.4503,6.518,6.5876,6.6379,6.6766,6.7307,6.8119,6.87,6.9241,6.9976,7.0363,7.1098,7.1717,7.1523,7.1485,7.1678,7.1523,7.133,7.1291,7.1291,7.1291,7.1291,7.1291,7.1291,7.1291,7.1291,7.1291,7.1291,7.1291,7.1291,7.1291,7.1291,7.1291,7.1291,7.1291,7.1291,7.1291,7.1291,7.1291,6.7888,6.7966,6.7146,6.6809,6.6787,6.6795,6.6797,6.6797,6.6871,6.6901,6.6891,6.6809,6.6805,6.68,6.6712,6.6712,6.6712,6.6712,6.6712,6.6751,6.6946,6.7063,6.7073,6.7326,6.8085,6.9194,6.9607,7.0219,7.0938,7.078,7.0927,7.1542,7.27,7.3432,7.3744,7.511,7.5501,7.5032,7.6164,7.6438,7.5579,7.3744,7.2987,7.3554,7.3045,7.2176,7.1139,7.1004,7.0571,6.9684,6.905,6.8621,6.8349,6.7764,6.7296,6.7063,6.6478,6.5738,6.488,6.4803,6.4803,6.4803,6.4803,6.4842,6.4803,6.4803,6.4803,6.4793,6.4761,6.466,6.4363,6.4325,6.4348,6.4527,6.5131,6.5523,6.5741,6.6264,6.6922,6.7694,6.781,6.8158,6.9009,6.9783,7.0363,7.0479,7.0905,7.1291,7.1291,7.133,7.1291,7.1291,7.1291,7.1291,7.1291,7.1291,7.1291,7.1291,7.1291,7.1291,7.1291,7.1291,7.1291,7.1291,7.1291,7.1291,7.1291,7.1291,7.1291,7.1291,7.1291,7.1291,7.1291,7.1291,7.1291,6.7342,6.7966,6.7185,6.6926,6.6823,6.6891,6.6856,6.6908,6.6895,6.6943,6.6914,6.6867,6.6829,6.6868,6.6868,6.6751,6.6751,6.6829,6.6868,6.6946,6.7608,6.793,6.7998,6.8778,6.9233,6.9536,7.0213,7.1026,7.1796,7.1167,7.1542,7.308,7.3354,7.3744,7.4408,7.5384,7.5774,7.5696,7.593,7.5891,7.5735,7.4915,7.4447,7.4506,7.445,7.3607,7.2197,7.1877,7.1477,7.061,7.0424,7.0063,6.9362,6.9128,6.8699,6.8037,6.7881,6.7491,6.6673,6.6517,6.6478,6.6517,6.6361,6.6517,6.6322,6.6322,6.64,6.6556,6.6468,6.6174,6.5594,6.5336,6.557,6.6198,6.6377,6.6733,6.7384,6.7425,6.791,6.8566,6.8816,6.9164,6.986,7.0711,7.1059,7.1137,7.1253,7.1291,7.1291,7.1291,7.1291,7.1291,7.1291,7.1291,7.1291,7.1291,7.1291,7.1291,7.1291,7.1291,7.1291,7.1291,7.1291,7.1291,7.1291,7.1291,7.1291,7.1291,7.1291,7.1291,7.1291,7.1291,7.1291,7.1291,7.1446,6.9137,6.8903,6.8591,6.844,6.8484,6.8479,6.8171,6.7633,6.7664,6.736,6.7029,6.7418,6.7615,6.7647,6.8163,6.8067,6.7608,6.8115,6.8349,6.8388,6.8699,6.8837,6.8856,6.9185,6.967,7.0206,7.0548,7.1166,7.1989,7.2218,7.2674,7.3398,7.4408,7.4798,7.4798,7.593,7.636,7.593,7.632,7.6633,7.6594,7.632,7.593,7.535,7.4871,7.4297,7.3615,7.3055,7.2578,7.2267,7.1243,7.0453,7.0141,6.9596,6.9167,6.8894,6.8816,6.8465,6.7686,6.753,6.7296,6.6751,6.6712,6.6751,6.6712,6.6712,6.6946,6.7413,6.753,6.752,6.7626,6.6875,6.6477,6.7106,6.7285,6.757,6.8142,6.8374,6.8664,6.9435,7.0015,7.0518,7.0711,7.1098,7.1291,7.1291,7.1291,7.1291,7.1291,7.1291,7.1291,7.1291,7.1291,7.1291,7.1291,7.1291,7.1291,7.1291,7.1291,7.1291,7.1291,7.1291,7.1291,7.1291,7.1291,7.1291,7.1291,7.1291,7.1291,7.1291,7.1291,7.1485,7.1291,7.1756,7.2026,6.9957,6.945,6.9411,6.9411,6.9372,6.9098,6.863,6.8083,6.781,6.739,6.7135,6.7733,6.8093,6.8287,6.9256,6.9467,6.8885,6.9197,6.9314,6.9353,6.9587,6.9713,6.9779,6.999,7.048,7.1011,7.1124,7.1562,7.2372,7.3029,7.3408,7.3783,7.4876,7.5071,7.4837,7.5969,7.636,7.6047,7.6672,7.7101,7.7101,7.7101,7.6828,7.6248,7.5673,7.5072,7.4564,7.39,7.361,7.3456,7.2451,7.17,7.1349,7.057,6.9985,6.9751,6.944,6.9089,6.8504,6.8154,6.7881,6.7608,6.7569,6.753,6.753,6.753,6.7842,6.8271,6.8427,6.8699,6.8894,6.8232,6.772,6.8083,6.8171,6.8458,6.913,6.9265,6.9631,7.0307,7.0866,7.1214,7.1291,7.1291,7.1291,7.1291,7.1291,7.1291,7.1291,7.1291,7.1291,7.1291,7.1291,7.1291,7.1291,7.1291,7.133,7.133,7.1291,7.1291,7.1291,7.1291,7.1291,7.1291,7.1291,7.1291,7.1291,7.1291,7.133,7.1369,7.1678,7.1988,7.2142,7.2491,7.28,6.9489,6.9567,6.945,6.9606,6.9528,6.8903,6.8279,6.82,6.7459,6.7308,6.7356,6.7929,6.8382,6.8591,7.0018,7.0622,7.0411,6.9865,6.9592,6.9623,7.0286,7.0614,7.0746,7.1338,7.1719,7.202,7.199,7.245,7.3267,7.3408,7.3744,7.4369,7.4603,7.4798,7.4564,7.5579,7.5969,7.6086,7.675,7.7101,7.7101,7.7101,7.7062,7.699,7.6935,7.6208,7.4726,7.4549,7.4499,7.4507,7.4304,7.3921,7.2908,7.2128,7.1427,7.0609,6.9868,6.9401,6.9245,6.8621,6.8621,6.8855,6.9167,6.9011,6.8972,6.9011,6.9128,6.9284,6.9284,6.9401,6.944,6.9401,6.9223,6.9124,6.9097,6.9414,6.998,7.0196,7.0467,7.1042,7.1291,7.1291,7.1291,7.1291,7.1291,7.1291,7.1291,7.1291,7.1291,7.1291,7.1291,7.1291,7.1291,7.1291,7.1291,7.133,7.1369,7.1369,7.133,7.1291,7.1291,7.1291,7.1291,7.1291,7.1291,7.1291,7.1369,7.1407,7.1601,7.1717,7.2104,7.2568,7.2877,7.3226,7.3651,7.1167,7.1206,7.1206,7.1167,7.1167,7.0894,7.0465,6.9879,6.9567,6.9176,6.8874,6.953,6.9877,7.0132,7.1089,7.154,7.1448,7.1228,7.1143,7.1121,7.1347,7.148,7.1579,7.1792,7.2254,7.2811,7.2912,7.3325,7.3989,7.414,7.429,7.4564,7.511,7.5384,7.5423,7.6242,7.6672,7.6711,7.6945,7.7101,7.7101,7.7101,7.7101,7.7107,7.7094,7.6794,7.6289,7.5712,7.5428,7.5386,7.4743,7.4021,7.323,7.2869,7.2284,7.1544,7.1193,7.0726,7.0258,6.9946,6.9557,6.944,6.9323,6.9323,6.9323,6.9362,6.9596,7.0063,7.0219,7.0375,7.0881,7.1037,7.0703,7.0084,7.0006,7.0261,7.0834,7.097,7.1063,7.1236,7.1291,7.1291,7.1291,7.1291,7.1291,7.1291,7.1291,7.1291,7.1291,7.1291,7.1291,7.1291,7.1291,7.1407,7.1523,7.1872,7.2181,7.2104,7.1949,7.1872,7.1756,7.1678,7.1601,7.1523,7.1485,7.1446,7.1485,7.164,7.191,7.2336,7.2877,7.3226,7.3496,7.396,7.4541,7.1987,7.1987,7.1987,7.1987,7.1948,7.1675,7.1206,7.066,7.0348,6.9918,6.9616,7.0304,7.0703,7.0887,7.1623,7.1963,7.1943,7.1997,7.1953,7.1963,7.1955,7.193,7.2032,7.2333,7.289,7.3624,7.3754,7.4173,7.4954,7.4993,7.5149,7.554,7.6008,7.6281,7.632,7.6789,7.7101,7.7101,7.7101,7.7101,7.714,7.7414,7.757,7.7575,7.7605,7.7576,7.75,7.677,7.6287,7.6136,7.5406,7.4605,7.4088,7.3776,7.3336,7.2791,7.2167,7.1661,7.1466,7.092,7.057,7.0258,7.0219,7.0258,7.0219,7.0219,7.0531,7.092,7.1076,7.1232,7.1661,7.1778,7.1521,7.1018,7.0914,7.1077,7.1452,7.1416,7.1376,7.1355,7.1352,7.1291,7.1291,7.1291,7.1291,7.1291,7.1291,7.1291,7.1291,7.1291,7.1291,7.1446,7.1717,7.1833,7.191,7.2375,7.3032,7.2955,7.2761,7.2723,7.2684,7.2684,7.2645,7.2491,7.2413,7.2065,7.2065,7.222,7.2452,7.3032,7.3574,7.4077,7.4463,7.5044,7.5546,7.1987,7.1987,7.1987,7.1987,7.1909,7.1245,7.0933,7.0699,7.0074,6.9801,6.9845,7.0569,7.0858,7.1015,7.1679,7.1986,7.2006,7.2176,7.2215,7.2197,7.2271,7.2401,7.2494,7.3085,7.378,7.4474,7.4574,7.5032,7.5852,7.5891,7.6281,7.6828,7.6906,7.7062,7.6984,7.7101,7.7101,7.7101,7.7101,7.7101,7.7257,7.7804,7.8272,7.8278,7.8157,7.8086,7.793,7.736,7.7011,7.6981,7.6186,7.5686,7.5513,7.4906,7.4427,7.4116,7.2752,7.2479,7.2518,7.1583,7.0998,7.1466,7.1544,7.1817,7.1544,7.1466,7.1505,7.1661,7.17,7.1739,7.1778,7.1817,7.1739,7.1767,7.1563,7.1612,7.1575,7.1529,7.1494,7.1475,7.1415,7.1291,7.1291,7.1291,7.1291,7.1291,7.1291,7.1291,7.1291,7.1291,7.133,7.164,7.2104,7.2452,7.2568,7.3342,7.3922,7.396,7.3806,7.3806,7.3535,7.3458,7.3419,7.3303,7.3187,7.2839,7.2761,7.2993,7.3148,7.3496,7.4115,7.485,7.543,7.5856,7.6049,7.1987,7.1987,7.1987,7.1987,7.1987,7.1714,7.1636,7.1636,7.1402,7.1206,7.1368,7.1545,7.1593,7.1675,7.1875,7.1991,7.2106,7.2616,7.2968,7.3044,7.3591,7.3828,7.3826,7.4056,7.463,7.536,7.5467,7.593,7.6711,7.6672,7.6867,7.7062,7.7101,7.7101,7.7101,7.7101,7.7101,7.7101,7.7101,7.7453,7.7921,7.7687,7.7765,7.8317,7.7845,7.7539,7.7461,7.7247,7.7089,7.7067,7.6829,7.6359,7.5803,7.548,7.5129,7.4466,7.3492,7.2869,7.2869,7.2128,7.1661,7.1739,7.1856,7.1817,7.1817,7.1817,7.1817,7.1817,7.1817,7.1817,7.1817,7.1817,7.1817,7.1767,7.1731,7.1679,7.169,7.1614,7.1586,7.1513,7.1475,7.1376,7.1334,7.1291,7.1291,7.1291,7.1291,7.1291,7.1291,7.1485,7.1562,7.2104,7.2568,7.2993,7.3458,7.427,7.4773,7.4889,7.4928,7.4966,7.4463,7.3922,7.3844,7.3728,7.3806,7.3574,7.3806,7.4038,7.4115,7.4077,7.4966,7.5779,7.5933,7.6281,7.6281,7.1987,7.1987,7.1987,7.1987,7.1987,7.1987,7.1987,7.1987,7.1987,7.1987,7.1993,7.2002,7.1975,7.1981,7.1984,7.1989,7.207,7.2535,7.2925,7.3514,7.4447,7.4988,7.5024,7.506,7.5516,7.6248,7.632,7.6633,7.6984,7.7101,7.7101,7.7101,7.7101,7.7101,7.7101,7.7101,7.7101,7.7179,7.7414,7.7921,7.8311,7.8663,7.9014,7.926,7.8621,7.7968,7.7303,7.7434,7.7486,7.7192,7.7043,7.678,7.6331,7.6231,7.5986,7.548,7.4661,7.4194,7.396,7.3103,7.2557,7.2635,7.2362,7.205,7.2167,7.2089,7.1856,7.2323,7.205,7.2011,7.2206,7.205,7.1817,7.1817,7.1743,7.1719,7.1758,7.1704,7.1645,7.1581,7.155,7.1475,7.1394,7.1373,7.1291,7.1291,7.1291,7.1291,7.133,7.1601,7.2026,7.2607,7.3342,7.3922,7.4347,7.5044,7.543,7.5585,7.5624,7.574,7.5392,7.4695,7.485,7.4811,7.4579,7.4463,7.4657,7.4773,7.4734,7.5005,7.5933,7.6281,7.6359,7.6397,7.6397,7.1987,7.1987,7.1987,7.1987,7.1987,7.1987,7.1987,7.1987,7.1987,7.1987,7.1987,7.1987,7.2002,7.1978,7.2002,7.2049,7.2186,7.2557,7.3143,7.4123,7.5247,7.5946,7.5915,7.5946,7.6326,7.6906,7.7062,7.7062,7.7101,7.7101,7.7101,7.7101,7.7101,7.7101,7.7101,7.7101,7.7101,7.7257,7.7882,7.839,7.8819,7.9678,8.0302,8.0465,7.9828,7.8711,7.7884,7.7859,7.796,7.714,7.7106,7.7043,7.6956,7.6994,7.6921,7.6688,7.5947,7.5441,7.5402,7.4077,7.3492,7.3843,7.2869,7.2362,7.2947,7.2713,7.2596,7.3181,7.2518,7.2596,7.2674,7.2284,7.1856,7.1817,7.1778,7.1817,7.1806,7.177,7.1718,7.1679,7.1581,7.155,7.1494,7.1474,7.1468,7.1859,7.1915,7.2181,7.2258,7.2529,7.2877,7.3226,7.4077,7.4966,7.5392,7.5817,7.6049,7.6204,7.6127,7.6165,7.6165,7.5856,7.6088,7.6049,7.5508,7.5276,7.5314,7.5353,7.5314,7.5508,7.6127,7.6281,7.6397,7.6397,7.6397,7.1987,7.1987,7.1987,7.1987,7.1987,7.1987,7.1987,7.1987,7.1987,7.1987,7.1987,7.1987,7.1993,7.2037,7.211,7.2349,7.3061,7.3671,7.4764,7.6248,7.656,7.6828,7.68,7.675,7.6906,7.7101,7.7101,7.7101,7.7101,7.7101,7.7101,7.7101,7.7179,7.7101,7.714,7.7218,7.7101,7.7257,7.7999,7.8819,7.9366,7.9873,8.0498,8.0855,8.0225,7.9257,7.8389,7.8289,7.796,7.7329,7.7153,7.7285,7.7102,7.7022,7.6999,7.6843,7.622,7.5713,7.5519,7.4817,7.4194,7.4427,7.4077,7.3921,7.4038,7.3921,7.3843,7.4116,7.396,7.3531,7.3064,7.2323,7.1934,7.1856,7.1856,7.1856,7.1817,7.1767,7.177,7.1732,7.1729,7.1645,7.1659,7.2211,7.2328,7.2463,7.2809,7.3248,7.3364,7.3425,7.3734,7.4044,7.4702,7.5492,7.5817,7.6127,7.6243,7.6397,7.6397,7.6397,7.6397,7.6397,7.6397,7.6359,7.6281,7.6088,7.5856,7.5972,7.5933,7.6127,7.6204,7.632,7.6397,7.6397,7.6397,7.1987,7.1987,7.1987,7.1987,7.1987,7.1987,7.1987,7.1987,7.1987,7.1987,7.1987,7.1987,7.2221,7.2573,7.2651,7.308,7.39,7.472,7.554,7.6399,7.6828,7.7062,7.7101,7.7101,7.7101,7.7101,7.7101,7.7101,7.7101,7.7101,7.7101,7.7179,7.7492,7.7726,7.7726,7.7726,7.7999,7.835,7.8741,7.9405,8.0185,8.0732,8.0771,8.1095,8.0852,8.0351,7.9176,7.9465,7.9137,7.8546,7.826,7.7848,7.719,7.7082,7.7061,7.6882,7.6649,7.6298,7.6103,7.5596,7.5207,7.5519,7.4934,7.4778,7.4739,7.4661,7.4661,7.4778,7.4583,7.4038,7.3219,7.2791,7.2323,7.1934,7.2167,7.2245,7.1934,7.1817,7.1806,7.1848,7.2082,7.2249,7.2501,7.2902,7.3294,7.3431,7.349,7.3918,7.3995,7.4131,7.4576,7.4981,7.5503,7.5963,7.6189,7.632,7.632,7.6397,7.6397,7.6397,7.6397,7.6397,7.6397,7.6359,7.6359,7.6359,7.6204,7.6397,7.6397,7.632,7.632,7.6359,7.6397,7.6397,7.6397,7.1987,7.1987,7.1987,7.1987,7.2026,7.2143,7.226,7.2221,7.2221,7.2417,7.2339,7.23,7.2768,7.3315,7.3471,7.3939,7.4759,7.554,7.6203,7.632,7.6828,7.7062,7.7101,7.7101,7.7101,7.7101,7.7101,7.7101,7.7101,7.7101,7.7257,7.7414,7.796,7.8233,7.835,7.8585,7.8702,7.9092,7.96,8.0146,8.0927,8.163,8.1786,8.1524,8.1712,8.1328,8.0312,8.0371,8.0459,7.9795,7.9717,7.8877,7.7918,7.7463,7.7355,7.7284,7.7206,7.7089,7.6804,7.6337,7.6181,7.6882,7.5791,7.5285,7.5558,7.5441,7.5441,7.5324,7.509,7.4155,7.3414,7.3064,7.2713,7.2362,7.2713,7.2674,7.2206,7.1934,7.1817,7.1883,7.2366,7.2718,7.3197,7.3659,7.4017,7.4389,7.445,7.4567,7.4684,7.49,7.539,7.5663,7.607,7.6204,7.6411,7.6421,7.6421,7.6421,7.6421,7.6397,7.6397,7.6397,7.6397,7.6397,7.6397,7.6397,7.6397,7.6397,7.6397,7.6397,7.6397,7.6397,7.6397,7.6397,7.6397,7.1987,7.1987,7.1987,7.1987,7.2104,7.2768,7.3002,7.308,7.3002,7.3471,7.3861,7.3393,7.3549,7.4134,7.429,7.4798,7.5618,7.636,7.675,7.6789,7.7023,7.7101,7.7101,7.7101,7.7101,7.7101,7.7101,7.7101,7.7101,7.7101,7.7453,7.7999,7.839,7.8468,7.878,7.9014,7.9287,7.9444,8.0146,8.081,8.1239,8.1825,8.2254,8.1948,8.2219,8.1719,8.1094,8.0879,8.0615,7.9834,7.9717,7.9587,7.9338,7.9244,7.8828,7.8135,7.7969,7.7685,7.7077,7.6882,7.6804,7.6921,7.6571,7.6454,7.6649,7.661,7.6415,7.6142,7.5402,7.435,7.4194,7.3765,7.3181,7.2986,7.3103,7.3142,7.2791,7.2373,7.1905,7.1905,7.2507,7.3235,7.3717,7.4392,7.5065,7.5424,7.5603,7.5704,7.586,7.5999,7.6259,7.6436,7.6552,7.6555,7.6573,7.6488,7.6421,7.6444,7.6421,7.6421,7.6421,7.6397,7.6397,7.6397,7.6397,7.6397,7.6397,7.6397,7.6397,7.6397,7.6397,7.6397,7.6397,7.6397,7.6397,7.1987,7.1987,7.1987,7.1987,7.2143,7.2924,7.3041,7.2807,7.351,7.3861,7.39,7.39,7.4408,7.4993,7.5188,7.5657,7.6399,7.6828,7.7101,7.7101,7.7101,7.7101,7.7101,7.7101,7.7101,7.7101,7.7101,7.7101,7.7101,7.7101,7.7609,7.8311,7.8819,7.9287,7.9717,8.0146,8.0341,8.042,8.0771,8.1239,8.163,8.2137,8.2254,8.231,8.2304,8.207,8.1836,8.166,8.1513,8.1161,8.1044,8.1038,8.0992,8.0821,8.0172,7.8779,7.833,7.793,7.7206,7.6999,7.6999,7.6999,7.6999,7.6999,7.6999,7.696,7.6999,7.6688,7.6025,7.509,7.5051,7.4544,7.4311,7.3999,7.4116,7.3932,7.3358,7.2832,7.2443,7.2238,7.3124,7.3854,7.4127,7.4961,7.5989,7.6469,7.6675,7.6738,7.684,7.6825,7.677,7.6754,7.6738,7.6669,7.6652,7.6594,7.6471,7.6488,7.6488,7.6466,7.6444,7.6421,7.6421,7.6397,7.6397,7.6397,7.6397,7.6397,7.6397,7.6397,7.6475,7.6475,7.6397,7.6397,7.6475,7.1987,7.1987,7.1987,7.2104,7.2378,7.3197,7.3315,7.3119,7.4212,7.4447,7.3978,7.4486,7.5149,7.5696,7.6008,7.636,7.6906,7.6945,7.7101,7.7101,7.7101,7.7101,7.7101,7.7101,7.7101,7.7101,7.7101,7.7101,7.7101,7.7101,7.7687,7.8507,7.9366,7.9873,8.0381,8.0654,8.1435,8.1435,8.163,8.1669,8.2137,8.2293,8.2293,8.2299,8.2304,8.2304,8.2187,8.2207,8.2182,8.2176,8.2293,8.2411,8.2326,8.239,8.1312,7.9325,7.873,7.8046,7.7284,7.6999,7.6999,7.6999,7.6999,7.6999,7.6999,7.696,7.6921,7.6649,7.5908,7.5129,7.4867,7.5062,7.475,7.4488,7.4722,7.5073,7.4041,7.3427,7.3241,7.3427,7.408,7.4353,7.4548,7.5491,7.6547,7.6663,7.6833,7.6885,7.691,7.6962,7.691,7.6869,7.6786,7.6738,7.6704,7.6708,7.6614,7.6614,7.6594,7.6573,7.651,7.6466,7.6444,7.6421,7.6397,7.6397,7.6397,7.6397,7.6397,7.6436,7.6552,7.6552,7.6475,7.663,7.6784,7.1987,7.1987,7.1987,7.2456,7.3158,7.3939,7.472,7.5188,7.5384,7.5618,7.5266,7.5501,7.5579,7.593,7.6594,7.6516,7.6438,7.675,7.7101,7.7101,7.7101,7.7101,7.7101,7.7101,7.7101,7.7101,7.7101,7.7101,7.7179,7.7179,7.7921,7.9014,7.8858,7.9092,8.0185,8.0732,8.0615,8.0459,8.1435,8.2176,8.2254,8.2293,8.2293,8.231,8.2304,8.2304,8.2304,8.2324,8.2293,8.2371,8.2957,8.2918,8.256,8.2975,8.2288,8.0963,7.9812,7.8748,7.744,7.7038,7.7011,7.7011,7.6999,7.6999,7.6999,7.6972,7.6738,7.5869,7.5207,7.4634,7.4304,7.3797,7.3544,7.3904,7.4489,7.4762,7.4303,7.435,7.4148,7.418,7.4687,7.4663,7.4732,7.5941,7.6999,7.6999,7.6999,7.6999,7.6999,7.6999,7.6999,7.6923,7.6897,7.6816,7.6801,7.6809,7.6721,7.6687,7.6651,7.6632,7.6594,7.6531,7.6488,7.6466,7.6444,7.6514,7.6668,7.663,7.6475,7.6552,7.6784,7.6707,7.6475,7.6746,7.7132,7.1987,7.1987,7.1987,7.2221,7.2729,7.3939,7.4447,7.4603,7.5384,7.5813,7.5696,7.5227,7.5305,7.5852,7.6711,7.6906,7.6672,7.6906,7.7101,7.7101,7.7101,7.7101,7.7101,7.7101,7.7101,7.7101,7.7179,7.7492,7.7531,7.7453,7.7804,7.878,7.8741,7.9209,8.0185,8.0771,8.1083,8.1356,8.1903,8.2293,8.2293,8.2293,8.2293,8.2293,8.2297,8.2304,8.2304,8.2324,8.2293,8.2371,8.2723,8.2684,8.2443,8.2468,8.1976,8.0406,7.9832,7.8993,7.793,7.7323,7.7061,7.6994,7.6983,7.6999,7.6999,7.6983,7.6916,7.6493,7.6136,7.5416,7.4714,7.4693,7.4367,7.4375,7.4375,7.4538,7.474,7.5165,7.5213,7.5243,7.5272,7.5293,7.5382,7.6186,7.6972,7.6999,7.6999,7.6999,7.6999,7.6999,7.6999,7.6987,7.6936,7.6923,7.691,7.6897,7.6816,7.6786,7.677,7.6721,7.669,7.6614,7.6573,7.651,7.6466,7.6637,7.6924,7.6823,7.6591,7.6823,7.7094,7.7171,7.7248,7.721,7.7442,7.1987,7.1987,7.1987,7.2104,7.2417,7.3666,7.4017,7.3861,7.5188,7.5696,7.5423,7.5032,7.5149,7.5657,7.6477,7.6906,7.6711,7.6984,7.7062,7.7101,7.7101,7.7101,7.7101,7.7101,7.7101,7.7101,7.7492,7.7765,7.8038,7.8155,7.839,7.8975,7.9014,7.96,8.0576,8.1044,8.1278,8.2098,8.2215,8.2293,8.2293,8.2293,8.2293,8.231,8.2292,8.2304,8.2304,8.2289,8.2305,8.2332,8.2645,8.2606,8.2053,8.2085,8.1485,8.0142,7.9452,7.8925,7.8145,7.755,7.7111,7.6994,7.7004,7.7011,7.6983,7.7014,7.679,7.6504,7.642,7.5932,7.5395,7.4944,7.4304,7.4083,7.4369,7.4608,7.4853,7.5298,7.5853,7.6163,7.6154,7.6185,7.6354,7.6673,7.6983,7.6999,7.7038,7.6999,7.6999,7.6999,7.6999,7.6999,7.6999,7.6948,7.6987,7.6975,7.6923,7.6871,7.6844,7.6816,7.6738,7.6708,7.6671,7.6594,7.6549,7.6869,7.7233,7.7001,7.6823,7.7558,7.8138,7.8177,7.8177,7.8061,7.7519,7.1987,7.1987,7.1987,7.2456,7.3119,7.3315,7.3783,7.4251,7.5266,7.5227,7.4759,7.5266,7.5266,7.5266,7.6281,7.6711,7.6047,7.675,7.7023,7.7101,7.7101,7.7101,7.7101,7.7101,7.7101,7.7218,7.757,7.8038,7.8507,7.8819,7.9639,8.0615,7.9639,8.0146,8.0732,8.1083,8.1552,8.2176,8.2293,8.2293,8.2293,8.2293,8.2293,8.2299,8.2324,8.2301,8.2301,8.2292,8.2315,8.2293,8.2606,8.2411,8.163,8.1623,8.0914,7.9768,7.8906,7.8516,7.8018,7.7511,7.7089,7.7011,7.6994,7.7004,7.6994,7.7004,7.6653,7.6186,7.6322,7.5434,7.439,7.3392,7.3849,7.3543,7.3906,7.4223,7.4666,7.5462,7.6052,7.6756,7.6948,7.6827,7.6782,7.6978,7.7034,7.7053,7.6999,7.6999,7.6999,7.6999,7.6999,7.6999,7.6999,7.6999,7.6999,7.6987,7.6936,7.6936,7.6923,7.6858,7.6816,7.677,7.6704,7.6767,7.6807,7.7151,7.7605,7.786,7.8208,7.882,7.9144,7.9028,7.8912,7.8796,7.7867,7.1987,7.1987,7.1987,7.2182,7.2534,7.308,7.3471,7.3783,7.4095,7.4134,7.39,7.511,7.5618,7.5696,7.6399,7.6945,7.6672,7.6906,7.7062,7.7101,7.7101,7.7101,7.7101,7.7101,7.7101,7.7179,7.7531,7.796,7.8429,7.8936,7.9405,7.9756,7.9834,7.9912,8.0302,8.1239,8.1942,8.2137,8.2293,8.2293,8.2293,8.2293,8.2293,8.2293,8.2295,8.2301,8.2304,8.2292,8.231,8.226,8.2176,8.1669,8.1083,8.1005,8.0257,7.9275,7.8612,7.8252,7.7792,7.7326,7.7038,7.7011,7.7053,7.7034,7.7004,7.7024,7.6946,7.6634,7.6448,7.5764,7.5109,7.4779,7.4636,7.3588,7.3359,7.3833,7.4466,7.5382,7.6009,7.6671,7.7028,7.7108,7.7105,7.7137,7.714,7.7129,7.7043,7.6999,7.6999,7.6999,7.6999,7.6999,7.6999,7.6999,7.6999,7.6999,7.6999,7.7038,7.7077,7.7053,7.7027,7.683,7.6809,7.686,7.7252,7.7817,7.8377,7.9033,7.9415,7.9602,7.9671,7.9647,7.9569,7.9453,7.837,7.1987,7.1987,7.1987,7.1987,7.2065,7.2651,7.2924,7.2963,7.3236,7.3471,7.3744,7.5149,7.5813,7.6047,7.6672,7.7062,7.7023,7.7062,7.7101,7.7101,7.7101,7.7101,7.7101,7.7101,7.7101,7.714,7.7453,7.7921,7.839,7.8663,7.9014,7.9405,7.9834,8.0107,8.0498,8.1435,8.2293,8.2293,8.2293,8.2293,8.2293,8.2293,8.2293,8.2293,8.2328,8.2304,8.2304,8.2292,8.232,8.2143,8.1864,8.1356,8.0888,8.0381,7.9639,7.9079,7.8675,7.8378,7.7948,7.7258,7.705,7.7022,7.7024,7.7034,7.7024,7.7043,7.7012,7.7004,7.6981,7.6763,7.5943,7.5527,7.5032,7.4056,7.3978,7.4374,7.477,7.5486,7.5994,7.654,7.6824,7.7178,7.7181,7.7176,7.7161,7.7121,7.7073,7.7033,7.6983,7.7011,7.6999,7.6999,7.6999,7.6999,7.6999,7.7077,7.7194,7.7467,7.7467,7.735,7.7248,7.7131,7.7181,7.7408,7.7865,7.8548,7.9155,7.9757,7.9946,8.0051,8.0198,8.0406,7.9918,7.9685,7.8796,7.1987,7.1987,7.1987,7.1987,7.1987,7.2026,7.2065,7.226,7.2885,7.3627,7.4369,7.5345,7.5852,7.6047,7.6828,7.7062,7.7101,7.7101,7.7101,7.7101,7.7101,7.7101,7.7218,7.7257,7.7375,7.7375,7.7726,7.8194,7.8272,7.8663,7.8819,7.9053,7.9717,8.0771,8.1005,8.1825,8.2254,8.2293,8.2293,8.2293,8.2293,8.2293,8.2293,8.2299,8.231,8.23,8.2297,8.2297,8.2328,8.2221,8.202,8.1552,8.1005,8.0771,8.0224,7.9633,7.9487,7.947,7.9448,7.7931,7.7316,7.7043,7.7043,7.7043,7.7043,7.7059,7.7075,7.7059,7.7067,7.6724,7.6223,7.5801,7.5305,7.4876,7.4798,7.472,7.5077,7.5467,7.598,7.6375,7.6761,7.7112,7.7161,7.7165,7.7165,7.714,7.7106,7.7073,7.7004,7.7022,7.705,7.735,7.7389,7.7623,7.7662,7.735,7.7389,7.774,7.8012,7.8012,7.7935,7.7832,7.7884,7.8037,7.8606,7.9291,7.9904,8.0455,8.0631,8.0821,8.1097,8.1103,8.0536,7.9763,7.8757,7.1987,7.1987,7.1987,7.1987,7.1987,7.1987,7.1987,7.2026,7.2378,7.3197,7.433,7.4876,7.5696,7.6438,7.6867,7.7101,7.7101,7.7101,7.7101,7.7101,7.7101,7.7531,7.7726,7.7882,7.7882,7.7999,7.8311,7.8038,7.7531,7.8077,7.7921,7.7999,7.9483,8.0693,8.1591,8.2215,8.2293,8.2293,8.2293,8.2293,8.2293,8.2293,8.2293,8.2293,8.231,8.23,8.2292,8.2301,8.2292,8.2227,8.1981,8.1474,8.1005,8.0771,8.0185,7.9789,7.9682,7.9578,7.9587,7.8828,7.8165,7.755,7.7129,7.7137,7.7012,7.7067,7.7075,7.7075,7.7075,7.6848,7.6744,7.6666,7.6281,7.5618,7.5384,7.5032,7.5155,7.5545,7.5936,7.617,7.656,7.6961,7.7126,7.7156,7.7117,7.7112,7.7082,7.7043,7.7014,7.7082,7.7139,7.7751,7.8051,7.8324,7.8363,7.8168,7.8324,7.8792,7.8987,7.9026,7.887,7.8636,7.878,7.8988,7.9533,8.0065,8.0567,8.1065,8.1442,8.166,8.1695,8.1104,8.0152,7.9331,7.8486,7.1987,7.1987,7.1987,7.1987,7.1987,7.1987,7.2143,7.2378,7.2495,7.3393,7.472,7.4993,7.5696,7.675,7.7101,7.7101,7.7101,7.7101,7.7101,7.7101,7.7101,7.7609,7.8116,7.8429,7.8272,7.839,7.8311,7.7999,7.7218,7.7101,7.757,7.839,7.9131,8.0654,8.1747,8.2293,8.2293,8.2293,8.2293,8.2293,8.2293,8.2293,8.2293,8.2299,8.2315,8.2295,8.2304,8.2301,8.2292,8.212,8.1831,8.1435,8.1239,8.1005,8.0576,8.0608,8.0548,8.0415,8.0181,8.0064,7.9166,7.777,7.7582,7.7379,7.7137,7.7075,7.7082,7.7082,7.7082,7.7089,7.7062,7.7101,7.6828,7.6164,7.6047,7.5735,7.5774,7.6203,7.6281,7.6477,7.656,7.6883,7.7083,7.7078,7.7107,7.7101,7.7101,7.7067,7.7034,7.7092,7.7306,7.7907,7.8402,7.8636,7.8909,7.9142,7.9376,7.9883,7.9883,7.9805,7.9727,7.9493,7.9688,7.9883,8.0221,8.0637,8.1156,8.1583,8.1812,8.1865,8.1852,8.1019,7.9796,7.9093,7.8463,7.1948,7.1948,7.1948,7.1948,7.1987,7.1987,7.2456,7.3197,7.3197,7.4134,7.5735,7.5618,7.6086,7.6906,7.7101,7.7101,7.7101,7.7101,7.7101,7.7101,7.7101,7.7765,7.8233,7.8468,7.8546,7.8507,7.835,7.796,7.7179,7.7101,7.7882,7.9131,7.9522,8.0771,8.1747,8.2293,8.2293,8.2293,8.2293,8.2293,8.2293,8.2293,8.2293,8.2293,8.2305,8.232,8.2297,8.2304,8.2303,8.2253,8.2232,8.2221,8.2254,8.2293,8.2293,8.2209,8.2039,8.1524,8.1094,8.093,8.0204,7.8923,7.8533,7.798,7.7394,7.7089,7.7095,7.7095,7.7095,7.7095,7.7101,7.7101,7.7062,7.6906,7.6906,7.6828,7.6828,7.6945,7.6984,7.7023,7.699,7.7112,7.7112,7.7101,7.7107,7.714,7.714,7.7095,7.7059,7.7043,7.7384,7.8102,7.8519,7.887,7.9259,7.9883,8.035,8.0818,8.0467,8.0312,8.0312,8.0428,8.0584,8.074,8.0818,8.113,8.1585,8.187,8.2013,8.2012,8.1952,8.1126,7.9929,7.9465,7.8865,7.1089,7.1089,7.1089,7.1441,7.1948,7.1987,7.2495,7.3158,7.2729,7.3627,7.5774,7.5149,7.5813,7.7023,7.7101,7.7101,7.7101,7.7101,7.7101,7.7101,7.7101,7.8116,7.8624,7.8819,7.8858,7.8897,7.8702,7.8038,7.7296,7.7101,7.8038,7.9405,7.9795,8.0849,8.1747,8.2293,8.2293,8.2293,8.2293,8.2293,8.2293,8.2293,8.2293,8.2293,8.2293,8.231,8.2289,8.2297,8.2304,8.2295,8.2289,8.232,8.2293,8.2293,8.2287,8.2234,8.2148,8.2031,8.1836,8.1797,8.1258,8.0179,7.9672,7.8461,7.7642,7.7134,7.714,7.7101,7.7101,7.7101,7.7101,7.7101,7.7101,7.7101,7.7101,7.7101,7.7101,7.7101,7.714,7.7156,7.7122,7.7126,7.7117,7.7073,7.7117,7.7146,7.7179,7.714,7.7121,7.7063,7.7412,7.8129,7.8831,7.922,8.0195,8.0896,8.1325,8.1597,8.1208,8.1013,8.1247,8.1403,8.1481,8.1519,8.1442,8.1636,8.1948,8.2104,8.2104,8.2104,8.1987,8.1049,8.024,7.9804,7.9014,7.0387,7.0699,7.0699,7.1206,7.1909,7.1987,7.2495,7.308,7.2729,7.3783,7.5579,7.5266,7.5774,7.6906,7.7101,7.7101,7.7101,7.7101,7.7101,7.7101,7.7101,7.8233,7.8897,7.917,7.9287,7.9326,7.9053,7.835,7.7492,7.7609,7.8429,7.96,7.9912,8.1005,8.1903,8.2293,8.2293,8.2293,8.2293,8.2293,8.2293,8.2293,8.2293,8.2293,8.2293,8.2305,8.232,8.2324,8.2303,8.2301,8.2297,8.2324,8.2299,8.2293,8.2293,8.2241,8.2241,8.2241,8.2163,8.2163,8.174,8.1161,8.0498,7.9366,7.8155,7.7375,7.7218,7.7101,7.7101,7.7101,7.7101,7.7101,7.7101,7.7101,7.7101,7.7101,7.7101,7.7101,7.7117,7.713,7.7137,7.7139,7.7137,7.7094,7.7122,7.719,7.7179,7.714,7.7121,7.7112,7.7501,7.8168,7.8948,7.9649,8.0662,8.1481,8.1753,8.1909,8.1831,8.1792,8.2104,8.2026,8.1831,8.1909,8.1987,8.2104,8.2104,8.2104,8.2104,8.2104,8.2026,8.1416,8.0766,8.0362,7.9321,6.9723,7.0465,7.066,7.1206,7.1948,7.1987,7.2456,7.3158,7.3041,7.4134,7.5384,7.554,7.5813,7.6399,7.6672,7.6789,7.6867,7.6945,7.7101,7.7101,7.7101,7.7999,7.8975,7.9483,7.9053,7.9326,7.9131,7.8155,7.7648,7.7843,7.8663,7.9678,8.0498,8.1396,8.2137,8.2293,8.2293,8.2293,8.2293,8.2293,8.2293,8.2293,8.2293,8.2293,8.2293,8.2293,8.2299,8.232,8.2297,8.2304,8.2301,8.2328,8.2305,8.2293,8.2293,8.2293,8.2287,8.2287,8.2287,8.2287,8.1936,8.1435,8.1005,7.999,7.8858,7.7843,7.757,7.714,7.7101,7.7101,7.7101,7.7101,7.7101,7.7101,7.7101,7.7101,7.7101,7.7112,7.713,7.7148,7.7187,7.7187,7.7148,7.7147,7.7148,7.7176,7.7195,7.7156,7.7368,7.7324,7.7667,7.8297,7.8987,7.9805,8.0662,8.1403,8.187,8.2065,8.2104,8.2104,8.2104,8.2104,8.2104,8.2104,8.2104,8.2104,8.2104,8.2104,8.2104,8.2104,8.1987,8.1714,8.1312,8.091,8.0,6.8513,6.8864,7.0152,7.1206,7.1948,7.1987,7.2104,7.23,7.23,7.3275,7.4486,7.429,7.4408,7.5305,7.593,7.6086,7.6203,7.6672,7.7023,7.7062,7.7023,7.7804,7.8468,7.8507,7.839,7.8311,7.8077,7.7726,7.7453,7.7999,7.8858,7.9678,8.0537,8.1435,8.2098,8.2176,8.2176,8.2293,8.2293,8.2293,8.2293,8.2293,8.2293,8.2293,8.2293,8.2293,8.2293,8.2299,8.2292,8.2304,8.2304,8.2295,8.2299,8.2293,8.2293,8.2293,8.2293,8.2293,8.2293,8.2293,8.2098,8.1825,8.1356,8.0459,7.9522,7.8585,7.7882,7.7414,7.7101,7.7101,7.7101,7.7101,7.7101,7.7101,7.7101,7.7101,7.7101,7.7126,7.7139,7.7187,7.7187,7.7226,7.7226,7.7223,7.7172,7.7181,7.7187,7.7339,7.7868,7.8032,7.8038,7.8542,7.9104,7.9844,8.0623,8.1403,8.1909,8.2104,8.2104,8.2104,8.2104,8.2104,8.2104,8.2104,8.2104,8.2104,8.2104,8.2104,8.2104,8.2104,8.2065,8.187,8.187,8.1585,8.065,6.7771,6.8279,6.9957,7.1206,7.1909,7.1987,7.1987,7.1987,7.1987,7.2495,7.3354,7.3354,7.3744,7.4408,7.5032,7.5227,7.5384,7.6125,7.636,7.6516,7.714,7.7999,7.8116,7.8038,7.8546,7.8546,7.7609,7.7218,7.7257,7.835,7.9326,7.9405,8.0224,8.12,8.1747,8.1747,8.1981,8.2293,8.2293,8.2293,8.2293,8.2293,8.2293,8.2293,8.2293,8.2293,8.2293,8.2293,8.2324,8.2304,8.23,8.2328,8.2299,8.2293,8.2293,8.2293,8.2293,8.2293,8.2293,8.2293,8.2293,8.2059,8.1942,8.1122,7.9834,7.8936,7.8194,7.7687,7.7179,7.7101,7.7101,7.7101,7.7101,7.7101,7.7107,7.7107,7.7087,7.7103,7.7108,7.7148,7.7265,7.75,7.7577,7.7887,7.7928,7.8371,7.8233,7.7851,7.8272,7.8752,7.8737,7.8993,7.9634,7.9688,8.0,8.0974,8.1987,8.2104,8.2104,8.2104,8.2104,8.2104,8.2104,8.2104,8.2104,8.2104,8.2104,8.2104,8.2104,8.2104,8.2104,8.2065,8.2104,8.2104,8.1442,6.7342,6.8279,6.9723,7.0933,7.1753,7.1831,7.187,7.1987,7.1987,7.1987,7.2221,7.2846,7.3549,7.3978,7.433,7.433,7.472,7.5618,7.5813,7.6125,7.6789,7.7609,7.8233,7.8624,7.8819,7.8546,7.7726,7.7296,7.714,7.835,7.8975,7.8858,7.9717,8.0888,8.0966,8.1122,8.1435,8.2098,8.2293,8.2293,8.2293,8.2293,8.2293,8.2293,8.2293,8.2293,8.2293,8.2299,8.2324,8.2304,8.2295,8.2315,8.2299,8.2293,8.2293,8.2293,8.2293,8.2293,8.2293,8.2293,8.2293,8.2254,8.2254,8.1474,8.0146,7.9209,7.8468,7.7804,7.7296,7.7101,7.7101,7.7101,7.7101,7.7101,7.7107,7.7078,7.7097,7.7108,7.7108,7.71,7.73,7.7578,7.8003,7.835,7.875,7.9242,7.9317,7.8983,7.886,7.9304,7.9565,7.991,8.0464,8.0374,8.0156,8.0779,8.2065,8.2104,8.2104,8.2104,8.2104,8.2104,8.2104,8.2104,8.2104,8.2104,8.2104,8.2104,8.2104,8.2104,8.2104,8.2104,8.2104,8.2104,8.2104,6.7303,6.8122,6.8474,6.9528,7.0816,7.0972,7.1363,7.1948,7.1987,7.1987,7.2065,7.2104,7.2417,7.2573,7.3275,7.3549,7.3744,7.4915,7.5657,7.5969,7.6672,7.7257,7.7804,7.8429,7.8507,7.8155,7.7648,7.7257,7.7257,7.8116,7.8585,7.8429,7.9326,8.0302,8.0927,8.1083,8.1396,8.202,8.2293,8.2293,8.2293,8.2293,8.2293,8.2293,8.2293,8.2293,8.2293,8.2293,8.2315,8.23,8.234,8.2359,8.2339,8.2371,8.2411,8.2293,8.2293,8.2293,8.2293,8.2293,8.2293,8.2254,8.1981,8.1122,7.9951,7.9131,7.8311,7.7492,7.7101,7.7101,7.7101,7.7101,7.7101,7.7101,7.7107,7.7087,7.7103,7.7109,7.7103,7.713,7.72,7.7731,7.8392,7.8706,7.9062,7.9485,7.9831,7.9609,7.9995,8.0202,8.0353,8.0748,8.1187,8.1633,8.1649,8.1364,8.2104,8.2104,8.2104,8.2104,8.2104,8.2104,8.2104,8.2104,8.2104,8.2104,8.2104,8.2104,8.2104,8.2104,8.2104,8.2104,8.2104,8.2104,8.2104]},{"header":{"parameterUnit":"m.s-1","parameterCategory":1,"la1":31.0,"la2":29.5877,"lo1":-88.7671,"lo2":-86.6584,"dy":0.0162,"dx":0.0185,"nx":115,"ny":88,"refTime":"2024-03-07T18:00:00:Z","depth":0,"parameterNumber":3,"parameterNumberName":"V-component_of_WINDS"},"data":[0.0,0.0,0.0,0.0,0.0,0.0,0.0,0.0,0.0,0.0,0.0,0.0,0.0,0.0,0.0,0.0,0.0,0.0,0.0,0.0,0.0,0.0,0.0,0.0,0.0,0.0,0.0,0.0,0.0,0.0,0.0,0.0,0.0,0.0,0.0,0.0,0.0,0.0,0.0,0.0,0.0,0.0,0.0,0.0,0.0,0.0,0.0,0.0,0.0,0.0,0.0,0.0,0.0,0.0,0.0,0.0,0.0,0.0,0.0,0.0,0.0,0.0,0.0,0.0,0.0,0.0,0.0,0.0,0.0,0.0,0.0,0.0,0.0,0.0,0.0,0.0,0.0,0.0,0.0,0.0,0.0,0.0,0.0,0.0,0.0,0.0,0.0,0.0,0.0,0.0,0.0,0.0,0.0,0.0,0.0,0.0,0.0,0.0,0.0,0.0,0.0,0.0,0.0,0.0,0.0,0.0,0.0,0.0,0.0,0.0,0.0,0.0,0.0,0.0,0.0,0.0,0.0,0.0,0.0,0.0,0.0,0.0,0.0,0.0,0.0,0.0,0.0,0.0,0.0,0.0,0.0,0.0,0.0,0.0,0.0,0.0,0.0,0.0,0.0,0.0,0.0,0.0,0.0,0.0,0.0,0.0,0.0,0.0,0.0,0.0,0.0,0.0,0.0,0.0,0.0,0.0,0.0,0.0,0.0,0.0,0.0,0.0,0.0,0.0,0.0,0.0,0.0,0.0,0.0,0.0,0.0,0.0,0.0,0.0,0.0,0.0,0.0,0.0,0.0,0.0,0.0,0.0,0.0,0.0,0.0,0.0,0.0,0.0,0.0,0.0,0.0,0.0,0.0,0.0,0.0,0.0,0.0,0.0,0.0,0.0,0.0,0.0,0.0,0.0,0.0,0.0,0.0,0.0,0.0,0.0,0.0,0.0,0.0,0.0,0.0,0.0,0.0,0.0,0.0,0.0,0.0,0.0,0.0,0.0,0.0,0.0,0.0,0.0,0.0,0.0,0.0,0.0,0.0,0.0,0.0,0.0,0.0,0.0,0.0,0.0,0.0,0.0,0.0,0.0,0.0,0.0,0.0,0.0,0.0,0.0,0.0,0.0,0.0,0.0,0.0,0.0,0.0,0.0,0.0,0.0,0.0,0.0,0.0,0.0,0.0,0.0,0.0,0.0,0.0,0.0,0.0,0.0,0.0,0.0,0.0,0.0,0.0,0.0,0.0,0.0,0.0,0.0,0.0,0.0,0.0,0.0,0.0,0.0,0.0,0.0,0.0,0.0,0.0,0.0,0.0,0.0,0.0,0.0,0.0,0.0,0.0,0.0,0.0,0.0,0.0,0.0,0.0,0.0,0.0,0.0,0.0,0.0,0.0,0.0,0.0,0.0,0.0,0.0,0.0,0.0,0.0,0.0,0.0,0.0,0.0,0.0,0.0,0.0,0.0,0.0,0.0,0.0,0.0,0.0,0.0,0.0,0.0,0.0,0.0,0.0,0.0,0.0,0.0,0.0,0.0,0.0,0.0,0.0,0.0,0.0,0.0,0.0,0.0,0.0,0.0,0.0,0.0,0.0,0.0,0.0,0.0,0.0,0.0,0.0,0.0,0.0,0.0,0.0,0.0,0.0,0.0,0.0,0.0,0.0,0.0,0.0,0.0,0.0,0.0,0.0,0.0,0.0,0.0,0.0,0.0,0.0,0.0,0.0,0.0,0.0,0.0,0.0,0.0,0.0,0.0,0.0,0.0,0.0,0.0,0.0,0.0,0.0,0.0,0.0,0.0,0.0,0.0,0.0,0.0,0.0,0.0,0.0,0.0,0.0,0.0,0.0,0.0,0.0,0.0,0.0,0.0,0.0,0.0,0.0,0.0,0.0,0.0,0.0,0.0,0.0,0.0,0.0,0.0,0.0,0.0,0.0,0.0,0.0,0.0,0.0,0.0,0.0,0.0,0.0,0.0,0.0,0.0,0.0,0.0,0.0,0.0,0.0,0.0,0.0,0.0,0.0,0.0,0.0,0.0,0.0,0.0,0.0,0.0,0.0,0.0,0.0,0.0,0.0,0.0,0.0,0.0,0.0,0.0,0.0,0.0,0.0,0.0,0.0,0.0,0.0,0.0,0.0,0.0,0.0,0.0,0.0,0.0,0.0,0.0,0.0,0.0,0.0,0.0,0.0,0.0,0.0,0.0,0.0,0.0,0.0,0.0,0.0,0.0,0.0,0.0,0.0,0.0,0.0,0.0,0.0,0.0,0.0,0.0,0.0,0.0,0.0,0.0,0.0,0.0,0.0,0.0,0.0,0.0,0.0,0.0,0.0,0.0,0.0,0.0,0.0,0.0,0.0,0.0,0.0,0.0,0.0,0.0,0.0,0.0,0.0,0.0,0.0,0.0,0.0,0.0,0.0,0.0,0.0,0.0,0.0,0.0,0.0,0.0,0.0,0.0,0.0,0.0,0.0,0.0,0.0,0.0,0.0,0.0,0.0,0.0,0.0,0.0,0.0,0.0,0.0,0.0,0.0,0.0,0.0,0.0,0.0,0.0,0.0,0.0,0.0,0.0,0.0,0.0,0.0,0.0,0.0,0.0,0.0,0.0,0.0,0.0,0.0,0.0,0.0,0.0,0.0,0.0,0.0,0.0,0.0,0.0,0.0,0.0,0.0,0.0,0.0,0.0,0.0,0.0,0.0,0.0,0.0,0.0,0.0,0.0,0.0,0.0,0.0,0.0,0.0,0.0,0.0,0.0,0.0,0.0,0.0,0.0,0.0,0.0,0.0,0.0,0.0,0.0,0.0,0.0,0.0,0.0,0.0,0.0,0.0,0.0,0.0,0.0,0.0,0.0,0.0,0.0,0.0,0.0,0.0,0.0,0.0,0.0,0.0,0.0,0.0,0.0,0.0,0.0,0.0,0.0,0.0,0.0,0.0,0.0,0.0,0.0,0.0,0.0,0.0,0.0,0.0,0.0,0.0,0.0,0.0,0.0,0.0,0.0,0.0,0.0,0.0,0.0,0.0,0.0,0.0,0.0,0.0,0.0,0.0,0.0,0.0,0.0,0.0,0.0,0.0,0.0,0.0,0.0,0.0,0.0,0.0,0.0,0.0,0.0,0.0,0.0,0.0,0.0,0.0,0.0,0.0,0.0,0.0,0.0,0.0,0.0,0.0,0.0,0.0,0.0,0.0,0.0,0.0,0.0,0.0,0.0,0.0,0.0,0.0,0.0,0.0,0.0,0.0,0.0,0.0,0.0,0.0,0.0,0.0,0.0,0.0,0.0,0.0,0.0,0.0,0.0,0.0,0.0,0.0,0.0,0.0,0.0,0.0,0.0,0.0,0.0,0.0,0.0,0.0,0.0,0.0,0.0,0.0,0.0,0.0,0.0,0.0,0.0,0.0,0.0,0.0,0.0,0.0,0.0,0.0,0.0,0.0,0.0,0.0,0.0,0.0,0.0,0.0,0.0,0.0,0.0,0.0,0.0,0.0,0.0,0.0,0.0,0.0,0.0,0.0,0.0,0.0,0.0,0.0,0.0,0.0,0.0,0.0,0.0,0.0,0.0,0.0,0.0,0.0,0.0,0.0,0.0,0.0,0.0,0.0,0.0,0.0,0.0,0.0,0.0,0.0,0.0,0.0,0.0,0.0,0.0,0.0,0.0,0.0,0.0,0.0,0.0,0.0,0.0,0.0,0.0,0.0,0.0,0.0,0.0,0.0,0.0,0.0,0.0,0.0,0.0,0.0,0.0,0.0,0.0,0.0,0.0,0.0,0.0,0.0,0.0,0.0,0.0,0.0,0.0,0.0,0.0,0.0,0.0,0.0,0.0,0.0,0.0,0.0,0.0,0.0,0.0,0.0,0.0,0.0,0.0,0.0,0.0,0.0,0.0,0.0,0.0,0.0,0.0,0.0,0.0,0.0,0.0,0.0,0.0,0.0,0.0,0.0,0.0,0.0,0.0,0.0,0.0,0.0,0.0,0.0,0.0,0.0,0.0,0.0,0.0,0.0,0.0,0.0,0.0,0.0,0.0,0.0,0.0,0.0,0.0,0.0,0.0,0.0,0.0,0.0,0.0,0.0,0.0,0.0,0.0,0.0,0.0,0.0,0.0,0.0,0.0,0.0,0.0,0.0,0.0,0.0,0.0,0.0,0.0,0.0,0.0,0.0,0.0,0.0,0.0,0.0,0.0,0.0,0.0,0.0,0.0,0.0,0.0,0.0,0.0,0.0,0.0,0.0,0.0,0.0,0.0,0.0,0.0,0.0,-0.657,0.0,0.0,0.0,0.0,0.0,0.0,0.0,0.0,0.0,0.0,0.0,0.0,0.0,0.0,0.0,0.0,0.0,0.0,0.0,0.0,0.0,0.0,0.0,0.0,0.0,0.0,0.0,0.0,0.0,0.0,0.0,0.0,0.0,0.0,0.0,0.0,0.0,0.0,0.0,0.0,0.0,0.0,0.0,0.0,0.0,0.0,0.0,0.0,0.0,0.0,0.0,0.0,0.0,0.0,0.0,0.0,0.0,0.0,0.0,0.0,0.0,0.0,0.0,0.0,0.0,0.0,0.0,0.0,0.0,0.0,0.0,0.0,0.0,0.0,0.0,0.0,0.0,0.0,0.0,0.0,0.0,0.0,0.0,0.0,0.0,0.0,0.0,0.0,0.0,0.0,0.0,0.0,0.0,0.0,0.0,0.0,0.0,0.0,0.0,0.0,0.0,0.0,0.0,0.0,0.0,0.0,0.0,0.0,0.0,0.0,-0.5502,-0.5581,-0.6323,-0.6603,-0.6274,0.0,0.0,0.0,0.0,0.0,0.0,0.0,0.0,0.0,0.0,0.0,0.0,0.0,0.0,0.0,0.0,0.0,0.0,0.0,0.0,0.0,0.0,0.0,0.0,0.0,0.0,0.0,0.0,0.0,0.0,0.0,0.0,0.0,0.0,0.0,0.0,0.0,0.0,0.0,0.0,0.0,0.0,0.0,0.0,0.0,0.0,0.0,0.0,0.0,0.0,0.0,0.0,0.0,0.0,0.0,0.0,0.0,0.0,0.0,0.0,0.0,0.0,0.0,0.0,0.0,0.0,0.0,0.0,0.0,0.0,0.0,0.0,0.0,0.0,0.0,0.0,0.0,0.0,0.0,0.0,0.0,0.0,0.0,0.0,0.0,0.0,0.0,0.0,0.0,0.0,0.0,0.0,0.0,0.0,0.0,0.0,0.0,0.0,0.0,0.0,0.0,0.0,0.0,0.0,0.0,0.0,0.0,0.0,0.0,0.0,0.0,0.0,-0.6105,-0.6446,-0.6337,0.0,0.0,0.0,0.0,0.0,0.0,0.0,0.0,0.0,0.0,0.0,0.0,0.0,0.0,0.0,0.0,0.0,0.0,0.0,0.0,0.0,0.0,0.0,0.0,0.0,0.0,0.0,0.0,0.0,0.0,0.0,0.0,0.0,0.0,0.0,0.0,0.0,0.0,0.0,0.0,0.0,0.0,0.0,0.0,0.0,0.0,0.0,0.0,0.0,0.0,0.0,0.0,0.0,0.0,0.0,0.0,0.0,0.0,0.0,0.0,0.0,0.0,0.0,0.0,0.0,0.0,0.0,0.0,0.0,0.0,0.0,0.0,0.0,0.0,0.0,0.0,0.0,0.0,0.0,0.0,0.0,0.0,0.0,0.0,0.0,0.0,0.0,0.0,0.0,0.0,0.0,0.0,0.0,0.0,0.0,0.0,0.0,0.0,0.0,0.0,0.0,0.0,0.0,0.0,0.0,0.0,0.0,0.0,0.0,0.0,-0.5246,-0.5654,-0.6034,0.0,-0.6675,0.0,0.0,0.0,0.0,0.0,0.0,0.0,0.0,0.0,0.0,0.0,0.0,0.0,0.0,0.0,0.0,0.0,0.0,0.0,0.0,0.0,0.0,0.0,0.0,0.0,0.0,0.0,0.0,0.0,0.0,0.0,0.0,0.0,0.0,0.0,0.0,0.0,0.0,0.0,0.0,0.0,0.0,0.0,0.0,0.0,0.0,0.0,0.0,0.0,0.0,0.0,0.0,0.0,0.0,0.0,0.0,0.0,0.0,0.0,0.0,0.0,0.0,0.0,0.0,0.0,0.0,0.0,0.0,0.0,0.0,0.0,0.0,0.0,0.0,0.0,0.0,0.0,0.0,0.0,0.0,0.0,0.0,0.0,0.0,0.0,0.0,0.0,0.0,0.0,0.0,0.0,0.0,0.0,0.0,0.0,0.0,0.0,0.0,0.0,0.0,0.0,0.0,0.0,0.0,0.0,0.0,0.0,0.0,0.0,0.0,-0.5279,-0.5529,-0.5664,-0.5876,0.0,0.0,0.0,0.0,0.0,0.0,0.0,0.0,0.0,0.0,0.0,0.0,0.0,0.0,0.0,0.0,0.0,0.0,0.0,0.0,0.0,0.0,0.0,0.0,0.0,0.0,0.0,0.0,0.0,0.0,0.0,0.0,0.0,0.0,0.0,0.0,0.0,0.0,0.0,0.0,0.0,0.0,0.0,0.0,0.0,0.0,0.0,0.0,0.0,0.0,0.0,0.0,0.0,0.0,0.0,0.0,0.0,0.0,0.0,0.0,0.0,0.0,0.0,0.0,0.0,0.0,0.0,0.0,0.0,0.0,0.0,0.0,0.0,0.0,0.0,0.0,0.0,0.0,0.0,0.0,0.0,0.0,0.0,0.0,0.0,0.0,0.0,0.0,0.0,0.0,0.0,0.0,0.0,0.0,0.0,0.0,0.0,0.0,0.0,0.0,0.0,0.0,0.0,0.0,0.0,0.0,0.0,0.0,0.0,0.0,-0.5229,-0.5247,-0.5494,-0.5422,-0.541,-0.5571,0.0,0.0,0.0,0.0,0.0,0.0,0.0,0.0,0.0,0.0,0.0,0.0,0.0,0.0,0.0,0.0,0.0,0.0,0.0,0.0,0.0,0.0,0.0,0.0,0.0,0.0,0.0,0.0,0.0,0.0,0.0,0.0,0.0,0.0,0.0,0.0,0.0,0.0,0.0,0.0,0.0,0.0,0.0,0.0,0.0,0.0,0.0,0.0,0.0,0.0,0.0,0.0,0.0,0.0,0.0,0.0,0.0,0.0,0.0,0.0,0.0,0.0,0.0,0.0,0.0,0.0,0.0,0.0,0.0,0.0,0.0,0.0,0.0,0.0,0.0,0.0,0.0,0.0,0.0,0.0,0.0,0.0,0.0,0.0,0.0,0.0,0.0,0.0,0.0,0.0,0.0,0.0,0.0,0.0,0.0,0.0,0.0,0.0,0.0,0.0,0.0,0.0,0.0,0.0,0.0,0.0,0.0,0.0,-0.6138,-0.5399,-0.5255,-0.5644,-0.5231,-0.5192,0.0,0.0,0.0,0.0,0.0,0.0,0.0,0.0,0.0,0.0,0.0,0.0,0.0,0.0,0.0,0.0,0.0,0.0,0.0,0.0,0.0,0.0,0.0,0.0,0.0,0.0,0.0,0.0,0.0,0.0,0.0,0.0,0.0,0.0,0.0,0.0,0.0,0.0,0.0,0.0,0.0,0.0,0.0,0.0,0.0,0.0,0.0,0.0,0.0,0.0,0.0,0.0,0.0,0.0,0.0,0.0,0.0,0.0,0.0,0.0,0.0,0.0,0.0,0.0,0.0,0.0,0.0,0.0,0.0,0.0,0.0,0.0,0.0,0.0,0.0,0.0,0.0,0.0,0.0,0.0,0.0,0.0,0.0,0.0,0.0,0.0,0.0,0.0,0.0,0.0,0.0,0.0,0.0,0.0,0.0,0.0,0.0,0.0,0.0,0.0,0.0,0.0,0.0,0.0,0.0,0.0,0.0,0.0,0.0,-0.5458,-0.5652,-0.5791,-0.586,-0.5752,-0.5621,0.0,0.0,0.0,0.0,0.0,0.0,0.0,0.0,0.0,0.0,0.0,0.0,0.0,0.0,0.0,0.0,0.0,0.0,0.0,0.0,0.0,0.0,0.0,0.0,0.0,0.0,0.0,0.0,0.0,0.0,0.0,0.0,0.0,0.0,0.0,0.0,0.0,0.0,0.0,0.0,0.0,0.0,0.0,0.0,0.0,0.0,0.0,0.0,0.0,0.0,0.0,0.0,0.0,0.0,0.0,0.0,0.0,0.0,0.0,0.0,0.0,0.0,0.0,0.0,0.0,0.0,0.0,0.0,0.0,0.0,0.0,0.0,0.0,0.0,0.0,0.0,0.0,0.0,0.0,0.0,0.0,0.0,0.0,0.0,0.0,0.0,0.0,0.0,0.0,0.0,0.0,0.0,0.0,0.0,0.0,0.0,0.0,0.0,0.0,0.0,0.0,0.0,0.0,0.0,0.0,0.0,0.0,0.0,0.0,-0.5199,0.0,-0.6181,-0.6029,-0.5947,-0.5668,0.0,0.0,0.0,0.0,0.0,0.0,0.0,0.0,0.0,0.0,0.0,0.0,0.0,0.0,0.0,0.0,0.0,0.0,0.0,0.0,0.0,0.0,0.0,0.0,0.0,0.0,0.0,0.0,0.0,0.0,0.0,0.0,0.0,0.0,0.0,0.0,0.0,0.0,0.0,0.0,0.0,0.0,0.0,0.0,0.0,0.0,0.0,0.0,0.0,0.0,0.0,0.0,0.0,0.0,0.0,0.0,0.0,0.0,0.0,0.0,0.0,0.0,0.0,0.0,0.0,0.0,0.0,0.0,0.0,0.0,0.0,0.0,0.0,0.0,0.0,0.0,0.0,0.0,0.0,0.0,0.0,0.0,0.0,0.0,0.0,0.0,0.0,0.0,0.0,0.0,0.0,0.0,0.0,0.0,0.0,0.0,0.0,0.0,0.0,0.0,0.0,0.0,0.0,0.0,0.0,0.0,0.0,0.0,-0.5288,-0.566,-0.6315,-0.6497,-0.6077,-0.5757,-0.5394,0.0,0.0,0.0,0.0,0.0,0.0,0.0,0.0,0.0,0.0,0.0,0.0,0.0,0.0,0.0,0.0,0.0,0.0,0.0,0.0,0.0,0.0,0.0,0.0,0.0,0.0,0.0,0.0,0.0,0.0,0.0,0.0,0.0,0.0,0.0,0.0,0.0,0.0,0.0,0.0,0.0,0.0,0.0,0.0,0.0,0.0,0.0,0.0,0.0,0.0,0.0,0.0,0.0,0.0,0.0,0.0,0.0,0.0,0.0,0.0,0.0,0.0,0.0,0.0,0.0,0.0,0.0,0.0,0.0,0.0,0.0,0.0,0.0,0.0,0.0,0.0,0.0,0.0,0.0,0.0,0.0,0.0,0.0,0.0,0.0,0.0,0.0,0.0,0.0,0.0,0.0,0.0,0.0,0.0,0.0,0.0,0.0,0.0,0.0,0.0,0.0,0.0,0.0,0.0,0.0,0.0,0.0,0.0,0.0,-0.6186,-0.6592,-0.6747,-0.6835,-0.6208,-0.5823,0.0,0.0,0.0,0.0,0.0,0.0,0.0,0.0,0.0,0.0,0.0,0.0,0.0,0.0,0.0,0.0,0.0,0.0,0.0,0.0,0.0,0.0,0.0,0.0,0.0,0.0,0.0,0.0,0.0,0.0,0.0,0.0,0.0,0.0,0.0,0.0,0.0,0.0,0.0,0.0,0.0,0.0,0.0,0.0,0.0,0.0,0.0,0.0,0.0,0.0,0.0,0.0,0.0,0.0,0.0,0.0,0.0,0.0,0.0,0.0,0.0,0.0,0.0,0.0,0.0,0.0,0.0,0.0,0.0,0.0,0.0,0.0,0.0,0.0,0.0,0.0,0.0,0.0,0.0,0.0,0.0,0.0,0.0,0.0,0.0,0.0,0.0,0.0,0.0,0.0,0.0,0.0,0.0,0.0,0.0,0.0,0.0,0.0,0.0,0.0,0.0,0.0,0.0,0.0,0.0,0.0,0.0,0.0,0.0,-0.6608,-0.699,-0.7205,-0.7225,-0.6592,-0.5958,-0.5437,0.0,0.0,0.0,0.0,0.0,0.0,0.0,0.0,0.0,0.0,0.0,0.0,0.0,0.0,0.0,0.0,0.0,0.0,0.0,0.0,0.0,0.0,0.0,0.0,0.0,0.0,0.0,0.0,0.0,0.0,0.0,0.0,0.0,0.0,0.0,0.0,0.0,0.0,0.0,0.0,0.0,0.0,0.0,0.0,0.0,0.0,0.0,0.0,0.0,0.0,0.0,0.0,0.0,0.0,0.0,0.0,0.0,0.0,0.0,0.0,0.0,0.0,0.0,0.0,0.0,0.0,0.0,0.0,0.0,0.0,0.0,0.0,0.0,0.0,0.0,0.0,0.0,0.0,0.0,0.0,0.0,0.0,0.0,0.0,0.0,0.0,0.0,0.0,0.0,0.0,0.0,0.0,0.0,0.0,0.0,0.0,0.0,0.0,0.0,0.0,0.0,0.0,0.0,0.0,0.0,0.0,0.0,0.0,-0.7013,-0.7497,-0.7622,-0.7236,-0.6647,-0.5976,0.0,0.0,0.0,0.0,0.0,0.0,0.0,0.0,0.0,0.0,0.0,0.0,0.0,0.0,0.0,0.0,0.0,0.0,0.0,0.0,0.0,0.0,0.0,0.0,0.0,0.0,0.0,0.0,0.0,0.0,0.0,0.0,0.0,0.0,0.0,0.0,0.0,0.0,0.0,0.0,0.0,0.0,0.0,0.0,0.0,0.0,0.0,0.0,0.0,0.0,0.0,0.0,0.0,0.0,0.0,0.0,0.0,0.0,0.0,0.0,0.0,0.0,0.0,0.0,0.0,0.0,0.0,0.0,0.0,0.0,0.0,0.0,0.0,0.0,0.0,0.0,0.0,0.0,0.0,0.0,0.0,0.0,0.0,0.0,0.0,0.0,0.0,0.0,0.0,0.0,0.0,0.0,0.0,0.0,0.0,0.0,0.0,0.0,0.0,0.0,0.0,0.0,0.0,0.0,0.0,0.0,0.0,0.0,0.0,-0.7377,-0.8019,-0.8117,-0.7493,-0.6738,-0.6153,0.0,0.0,0.0,0.0,0.0,0.0,0.0,0.0,0.0,0.0,0.0,0.0,0.0,0.0,0.0,0.0,0.0,0.0,0.0,0.0,0.0,0.0,0.0,0.0,0.0,0.0,0.0,0.0,0.0,0.0,0.0,0.0,0.0,0.0,0.0,0.0,0.0,0.0,0.0,0.0,0.0,0.0,0.0,0.0,0.0,0.0,0.0,0.0,0.0,0.0,0.0,0.0,0.0,0.0,0.0,0.0,0.0,0.0,0.0,0.0,0.0,0.0,0.0,0.0,0.0,0.0,0.0,0.0,0.0,0.0,0.0,0.0,0.0,0.0,0.0,0.0,0.0,0.0,0.0,0.0,0.0,0.0,0.0,0.0,0.0,0.0,0.0,0.0,0.0,0.0,0.0,0.0,0.0,0.0,0.0,0.0,0.0,0.0,0.0,0.0,0.0,0.0,0.0,0.0,0.0,0.0,0.0,0.0,-0.7111,-0.7807,-0.8323,-0.8399,-0.8008,-0.7377,-0.6474,0.0,0.0,0.0,0.0,0.0,0.0,0.0,0.0,0.0,0.0,0.0,0.0,0.0,0.0,0.0,0.0,0.0,0.0,0.0,0.0,0.0,0.0,0.0,0.0,0.0,0.0,0.0,0.0,0.0,0.0,0.0,0.0,0.0,0.0,0.0,0.0,0.0,0.0,0.0,0.0,0.0,0.0,0.0,0.0,0.0,0.0,0.0,0.0,0.0,0.0,0.0,0.0,0.0,0.0,0.0,0.0,0.0,0.0,0.0,0.0,0.0,0.0,0.0,0.0,0.0,0.0,0.0,0.0,0.0,0.0,0.0,0.0,0.0,0.0,0.0,0.0,0.0,0.0,0.0,0.0,0.0,0.0,0.0,0.0,0.0,0.0,0.0,0.0,0.0,0.0,0.0,0.0,0.0,0.0,0.0,0.0,0.0,0.0,0.0,0.0,0.0,0.0,0.0,0.0,0.0,0.0,0.0,0.0,-0.7383,-0.8231,-0.8486,-0.8557,-0.8448,-0.8051,-0.6997,0.0,0.0,0.0,0.0,0.0,0.0,0.0,0.0,0.0,0.0,0.0,0.0,0.0,0.0,0.0,0.0,0.0,0.0,0.0,0.0,0.0,0.0,0.0,0.0,0.0,0.0,0.0,0.0,0.0,0.0,0.0,0.0,0.0,0.0,0.0,0.0,0.0,0.0,0.0,0.0,0.0,0.0,0.0,0.0,0.0,0.0,0.0,0.0,0.0,0.0,0.0,0.0,0.0,0.0,0.0,0.0,0.0,0.0,0.0,0.0,0.0,0.0,0.0,0.0,0.0,0.0,0.0,0.0,0.0,0.0,0.0,0.0,0.0,0.0,0.0,0.0,0.0,0.0,0.0,0.0,0.0,0.0,0.0,0.0,0.0,0.0,0.0,0.0,0.0,0.0,0.0,0.0,0.0,0.0,0.0,0.0,0.0,0.0,0.0,0.0,0.0,0.0,0.0,0.0,0.0,0.0,0.0,0.0,-0.7345,-0.835,-0.8611,-0.872,-0.8693,-0.7981,-0.722,0.0,0.0,0.0,0.0,0.0,0.0,0.0,0.0,0.0,0.0,0.0,0.0,0.0,0.0,0.0,0.0,0.0,0.0,0.0,0.0,0.0,0.0,0.0,0.0,0.0,0.0,0.0,0.0,0.0,0.0,0.0,0.0,0.0,0.0,0.0,0.0,0.0,0.0,0.0,0.0,0.0,0.0,0.0,0.0,0.0,0.0,0.0,0.0,-1.1433,0.0,0.0,0.0,0.0,0.0,0.0,0.0,0.0,0.0,0.0,0.0,0.0,0.0,0.0,0.0,0.0,0.0,0.0,0.0,0.0,0.0,0.0,0.0,0.0,0.0,0.0,0.0,0.0,0.0,0.0,0.0,0.0,0.0,0.0,0.0,0.0,0.0,0.0,0.0,0.0,0.0,0.0,0.0,0.0,0.0,0.0,0.0,0.0,0.0,0.0,0.0,0.0,0.0,0.0,0.0,0.0,0.0,0.0,0.0,-0.7578,-0.8465,-0.8622,-0.8709,-0.8883,-0.8231,-0.7519,0.0,0.0,0.0,0.0,0.0,0.0,0.0,0.0,0.0,0.0,0.0,0.0,0.0,0.0,0.0,0.0,0.0,0.0,0.0,0.0,0.0,0.0,0.0,0.0,0.0,0.0,0.0,0.0,0.0,0.0,0.0,0.0,0.0,0.0,0.0,0.0,0.0,0.0,0.0,0.0,0.0,0.0,0.0,0.0,0.0,0.0,0.0,0.0,0.0,0.0,0.0,0.0,0.0,0.0,0.0,0.0,0.0,0.0,0.0,0.0,0.0,0.0,0.0,0.0,0.0,0.0,0.0,0.0,0.0,0.0,0.0,0.0,0.0,0.0,0.0,0.0,0.0,0.0,0.0,0.0,0.0,0.0,0.0,0.0,0.0,0.0,0.0,0.0,0.0,0.0,0.0,0.0,0.0,0.0,0.0,0.0,0.0,0.0,0.0,0.0,0.0,0.0,0.0,0.0,0.0,0.0,0.0,-0.716,-0.7796,-0.8546,-0.859,-0.8638,-0.8872,-0.8535,-0.7787,-0.6414,0.0,0.0,0.0,0.0,0.0,0.0,0.0,0.0,0.0,0.0,0.0,0.0,0.0,0.0,0.0,0.0,0.0,0.0,0.0,0.0,0.0,0.0,0.0,0.0,0.0,0.0,0.0,0.0,0.0,0.0,0.0,0.0,0.0,0.0,0.0,0.0,0.0,0.0,-1.0697,-1.1187,0.0,0.0,0.0,0.0,0.0,0.0,0.0,0.0,-1.1609,0.0,0.0,0.0,0.0,0.0,0.0,0.0,0.0,0.0,0.0,0.0,0.0,0.0,0.0,0.0,0.0,0.0,0.0,0.0,0.0,0.0,0.0,0.0,0.0,0.0,0.0,0.0,0.0,0.0,0.0,0.0,0.0,0.0,0.0,0.0,0.0,0.0,0.0,0.0,0.0,0.0,0.0,0.0,0.0,0.0,0.0,0.0,0.0,0.0,0.0,0.0,0.0,0.0,0.0,0.0,0.0,-0.6904,-0.6921,-0.7459,-0.8552,-0.859,-0.8595,-0.8611,-0.8486,-0.791,-0.6765,0.0,0.0,0.0,0.0,0.0,0.0,0.0,0.0,0.0,0.0,0.0,0.0,0.0,0.0,0.0,0.0,0.0,0.0,0.0,0.0,0.0,0.0,0.0,0.0,0.0,0.0,0.0,0.0,0.0,0.0,0.0,0.0,0.0,0.0,0.0,0.0,0.0,0.0,0.0,-1.148,-1.1883,0.0,0.0,0.0,0.0,0.0,0.0,0.0,0.0,-1.1882,0.0,0.0,0.0,0.0,0.0,0.0,0.0,0.0,0.0,0.0,0.0,0.0,0.0,0.0,0.0,0.0,0.0,0.0,0.0,0.0,0.0,0.0,0.0,0.0,0.0,0.0,0.0,0.0,0.0,0.0,0.0,0.0,0.0,0.0,0.0,0.0,0.0,0.0,0.0,0.0,0.0,0.0,0.0,0.0,0.0,0.0,0.0,0.0,0.0,0.0,0.0,0.0,0.0,0.0,0.0,-0.6942,-0.7355,-0.7915,-0.8649,-0.8617,-0.859,-0.8584,-0.8475,-0.7787,0.0,0.0,0.0,0.0,0.0,0.0,0.0,0.0,0.0,0.0,0.0,0.0,0.0,0.0,0.0,0.0,0.0,0.0,0.0,0.0,0.0,0.0,0.0,0.0,0.0,0.0,0.0,0.0,0.0,0.0,0.0,0.0,0.0,0.0,0.0,0.0,0.0,0.0,0.0,0.0,-1.0762,-1.1337,-1.176,0.0,0.0,0.0,0.0,0.0,0.0,-1.1999,-1.2002,0.0,0.0,0.0,0.0,0.0,0.0,0.0,0.0,0.0,0.0,0.0,0.0,0.0,0.0,0.0,0.0,0.0,0.0,0.0,0.0,0.0,0.0,0.0,0.0,0.0,0.0,0.0,0.0,0.0,0.0,0.0,0.0,0.0,0.0,0.0,0.0,0.0,0.0,0.0,0.0,0.0,0.0,0.0,0.0,0.0,0.0,0.0,0.0,0.0,0.0,0.0,0.0,0.0,0.0,0.0,-0.6986,-0.7763,-0.8361,-0.8747,-0.8677,-0.8611,-0.8584,-0.8497,-0.7809,0.0,0.0,0.0,0.0,0.0,0.0,0.0,0.0,0.0,0.0,0.0,0.0,0.0,0.0,0.0,0.0,0.0,0.0,0.0,0.0,0.0,0.0,0.0,0.0,0.0,0.0,0.0,0.0,0.0,0.0,0.0,0.0,0.0,0.0,0.0,0.0,0.0,0.0,0.0,0.0,0.0,-1.0632,-1.0982,-1.0249,0.0,0.0,0.0,0.0,-1.2278,-1.2247,0.0,0.0,0.0,0.0,0.0,0.0,0.0,0.0,0.0,0.0,0.0,0.0,0.0,0.0,0.0,0.0,0.0,0.0,0.0,0.0,0.0,0.0,0.0,0.0,0.0,0.0,0.0,0.0,0.0,0.0,0.0,0.0,0.0,0.0,0.0,0.0,0.0,0.0,0.0,0.0,0.0,0.0,0.0,0.0,0.0,0.0,0.0,0.0,0.0,0.0,0.0,0.0,0.0,0.0,0.0,0.0,-0.697,-0.76,-0.8193,-0.8736,-0.8758,-0.8698,-0.859,-0.8573,-0.8013,0.0,0.0,0.0,0.0,0.0,0.0,0.0,0.0,0.0,0.0,0.0,0.0,0.0,0.0,0.0,0.0,0.0,0.0,0.0,0.0,0.0,0.0,0.0,0.0,0.0,0.0,0.0,0.0,0.0,0.0,0.0,0.0,0.0,0.0,0.0,0.0,0.0,0.0,0.0,0.0,0.0,-1.013,-0.9985,-0.9341,-0.9382,0.0,0.0,-1.1385,-1.2078,-1.2868,0.0,0.0,0.0,0.0,0.0,0.0,0.0,0.0,0.0,0.0,0.0,0.0,0.0,0.0,0.0,0.0,0.0,0.0,0.0,0.0,0.0,0.0,0.0,0.0,0.0,0.0,0.0,0.0,0.0,0.0,0.0,0.0,0.0,0.0,0.0,0.0,0.0,0.0,0.0,0.0,0.0,0.0,0.0,0.0,0.0,0.0,0.0,0.0,0.0,0.0,0.0,0.0,0.0,0.0,0.0,-0.6393,-0.7078,-0.7867,-0.847,-0.8856,-0.8807,-0.8709,-0.859,-0.8657,-0.8082,0.0,0.0,0.0,0.0,0.0,0.0,0.0,0.0,0.0,0.0,0.0,0.0,0.0,0.0,0.0,0.0,0.0,0.0,0.0,0.0,0.0,0.0,0.0,0.0,0.0,0.0,0.0,0.0,0.0,0.0,0.0,0.0,0.0,0.0,0.0,0.0,0.0,0.0,0.0,0.0,0.0,0.0,-0.9479,-0.9163,0.0,0.0,0.0,-1.1149,-1.2364,0.0,0.0,0.0,0.0,0.0,0.0,0.0,0.0,0.0,0.0,0.0,0.0,0.0,0.0,0.0,0.0,0.0,0.0,0.0,0.0,0.0,0.0,0.0,0.0,0.0,0.0,0.0,0.0,0.0,0.0,0.0,0.0,0.0,0.0,0.0,0.0,0.0,0.0,0.0,0.0,0.0,0.0,0.0,0.0,0.0,0.0,0.0,0.0,0.0,0.0,0.0,0.0,0.0,0.0,0.0,0.0,0.0,-0.716,-0.816,-0.8769,-0.8943,-0.8861,-0.8742,-0.8595,-0.8612,0.0,0.0,0.0,0.0,0.0,0.0,0.0,0.0,0.0,0.0,0.0,0.0,0.0,0.0,0.0,0.0,0.0,0.0,0.0,0.0,0.0,0.0,0.0,0.0,0.0,0.0,0.0,0.0,0.0,0.0,0.0,0.0,0.0,0.0,0.0,0.0,0.0,0.0,0.0,0.0,0.0,0.0,-0.8919,-0.9058,-0.9016,-0.9299,0.0,0.0,-1.0822,-1.2285,-1.2491,-1.2856,0.0,0.0,0.0,0.0,0.0,0.0,0.0,0.0,0.0,0.0,0.0,0.0,0.0,0.0,0.0,0.0,0.0,0.0,0.0,0.0,0.0,0.0,0.0,0.0,0.0,0.0,0.0,0.0,0.0,0.0,0.0,0.0,0.0,0.0,0.0,0.0,0.0,0.0,0.0,0.0,0.0,0.0,0.0,0.0,0.0,0.0,0.0,0.0,0.0,0.0,0.0,0.0,0.0,0.0,0.0,-0.7182,-0.8323,-0.8932,-0.8948,-0.8943,-0.8829,-0.8595,-0.8481,-0.7915,0.0,0.0,0.0,0.0,0.0,0.0,0.0,0.0,0.0,0.0,0.0,0.0,0.0,0.0,0.0,0.0,0.0,0.0,0.0,0.0,0.0,0.0,0.0,0.0,0.0,0.0,0.0,0.0,0.0,0.0,0.0,0.0,0.0,0.0,0.0,0.0,0.0,0.0,0.0,0.0,0.0,-0.8541,-0.8176,-0.8408,-0.8934,0.0,0.0,-1.0276,-1.1419,-1.25,-1.3713,-1.496,0.0,0.0,0.0,0.0,0.0,0.0,0.0,0.0,0.0,0.0,0.0,0.0,0.0,0.0,0.0,0.0,0.0,0.0,0.0,0.0,0.0,0.0,0.0,0.0,0.0,0.0,0.0,0.0,0.0,0.0,0.0,0.0,0.0,0.0,0.0,0.0,0.0,0.0,0.0,0.0,0.0,0.0,0.0,0.0,0.0,0.0,0.0,0.0,0.0,0.0,0.0,0.0,0.0,-0.6834,-0.7062,-0.8307,-0.8916,-0.8845,-0.8986,-0.8948,-0.8704,-0.8117,-0.7459,0.0,0.0,0.0,0.0,0.0,0.0,0.0,0.0,0.0,0.0,0.0,0.0,0.0,0.0,0.0,0.0,0.0,0.0,0.0,0.0,0.0,0.0,0.0,0.0,0.0,0.0,0.0,0.0,-0.5436,-0.5469,-0.5415,0.0,0.0,0.0,0.0,0.0,0.0,0.0,0.0,0.0,0.0,-0.8649,-0.8296,-0.8635,0.0,0.0,-0.9059,-0.9637,-1.0758,-1.1581,-1.2655,-1.4196,-1.4925,0.0,0.0,0.0,0.0,0.0,0.0,0.0,0.0,0.0,0.0,0.0,0.0,0.0,0.0,0.0,0.0,0.0,0.0,0.0,0.0,0.0,0.0,0.0,0.0,0.0,0.0,0.0,0.0,0.0,0.0,0.0,0.0,0.0,0.0,0.0,0.0,0.0,0.0,0.0,0.0,0.0,0.0,0.0,0.0,0.0,0.0,0.0,0.0,0.0,0.0,0.0,0.0,-0.6883,-0.704,-0.8301,-0.8772,-0.8549,-0.8744,-0.8609,-0.8143,-0.7387,-0.6836,0.0,0.0,0.0,0.0,0.0,0.0,0.0,0.0,0.0,0.0,0.0,0.0,0.0,0.0,0.0,0.0,0.0,0.0,0.0,0.0,0.0,0.0,0.0,0.0,0.0,0.0,0.0,0.0,-0.5773,-0.579,-0.5768,0.0,0.0,0.0,0.0,0.0,0.0,0.0,0.0,0.0,0.0,-0.8666,-0.8546,-0.8769,-0.8861,-0.8611,-0.8715,-0.9234,-1.0185,-1.0826,-1.1661,-1.3054,0.0,0.0,0.0,0.0,0.0,0.0,0.0,0.0,0.0,0.0,0.0,0.0,0.0,0.0,0.0,0.0,0.0,0.0,0.0,0.0,0.0,0.0,0.0,0.0,0.0,0.0,0.0,0.0,0.0,0.0,-0.43,0.0,0.0,0.0,0.0,0.0,0.0,0.0,0.0,0.0,0.0,0.0,0.0,0.0,0.0,0.0,0.0,0.0,0.0,0.0,0.0,0.0,0.0,0.0,-0.716,-0.8339,-0.8531,-0.7831,-0.7936,-0.7658,-0.6713,-0.6549,-0.6153,-0.5671,0.0,0.0,0.0,0.0,0.0,0.0,0.0,0.0,0.0,0.0,0.0,0.0,0.0,0.0,0.0,0.0,0.0,0.0,0.0,0.0,0.0,0.0,0.0,0.0,0.0,0.0,-0.5398,-0.5502,-0.5763,0.0,0.0,0.0,0.0,0.0,0.0,0.0,0.0,0.0,0.0,-0.8432,-0.8633,-0.8742,-0.8867,-0.8938,-0.8921,-0.8932,-0.9082,-0.9902,-1.021,-1.071,0.0,0.0,0.0,0.0,0.0,0.0,0.0,0.0,0.0,0.0,0.0,0.0,0.0,0.0,0.0,0.0,0.0,0.0,0.0,0.0,0.0,0.0,0.0,0.0,0.0,0.0,0.0,-0.449,-0.4414,0.0,0.0,0.0,0.0,0.0,0.0,0.0,0.0,0.0,0.0,0.0,-0.7105,-0.735,0.0,0.0,0.0,0.0,0.0,0.0,0.0,0.0,0.0,0.0,0.0,0.0,-0.6921,-0.7198,-0.7821,-0.7975,-0.7836,-0.7438,-0.7187,-0.6665,-0.6189,-0.5658,-0.4943,0.0,0.0,0.0,0.0,0.0,0.0,0.0,0.0,0.0,0.0,0.0,0.0,0.0,0.0,0.0,0.0,0.0,0.0,0.0,0.0,0.0,0.0,0.0,0.0,0.0,-0.5969,0.0,0.0,0.0,0.0,0.0,0.0,0.0,0.0,0.0,0.0,0.0,-0.7823,-0.8187,-0.8372,-0.8519,-0.8633,-0.8753,-0.8802,0.0,0.0,0.0,0.0,0.0,0.0,0.0,0.0,0.0,0.0,0.0,0.0,0.0,0.0,-1.2465,-1.3812,-1.4147,-1.4202,-1.4125,0.0,0.0,0.0,0.0,0.0,0.0,0.0,0.0,0.0,0.0,0.0,0.0,0.0,0.0,0.0,0.0,-0.492,0.0,0.0,0.0,0.0,0.0,0.0,0.0,0.0,-0.7339,-0.7651,-0.7529,-0.7769,-0.7845,0.0,-0.7769,-0.7386,0.0,0.0,0.0,0.0,0.0,0.0,0.0,0.0,-0.7075,-0.7142,-0.752,-0.7571,-0.7047,-0.6769,-0.638,-0.6041,-0.5557,-0.5077,-0.4464,-0.4202,-0.4224,0.0,0.0,0.0,0.0,0.0,0.0,0.0,0.0,0.0,0.0,0.0,0.0,0.0,0.0,0.0,0.0,0.0,0.0,0.0,0.0,0.0,0.0,0.0,-0.6567,0.0,0.0,0.0,0.0,0.0,0.0,0.0,0.0,0.0,-0.747,-0.7812,-0.8122,-0.828,-0.8399,-0.8519,-0.8633,0.0,0.0,0.0,0.0,0.0,0.0,0.0,-0.9846,-1.0119,-1.0569,-1.1034,-1.179,-1.1557,-1.1328,-1.1796,0.0,0.0,-1.33,-1.3754,-1.3871,-1.3811,-1.3294,-1.2848,-1.2954,-1.2274,-1.1512,0.0,0.0,0.0,0.0,0.0,0.0,0.0,0.0,-0.6083,-0.6132,0.0,-0.5757,0.0,0.0,0.0,0.0,0.0,-0.4962,0.0,0.0,-0.7757,-0.8105,-0.7899,-0.8117,-0.8231,-0.8236,-0.8225,-0.8028,-0.7884,-0.7247,0.0,0.0,0.0,0.0,0.0,0.0,-0.7225,-0.692,-0.7435,-0.7047,-0.5716,-0.5788,-0.5389,-0.4805,-0.4548,-0.4433,-0.4311,-0.4464,-0.4632,-0.4477,-0.4775,0.0,0.0,0.0,0.0,0.0,0.0,0.0,0.0,0.0,0.0,0.0,0.0,0.0,0.0,0.0,0.0,0.0,0.0,0.0,0.0,-0.6866,0.0,0.0,0.0,0.0,0.0,0.0,0.0,0.0,0.0,0.0,-0.8046,-0.8253,-0.841,-0.8421,0.0,0.0,0.0,0.0,-0.8856,-0.9079,-0.9128,-0.9166,-0.9269,-0.9209,-0.9139,-0.9133,0.0,0.0,-1.0517,-1.0016,-0.9986,-1.1074,-1.0595,-1.0246,-1.1074,-1.1622,-1.1852,-1.1572,-1.1124,-1.0599,-1.0467,-0.9871,-0.9159,-0.6521,0.0,0.0,0.0,0.0,-0.6132,-0.6208,-0.6333,-0.6339,-0.6257,-0.6132,-0.6089,0.0,0.0,0.0,0.0,0.0,0.0,-0.6548,-0.7762,-0.8113,-0.821,-0.8133,-0.8204,-0.8236,-0.8236,-0.8236,-0.822,-0.8049,-0.7561,-0.709,-0.6974,0.0,0.0,0.0,0.0,-0.6676,-0.6281,-0.6309,-0.6001,-0.5791,-0.5235,-0.4956,-0.4665,-0.4589,-0.4512,-0.4433,-0.442,-0.4494,-0.4632,-0.4599,0.0,0.0,0.0,0.0,0.0,0.0,0.0,0.0,0.0,0.0,0.0,0.0,0.0,0.0,0.0,0.0,0.0,0.0,0.0,-0.7089,-0.7426,-0.7448,0.0,0.0,0.0,0.0,0.0,0.0,0.0,0.0,0.0,-0.8416,-0.8269,-0.8253,0.0,0.0,-0.8541,-0.8742,-0.8769,-0.8796,-0.8867,0.0,0.0,0.0,-0.922,-0.9226,-0.9144,-0.9106,-0.9258,-0.9661,-0.9506,-0.9495,-0.9815,-0.9655,-0.9615,-0.97,-1.0174,-1.0486,-1.0359,-0.9985,-0.9775,-0.9781,-0.9226,-0.8943,-0.6607,-0.6236,-0.5993,-0.6022,-0.6373,-0.6322,-0.6616,-0.7008,-0.7002,-0.6953,-0.6861,-0.6796,-0.6654,-0.6464,-0.635,0.0,0.0,0.0,-0.7075,-0.8181,-0.8262,-0.8364,-0.8301,-0.835,-0.8372,-0.8378,-0.7987,-0.7857,-0.7857,-0.7266,-0.6873,-0.6927,0.0,0.0,-0.656,-0.6611,-0.6489,-0.6313,-0.588,-0.561,-0.5392,-0.4959,-0.4668,-0.4665,-0.4605,-0.4545,-0.4482,-0.4392,-0.44,-0.4479,-0.4542,-0.4548,0.0,0.0,0.0,0.0,0.0,0.0,0.0,0.0,0.0,0.0,0.0,-0.6002,0.0,0.0,0.0,0.0,-0.685,-0.7187,-0.7519,-0.7741,0.0,0.0,0.0,0.0,0.0,0.0,0.0,-0.8285,-0.8291,-0.8508,-0.8617,-0.8388,-0.8312,-0.8617,-0.86,-0.8628,-0.8812,0.0,-0.8823,-0.8959,-0.9106,-0.922,-0.9269,-0.9372,-0.9421,-0.9356,-0.9307,-0.9296,-0.9362,-0.934,-0.9307,-0.9302,-0.9302,-0.9269,-0.9155,-0.9389,-0.9613,-0.9492,-0.9342,-0.9254,-0.9349,-0.9198,-0.9024,-0.5965,-0.5781,-0.5075,-0.5382,-0.6359,-0.6266,-0.6905,-0.7877,-0.7883,-0.7937,-0.8002,-0.7698,-0.7497,-0.7366,-0.6931,0.0,-0.7546,-0.6864,-0.71,-0.8236,-0.8514,-0.8587,-0.8432,-0.8413,-0.8467,-0.8467,-0.767,-0.7273,-0.7282,-0.661,-0.6242,-0.632,-0.6172,-0.6527,-0.7268,-0.6749,-0.6469,-0.6563,-0.6155,-0.548,-0.4522,-0.4525,-0.4525,-0.467,-0.4608,-0.4545,-0.4482,-0.4428,-0.4371,-0.4305,-0.4606,-0.4536,-0.4394,0.0,0.0,0.0,0.0,0.0,0.0,0.0,0.0,0.0,0.0,0.0,0.0,0.0,0.0,0.0,-0.7644,0.0,-0.785,-0.7867,0.0,0.0,0.0,-0.7926,-0.8057,-0.8094,-0.8165,-0.8388,0.0,0.0,-0.8725,0.0,-0.8546,-0.8769,-0.8785,-0.8818,-0.8948,-0.8872,-0.8921,-0.9237,-0.9307,-0.9362,-0.947,-0.9579,-0.9644,-0.9633,-0.9574,-0.9503,-0.9497,-0.9421,-0.9345,-0.9329,-0.9323,-0.928,-0.9155,-0.9209,-0.9258,-0.9139,-0.9052,-0.9052,-0.9231,-0.9209,-0.915,-0.3673,-0.31,-0.2847,-0.4422,-0.7017,-0.6993,-0.7366,-0.8013,-0.8013,-0.7926,-0.779,-0.7883,-0.791,-0.7877,-0.7763,-0.7741,-0.7796,-0.7825,-0.7969,-0.8242,-0.8421,-0.8519,-0.8552,-0.8127,-0.7907,-0.7772,-0.7093,-0.6719,-0.6789,-0.6099,-0.5833,-0.5716,-0.5181,-0.5311,-0.5964,-0.603,-0.5669,-0.5006,-0.5057,-0.4364,-0.2915,-0.2917,-0.35,-0.467,-0.461,-0.4548,-0.4485,-0.4428,-0.4371,-0.4311,-0.4386,-0.4319,-0.4237,-0.4719,0.0,0.0,0.0,0.0,0.0,0.0,0.0,0.0,0.0,-0.7198,-0.7491,0.0,-0.7627,0.0,-0.7763,-0.7807,-0.7747,-0.7818,0.0,0.0,-0.7872,-0.7954,-0.8166,-0.8298,-0.8381,-0.8513,-0.8497,-0.8573,-0.8872,-0.8861,-0.8883,-0.9024,-0.8889,-0.8851,-0.9052,-0.9068,-0.9106,-0.9275,-0.9389,-0.9487,-0.9606,-0.965,-0.9677,-0.9666,-0.9644,-0.9628,-0.9628,-0.9606,-0.9552,-0.9465,-0.9443,-0.9362,-0.9182,-0.916,-0.9171,-0.9144,-0.9177,-0.9231,-0.9296,-0.928,-0.9264,-0.2063,-0.1767,-0.2021,-0.3446,-0.5713,-0.5937,-0.6532,-0.7248,-0.7248,-0.718,-0.7331,-0.7958,-0.8071,-0.7894,-0.8108,-0.8204,-0.8198,-0.8151,-0.8086,-0.7877,-0.7735,-0.7679,-0.7588,-0.7283,-0.719,-0.7195,-0.6819,-0.6446,-0.6211,-0.5827,-0.556,-0.5137,-0.4746,-0.4456,-0.4134,-0.4858,-0.5597,-0.5915,-0.509,-0.3648,-0.1312,-0.1312,-0.175,-0.2624,-0.3912,-0.4578,-0.4491,-0.4452,-0.4395,-0.4313,-0.4305,-0.4267,-0.418,-0.4484,-0.5021,0.0,0.0,0.0,0.0,0.0,0.0,0.0,0.0,0.0,0.0,0.0,-0.7703,0.0,-0.7807,-0.7845,-0.7785,-0.7834,-0.7894,-0.7948,-0.7954,-0.8046,-0.8291,-0.8269,-0.8329,-0.8557,-0.8541,-0.8622,-0.8905,-0.8905,-0.8959,-0.9177,-0.9052,-0.8997,-0.9166,-0.9209,-0.9269,-0.9438,-0.9568,-0.9682,-0.9807,-0.9824,-0.9829,-0.9824,-0.978,-0.9742,-0.9742,-0.9704,-0.965,-0.9584,-0.9568,-0.953,-0.94,-0.9372,-0.9372,-0.9383,-0.9421,-0.9421,-0.9329,-0.9264,-0.9237,-0.0691,-0.0812,-0.1503,-0.2303,-0.3311,-0.4057,-0.5046,-0.6141,-0.6133,-0.6277,-0.6699,-0.7745,-0.7867,-0.7374,-0.7939,-0.8202,-0.827,-0.8217,-0.7832,-0.7365,-0.6602,-0.6385,-0.6445,-0.6545,-0.6454,-0.6457,-0.6532,-0.6144,-0.5444,-0.564,-0.5386,-0.467,-0.467,-0.3794,-0.2186,-0.3461,-0.5048,-0.6849,-0.525,-0.3066,-0.0292,-0.0,-0.0146,-0.0584,-0.3056,-0.4453,-0.4496,-0.4471,-0.4412,-0.4313,-0.4305,-0.4259,-0.4155,-0.4142,-0.4497,0.0,-0.5059,0.0,0.0,0.0,0.0,0.0,0.0,0.0,0.0,-0.7839,-0.772,-0.7703,-0.7807,-0.7877,-0.7894,-0.7894,-0.7943,-0.8062,-0.8079,-0.8171,-0.8383,-0.8323,-0.8345,-0.8562,-0.8513,-0.859,-0.8894,-0.8867,-0.8948,-0.9226,-0.9209,-0.9193,-0.9302,-0.9329,-0.941,-0.9655,-0.9791,-0.9883,-0.9976,-1.0008,-1.0008,-1.0003,-0.9927,-0.9862,-0.9862,-0.9786,-0.9715,-0.9699,-0.9688,-0.9682,-0.9671,-0.9661,-0.9661,-0.9644,-0.9644,-0.959,-0.9416,-0.9307,-0.9242,0.0979,0.153,0.0552,-0.0138,-0.083,-0.29,-0.4646,-0.5953,-0.601,-0.6102,-0.631,-0.6519,-0.6617,-0.6573,-0.6621,-0.6675,-0.6627,-0.7705,-0.7607,-0.6481,-0.5464,-0.5522,-0.6453,-0.6045,-0.5831,-0.5692,-0.5279,-0.503,-0.4936,-0.4754,-0.4766,-0.467,-0.467,-0.35,-0.1164,0.0,0.0,0.0,-0.2627,-0.22,-0.1036,-0.0293,-0.0879,-0.2812,-0.2874,0.0,-0.4348,-0.4392,-0.433,-0.4308,-0.4305,0.0,0.0,0.0,0.0,0.0,0.0,0.0,0.0,0.0,0.0,0.0,-0.64,-0.674,-0.7787,-0.7861,-0.7801,-0.7714,-0.7807,-0.7915,-0.8013,-0.8019,-0.8068,-0.8182,-0.8204,-0.8258,-0.8399,-0.8394,-0.8437,-0.8568,-0.8655,-0.8764,-0.8921,-0.9014,-0.9122,-0.9269,-0.9285,-0.9323,-0.9432,-0.9449,-0.9541,-0.9764,-0.9911,-0.9987,-1.0014,-1.0025,-1.0019,-1.0014,-1.0008,-0.9981,-0.9976,-0.9965,-0.9911,-0.9829,-0.9807,-0.9775,-0.9693,-0.9666,-0.9682,-0.9671,-0.9671,-0.9655,-0.9606,-0.9584,-0.9574,0.1835,0.0,0.1683,0.0978,0.0,-0.1942,-0.3763,-0.5227,-0.5175,-0.5267,-0.5376,-0.5953,-0.6134,-0.6028,-0.6309,-0.6357,-0.6317,-0.6723,-0.6481,-0.5863,-0.4925,-0.4869,-0.56,-0.5288,-0.5195,-0.5192,-0.5195,-0.5069,-0.4808,-0.5069,-0.4782,-0.35,-0.3939,-0.2478,0.0583,0.0583,0.0585,0.0589,-0.1326,-0.2069,-0.1782,-0.133,-0.1326,-0.1767,0.0,0.0,0.0,0.0,0.0,0.0,0.0,0.0,0.0,0.0,0.0,-0.4741,-0.4968,-0.5226,-0.526,-0.5229,-0.5487,-0.6181,-0.6832,-0.7205,-0.7475,-0.7413,-0.7526,-0.7959,-0.7964,-0.8013,-0.8127,-0.8144,-0.8193,-0.8307,-0.8323,-0.8372,-0.8475,-0.8503,-0.8546,-0.866,-0.8731,-0.8834,-0.9019,-0.909,-0.9177,-0.928,-0.9302,-0.9351,-0.9465,-0.9541,-0.9677,-0.996,-1.0003,-1.0063,-1.0166,-1.0085,-1.0047,-1.0085,-1.0063,-1.0025,-1.0019,-1.0019,-0.9998,-0.9938,-0.9927,-0.9905,-0.9862,-0.9845,-0.9824,-0.9775,-0.9802,-0.9813,-0.9769,-0.9709,-0.9666,0.2277,0.2256,0.2281,0.1698,0.0417,-0.1249,-0.3014,-0.4437,0.0,0.0,0.0,-0.5318,-0.5607,-0.5471,-0.5888,-0.6095,-0.6084,-0.5569,-0.5314,-0.5288,-0.4687,-0.4491,-0.4575,-0.4635,-0.4665,-0.4665,-0.5247,-0.5247,-0.481,-0.5392,-0.4665,-0.277,-0.2917,-0.1315,0.2049,0.2342,0.2363,0.2252,-0.0298,-0.1788,-0.2094,-0.2237,-0.163,-0.0441,-0.2042,-0.2747,-0.2289,-0.3672,-0.4466,-0.4414,-0.4365,-0.4311,-0.4253,-0.4248,-0.4243,-0.4234,-0.4232,-0.4232,-0.4232,-0.4232,-0.4729,-0.5824,-0.6846,-0.7449,-0.7084,-0.7122,-0.7391,-0.8092,-0.8144,-0.8133,-0.8253,-0.8269,-0.8318,-0.8437,-0.8448,-0.8486,-0.8573,-0.8611,-0.866,-0.8753,-0.8812,-0.891,-0.9101,-0.9155,-0.9193,-0.9285,-0.9329,-0.9405,-0.9546,-0.9661,-0.9802,-1.0068,-1.0068,-1.009,-1.0226,-1.0155,-1.0068,-1.0128,-1.0079,-1.0025,-1.0019,-1.0019,-1.0019,-1.0014,-1.0019,-1.0014,-1.0014,-1.0003,-0.9981,-0.9889,-0.9949,-0.9992,-0.9889,-0.9796,-0.9748,0.2288,0.2285,0.2289,0.2157,0.1737,-0.1012,-0.3173,-0.4586,-0.4412,-0.4362,-0.4412,-0.46,-0.4794,-0.4698,-0.4768,-0.4736,-0.4739,-0.4493,-0.4491,0.0,-0.4575,-0.4608,-0.4578,-0.4635,-0.4665,-0.4665,-0.481,-0.4813,-0.467,-0.4376,-0.3939,-0.3209,-0.2188,-0.0147,0.2223,0.2372,0.2413,0.2492,0.1361,0.015,-0.092,-0.1804,-0.2239,-0.2105,-0.1022,-0.1147,-0.2286,-0.3815,-0.4625,-0.4471,-0.4463,-0.4431,-0.4376,-0.4371,-0.4349,-0.43,-0.4294,-0.4294,-0.4294,-0.4294,-0.4403,-0.4473,-0.4598,-0.5479,-0.7065,-0.7684,-0.8071,-0.8236,-0.8098,-0.8258,-0.8372,-0.8388,-0.8437,-0.8541,-0.8562,-0.8573,-0.8595,-0.8687,-0.8753,-0.8785,-0.8959,-0.9079,-0.9139,-0.922,-0.928,-0.9313,-0.94,-0.9568,-0.9807,-0.9867,-0.9883,-1.0003,-1.0036,-1.0036,-1.0106,-1.0057,-1.0036,-1.0041,-1.0041,-1.0019,-1.0019,-1.0019,-1.0019,-1.0019,-1.0019,-1.0019,-1.0019,-1.0019,-1.0003,-0.9976,-0.9998,-1.0003,-0.9976,-0.9949,-0.9954,0.2313,0.2313,0.2313,0.2032,0.1313,-0.175,-0.35,-0.4221,-0.4411,-0.4518,-0.4542,-0.457,-0.4597,-0.4613,-0.4526,-0.4482,-0.448,-0.4306,-0.4308,-0.4485,-0.454,-0.4586,-0.4624,-0.4651,-0.4681,-0.4711,-0.4417,-0.4567,-0.4567,-0.3537,-0.2789,-0.2189,-0.0294,0.1186,0.1801,0.2267,0.2457,0.2511,0.215,0.1382,0.0157,-0.0614,-0.1369,-0.2294,-0.1644,-0.1177,-0.1022,-0.3029,-0.4284,-0.4537,-0.4501,-0.4471,-0.4444,-0.4444,-0.4431,-0.4403,-0.4373,-0.4357,-0.4357,-0.4729,-0.4696,-0.427,-0.4929,-0.5579,-0.6201,-0.6364,-0.6739,-0.7229,-0.7461,-0.7727,-0.7964,-0.8244,-0.853,-0.8584,-0.8644,-0.8687,-0.8698,-0.8796,-0.8894,-0.8959,-0.9063,-0.916,-0.922,-0.9269,-0.9334,-0.9394,-0.9508,-0.9677,-0.9889,-0.9878,-0.9932,-1.015,-1.0112,-1.0095,-1.0177,-1.0095,-1.0063,-1.0106,-1.0063,-1.0025,-1.0019,-1.0019,-1.0019,-1.0019,-1.0019,-1.0019,-1.0019,-1.0019,-0.9992,-0.9932,-0.9981,-0.9992,-0.9949,-0.997,-1.0019,0.2338,0.2343,0.2335,0.1604,0.0291,-0.2041,-0.3354,-0.3939,-0.4085,-0.4231,-0.4228,-0.4519,-0.4665,-0.4654,-0.4564,-0.4523,-0.451,-0.4431,-0.4439,-0.4518,-0.4523,-0.4575,-0.4657,-0.4665,-0.4689,-0.4585,-0.4302,-0.4154,-0.4295,-0.2828,-0.1785,-0.074,0.1193,0.1812,0.138,0.2168,0.2507,0.254,0.2508,0.2197,0.1437,0.0471,-0.0466,-0.1703,-0.1989,-0.1663,-0.1045,-0.2513,-0.3951,-0.4624,-0.4572,-0.4531,-0.4504,-0.4504,-0.4496,-0.4482,-0.4442,-0.4417,-0.4414,-0.4919,-0.5024,-0.4482,-0.5295,-0.5701,-0.5285,-0.5059,-0.5416,-0.6293,-0.6784,-0.7176,-0.7531,-0.8086,-0.8504,-0.8671,-0.8753,-0.8807,-0.8823,-0.8921,-0.9024,-0.9117,-0.9155,-0.922,-0.9313,-0.9345,-0.941,-0.9552,-0.965,-0.9753,-0.9883,-0.99,-1.0019,-1.0193,-1.0161,-1.009,-1.0259,-1.015,-1.0074,-1.015,-1.0085,-1.003,-1.0019,-1.0019,-1.0019,-1.0019,-1.0019,-1.0019,-1.0019,-1.0019,-0.9987,-0.9927,-0.997,-0.9992,-0.9921,-0.9965,-1.0019,0.2349,0.2368,0.2345,0.1166,-0.0437,-0.1166,-0.2333,-0.3648,-0.2917,-0.2478,-0.277,-0.4085,-0.467,-0.4668,-0.4651,-0.464,-0.4643,-0.4635,-0.4632,-0.464,-0.4649,-0.4654,-0.4665,-0.4665,-0.4519,-0.4246,-0.414,-0.3849,-0.338,-0.2246,-0.1215,-0.0,0.0922,0.14,0.1428,0.223,0.2578,0.2631,0.2581,0.2555,0.2399,0.0798,-0.0,-0.0157,-0.093,-0.1991,-0.3179,-0.287,-0.33,-0.4596,-0.473,-0.4679,-0.458,-0.4564,-0.454,-0.4491,-0.448,-0.4474,-0.4474,-0.4611,-0.46,-0.4466,-0.46,-0.4736,-0.46,-0.4589,-0.509,-0.6095,-0.6451,-0.6753,-0.751,-0.766,-0.8103,-0.8735,-0.8777,-0.8938,-0.8948,-0.9046,-0.9122,-0.9133,-0.9237,-0.9334,-0.9443,-0.9476,-0.9563,-0.9742,-0.9796,-0.9883,-1.0057,-1.0036,-1.0025,-1.0155,-1.0101,-1.0041,-1.0068,-1.0047,-1.003,-1.0047,-1.0036,-1.0019,-1.0019,-1.0019,-1.0019,-1.0019,-1.0019,-1.0019,-1.0019,-1.0019,-1.0014,-0.9992,-0.9998,-1.0014,-1.0003,-1.0008,-1.0019,0.2367,0.2375,0.2345,0.1604,0.0437,-0.0583,-0.1166,-0.1604,-0.2188,-0.2335,-0.2335,-0.3063,-0.3794,-0.467,-0.4665,-0.4665,-0.4665,-0.4665,-0.4665,-0.4665,-0.4665,-0.4665,-0.4665,-0.4374,-0.4258,-0.4171,-0.3748,-0.346,-0.3021,-0.1219,0.0153,0.0772,0.1721,0.2059,0.208,0.2432,0.2616,0.262,0.2632,0.263,0.2444,0.1919,0.0951,-0.0317,-0.0471,-0.1241,-0.2915,-0.3368,-0.3957,-0.4812,-0.4777,-0.4733,-0.4684,-0.4649,-0.4616,-0.4589,-0.4556,-0.4521,-0.4485,-0.4482,-0.4482,-0.4482,-0.4482,-0.4482,-0.4482,-0.4482,-0.4739,-0.525,-0.5649,-0.6073,-0.6517,-0.6798,-0.7373,-0.8114,-0.8308,-0.8494,-0.8922,-0.916,-0.9258,-0.9329,-0.9383,-0.9459,-0.9574,-0.9655,-0.9731,-0.9835,-0.9889,-0.9992,-1.0079,-1.0052,-1.0047,-1.0074,-1.0052,-1.0025,-1.0019,-1.0019,-1.0019,-1.0019,-1.0019,-1.0019,-1.0019,-1.0019,-1.0019,-1.0019,-1.0019,-1.0019,-1.0019,-1.0019,-1.0019,-1.0019,-1.0019,-1.0019,-1.0019,-1.0019,-1.0019,0.2371,0.2373,0.2345,0.1895,0.1166,0.0437,0.0146,0.0146,-0.0729,-0.1314,-0.1752,-0.1895,-0.3063,-0.4525,-0.4665,-0.4665,-0.4665,-0.4665,-0.4665,-0.4668,-0.4681,-0.4689,-0.4543,-0.4265,-0.4015,-0.3778,-0.3343,-0.2759,-0.2322,-0.0309,0.1238,0.1717,0.2221,0.2564,0.2575,0.2623,0.2637,0.262,0.266,0.2669,0.2639,0.2575,0.1752,0.0321,-0.0478,-0.126,-0.2173,-0.3566,-0.4316,-0.472,-0.4828,-0.4798,-0.4779,-0.4739,-0.4706,-0.4689,-0.4649,-0.4597,-0.4537,-0.4531,-0.4531,-0.4531,-0.4531,-0.4534,-0.4531,-0.4531,-0.4531,-0.4673,-0.5097,-0.5373,-0.5631,-0.6052,-0.6621,-0.7495,-0.7709,-0.8045,-0.8801,-0.9018,-0.9108,-0.9514,-0.953,-0.9579,-0.9699,-0.9807,-0.9889,-0.9905,-0.9965,-1.0019,-1.0019,-1.0025,-1.0019,-1.0019,-1.0019,-1.0019,-1.0019,-1.0019,-1.0019,-1.0019,-1.0019,-1.0019,-1.0019,-1.0019,-1.0019,-1.0019,-1.0019,-1.0019,-1.0019,-1.0019,-1.0019,-1.0019,-1.0019,-1.0019,-1.0019,-1.0019,-1.0019,0.2352,0.2373,0.2346,0.1899,0.1312,0.1752,0.1605,0.0876,0.1606,0.1168,-0.0146,-0.1021,-0.248,-0.4676,-0.4676,-0.4668,-0.4668,-0.4673,-0.4676,-0.4681,-0.4728,-0.4601,-0.4159,-0.4207,-0.378,-0.3188,-0.2912,-0.2015,-0.0313,0.0776,0.1717,0.2552,0.2562,0.2575,0.2598,0.2632,0.2646,0.2643,0.2652,0.265,0.2645,0.2616,0.26,0.1951,-0.065,-0.1927,-0.2048,-0.3295,-0.4215,-0.4319,-0.477,-0.4899,-0.485,-0.4834,-0.4804,-0.4758,-0.4747,-0.4719,-0.4662,-0.4651,-0.4649,-0.4651,-0.464,-0.4651,-0.4638,-0.4638,-0.4643,-0.4654,-0.4794,-0.5063,-0.545,-0.5716,-0.6169,-0.6958,-0.7123,-0.7456,-0.8274,-0.8578,-0.879,-0.9484,-0.9671,-0.972,-0.9818,-0.9938,-0.9987,-0.9998,-1.0014,-1.0019,-1.0019,-1.0019,-1.0019,-1.0019,-1.0019,-1.0019,-1.0019,-1.0019,-1.0019,-1.0019,-1.0019,-1.0019,-1.0019,-1.0019,-1.0019,-1.0019,-1.0019,-1.0019,-1.0019,-1.0019,-1.0019,-1.0019,-1.0019,-1.0019,-1.0019,-1.0019,-1.0041,0.2414,0.2406,0.2395,0.224,0.2092,0.2242,0.2083,0.1771,0.2067,0.1764,0.0585,-0.0735,-0.2361,-0.4137,-0.402,-0.4312,-0.4728,-0.4763,-0.4779,-0.4782,-0.4804,-0.4512,-0.4211,-0.3929,-0.3651,-0.3065,-0.231,-0.0932,0.0628,0.1103,0.1744,0.2403,0.2598,0.2612,0.2612,0.2652,0.2667,0.2652,0.2665,0.2676,0.2675,0.2665,0.2652,0.2467,0.1307,-0.0,-0.1606,-0.319,-0.4121,-0.4737,-0.4826,-0.4927,-0.4905,-0.4867,-0.4837,-0.4818,-0.4812,-0.4788,-0.4733,-0.4722,-0.4706,-0.4668,-0.4665,-0.4668,-0.4665,-0.4665,-0.4681,-0.4714,-0.4722,-0.4869,-0.5025,-0.5116,-0.567,-0.6905,-0.7072,-0.7699,-0.882,-0.9153,-0.9345,-0.9758,-0.984,-0.9911,-0.9938,-0.9992,-1.0019,-1.0019,-1.0019,-1.0019,-1.0019,-1.0019,-1.0019,-1.0019,-1.0019,-1.0019,-1.0019,-1.0019,-1.0019,-1.0019,-1.0019,-1.0019,-1.0019,-1.0019,-1.0019,-1.0019,-1.0019,-1.0019,-1.0019,-1.0019,-1.0019,-1.0019,-1.0019,-1.0047,-1.0019,-1.0085,-1.0123,0.2443,0.2425,0.2424,0.2424,0.2423,0.2413,0.2397,0.2378,0.2368,0.2059,0.1318,-0.0443,-0.208,-0.3131,-0.3327,-0.3793,-0.4364,-0.4384,-0.4391,-0.4394,-0.4409,-0.4264,-0.381,-0.3515,-0.3077,-0.248,-0.1086,0.0312,0.1263,0.1594,0.2083,0.2577,0.2615,0.2622,0.2613,0.2653,0.2667,0.2656,0.2677,0.2692,0.2692,0.2692,0.2683,0.2496,0.2147,0.0983,-0.0976,-0.2581,-0.3858,-0.4493,-0.4907,-0.5014,-0.4989,-0.4935,-0.4894,-0.4877,-0.4856,-0.4831,-0.479,-0.4766,-0.4747,-0.4728,-0.4725,-0.4722,-0.4722,-0.4722,-0.4744,-0.4774,-0.4785,-0.4804,-0.4818,-0.4771,-0.533,-0.6556,-0.6864,-0.7497,-0.9101,-0.9273,-0.9476,-0.9725,-0.996,-1.0008,-1.0019,-1.0019,-1.0019,-1.0019,-1.0019,-1.0019,-1.0019,-1.0019,-1.0019,-1.0019,-1.0019,-1.0019,-1.0019,-1.0019,-1.0025,-1.0025,-1.0019,-1.0019,-1.0019,-1.0019,-1.0019,-1.0019,-1.0019,-1.0019,-1.0019,-1.0019,-1.0025,-1.003,-1.0074,-1.0117,-1.0139,-1.0188,-1.0231,0.2427,0.2429,0.2425,0.2431,0.2428,0.2406,0.2384,0.2382,0.2356,0.2203,0.1911,0.0148,-0.1492,-0.2395,-0.2904,-0.3392,-0.369,-0.3661,-0.3647,-0.3801,-0.3837,-0.3546,-0.3243,-0.3115,-0.2348,-0.1257,0.0471,0.1265,0.1439,0.2083,0.2575,0.2597,0.2605,0.2612,0.2604,0.2639,0.2653,0.2657,0.268,0.2692,0.2692,0.2692,0.2691,0.252,0.1679,0.0665,-0.0163,-0.1789,-0.3253,-0.3905,-0.4707,-0.5169,-0.5098,-0.5044,-0.4995,-0.4937,-0.4886,-0.4853,-0.4842,-0.4798,-0.4798,-0.4815,-0.4837,-0.4826,-0.4823,-0.4826,-0.4834,-0.4845,-0.4845,-0.4853,-0.4856,-0.4853,-0.5144,-0.5896,-0.6197,-0.699,-0.8283,-0.8774,-0.9121,-0.9826,-1.0019,-1.0019,-1.0019,-1.0019,-1.0019,-1.0019,-1.0019,-1.0019,-1.0019,-1.0019,-1.0019,-1.0019,-1.0019,-1.0019,-1.0019,-1.0025,-1.003,-1.003,-1.0025,-1.0019,-1.0019,-1.0019,-1.0019,-1.0019,-1.0019,-1.0019,-1.003,-1.0036,-1.0063,-1.0079,-1.0134,-1.0199,-1.0242,-1.0291,-1.0351,0.2485,0.2487,0.2487,0.2485,0.2485,0.2476,0.2461,0.244,0.2429,0.2416,0.2104,0.0455,-0.0915,-0.1836,-0.2482,-0.2967,-0.3276,-0.2954,-0.3106,-0.3572,-0.3739,-0.3433,-0.2969,-0.2507,-0.1261,0.0477,0.1591,0.224,0.2261,0.2427,0.2594,0.2604,0.2623,0.2632,0.2634,0.2662,0.2677,0.2679,0.2687,0.2692,0.2692,0.2692,0.2692,0.2524,0.1514,0.067,-0.0,-0.2148,-0.3458,-0.4281,-0.4571,-0.4852,-0.496,-0.5095,-0.5055,-0.5003,-0.4978,-0.4946,-0.4913,-0.4891,-0.4864,-0.4856,-0.4848,-0.4848,-0.4848,-0.485,-0.4867,-0.4899,-0.491,-0.4921,-0.4957,-0.4967,-0.5254,-0.6132,-0.6125,-0.6765,-0.8384,-0.9186,-0.9671,-0.9853,-1.0019,-1.0019,-1.0019,-1.0019,-1.0019,-1.0019,-1.0019,-1.0019,-1.0019,-1.0019,-1.0019,-1.0019,-1.0019,-1.0036,-1.0052,-1.0101,-1.0144,-1.0134,-1.0112,-1.0101,-1.0085,-1.0074,-1.0063,-1.0052,-1.0047,-1.0041,-1.0047,-1.0068,-1.0106,-1.0166,-1.0242,-1.0291,-1.0329,-1.0394,-1.0476,0.2514,0.2514,0.2514,0.2514,0.2512,0.2503,0.2487,0.2467,0.2457,0.2442,0.2127,0.1074,-0.0154,-0.1237,-0.1563,-0.2042,-0.2669,-0.22,-0.2356,-0.3142,-0.3299,-0.2983,-0.2358,-0.1263,-0.0159,0.1124,0.2253,0.259,0.2617,0.2619,0.2624,0.2638,0.2654,0.2664,0.2665,0.2682,0.2692,0.2692,0.2692,0.2692,0.2694,0.2703,0.2709,0.254,0.1355,0.0508,-0.0169,-0.201,-0.3498,-0.4157,-0.4612,-0.489,-0.5018,-0.4997,-0.5128,-0.509,-0.5046,-0.5011,-0.4997,-0.4959,-0.4935,-0.4913,-0.491,-0.4913,-0.491,-0.491,-0.4932,-0.4959,-0.497,-0.4981,-0.5011,-0.5019,-0.5315,-0.5745,-0.6048,-0.6844,-0.8141,-0.9085,-0.9397,-0.9553,-0.9869,-1.0019,-1.0019,-1.0019,-1.0019,-1.0019,-1.0019,-1.0019,-1.0019,-1.0019,-1.0019,-1.0041,-1.0079,-1.0095,-1.0106,-1.0172,-1.0264,-1.0253,-1.0226,-1.0221,-1.0215,-1.0215,-1.021,-1.0188,-1.0177,-1.0128,-1.0128,-1.015,-1.0182,-1.0264,-1.034,-1.0411,-1.0465,-1.0547,-1.0617,0.2514,0.2514,0.2514,0.2514,0.2511,0.2488,0.2477,0.2469,0.2447,0.2438,0.2286,0.154,0.0464,-0.031,-0.0313,-0.0942,-0.1886,-0.126,-0.1261,-0.2048,-0.2208,-0.1738,-0.0949,0.0319,0.1127,0.1625,0.2278,0.262,0.2649,0.265,0.2664,0.2683,0.2686,0.2691,0.2688,0.2692,0.2692,0.2692,0.2692,0.2692,0.2698,0.2717,0.2733,0.2563,0.1023,0.0,0.0,-0.1857,-0.3026,-0.3698,-0.466,-0.5127,-0.4784,-0.5074,-0.5204,-0.5183,-0.5087,-0.5068,-0.5071,-0.5006,-0.4965,-0.4997,-0.5003,-0.5022,-0.5003,-0.4997,-0.5,-0.5011,-0.5014,-0.5016,-0.5019,-0.5022,-0.5016,-0.5176,-0.5789,-0.658,-0.7365,-0.815,-0.8778,-0.8934,-0.9402,-1.0019,-1.0019,-1.0019,-1.0019,-1.0019,-1.0019,-1.0019,-1.0019,-1.0019,-1.0025,-1.0068,-1.0134,-1.0182,-1.0199,-1.0307,-1.0389,-1.0394,-1.0373,-1.0373,-1.0335,-1.0324,-1.0318,-1.0302,-1.0286,-1.0237,-1.0226,-1.0259,-1.028,-1.0329,-1.0416,-1.052,-1.0601,-1.0661,-1.0688,0.2514,0.2514,0.2514,0.2514,0.2514,0.2504,0.2502,0.2502,0.2493,0.2487,0.2336,0.1561,0.1093,0.0782,0.0157,-0.0314,-0.0629,-0.0317,-0.0318,-0.0637,-0.0642,-0.0161,0.0483,0.0969,0.1628,0.2138,0.2471,0.2652,0.2679,0.2677,0.2684,0.2691,0.2692,0.2692,0.2692,0.2692,0.2692,0.2692,0.2692,0.2705,0.2721,0.2713,0.2716,0.2564,0.1019,0.0,0.0,-0.1686,-0.3029,-0.3533,-0.4363,-0.5005,-0.5134,-0.5278,-0.5254,-0.5207,-0.5139,-0.5095,-0.5095,-0.5044,-0.5011,-0.5016,-0.5025,-0.5022,-0.5022,-0.5022,-0.5022,-0.5022,-0.5022,-0.5022,-0.5022,-0.5022,-0.5022,-0.5176,-0.5645,-0.6271,-0.6587,-0.7369,-0.7998,-0.8622,-0.8934,-0.9397,-0.9708,-1.0019,-1.0019,-1.0019,-1.0019,-1.0019,-1.0019,-1.0047,-1.0057,-1.0134,-1.0199,-1.0259,-1.0324,-1.0438,-1.0509,-1.0525,-1.053,-1.0536,-1.0465,-1.0389,-1.0378,-1.0362,-1.0373,-1.034,-1.0373,-1.0405,-1.0416,-1.0411,-1.0536,-1.065,-1.0672,-1.0721,-1.0721,0.2514,0.2514,0.2514,0.2514,0.2514,0.2514,0.2514,0.2514,0.2514,0.2514,0.2357,0.2043,0.157,0.1256,0.1099,0.0628,0.0157,0.0791,0.0796,0.0481,0.0975,0.1309,0.1473,0.1638,0.2142,0.2496,0.2665,0.2676,0.2688,0.2692,0.2692,0.2692,0.2692,0.2692,0.2692,0.2692,0.2692,0.2695,0.2703,0.2721,0.2735,0.2747,0.2759,0.2422,0.1372,0.034,-0.0506,-0.2028,-0.2875,-0.337,-0.4038,-0.4528,-0.4836,-0.5164,-0.5313,-0.5278,-0.5221,-0.5188,-0.5172,-0.5112,-0.5074,-0.5079,-0.506,-0.5038,-0.5046,-0.5041,-0.5025,-0.5057,-0.5038,-0.5036,-0.5049,-0.5038,-0.5022,-0.5022,-0.5489,-0.5802,-0.5805,-0.6431,-0.7056,-0.7681,-0.831,-0.8934,-0.9558,-0.9713,-1.0019,-1.0019,-1.0019,-1.0019,-1.0025,-1.0063,-1.0123,-1.0204,-1.0307,-1.0389,-1.0449,-1.0547,-1.0601,-1.0623,-1.0628,-1.0645,-1.0596,-1.0498,-1.052,-1.0514,-1.0481,-1.0465,-1.0492,-1.0509,-1.0503,-1.0541,-1.0672,-1.0721,-1.0732,-1.0737,-1.0737,0.2514,0.2514,0.2514,0.2514,0.2514,0.2514,0.2514,0.2514,0.2514,0.2514,0.2514,0.2514,0.2043,0.1413,0.2043,0.1729,0.0472,0.1742,0.1756,0.1617,0.197,0.2155,0.1822,0.2155,0.2499,0.2686,0.2691,0.2691,0.2692,0.2692,0.2692,0.2692,0.2692,0.2692,0.2692,0.2692,0.2692,0.2698,0.272,0.2737,0.2752,0.2782,0.2804,0.2634,0.1568,0.0172,-0.102,-0.2209,-0.2722,-0.2694,-0.3535,-0.4038,-0.4201,-0.4878,-0.5379,-0.5363,-0.5311,-0.5275,-0.5273,-0.518,-0.5139,-0.5164,-0.5095,-0.506,-0.5101,-0.5085,-0.5076,-0.5117,-0.5071,-0.5076,-0.5082,-0.5055,-0.5025,-0.5022,-0.5019,-0.5022,-0.5179,-0.5648,-0.6275,-0.6271,-0.7681,-0.831,-0.8778,-0.9251,-0.9885,-0.962,-0.9787,-1.0144,-1.0155,-1.0193,-1.0242,-1.0291,-1.0411,-1.0536,-1.0596,-1.0655,-1.0688,-1.071,-1.0699,-1.0704,-1.0704,-1.0661,-1.0693,-1.0688,-1.0612,-1.0579,-1.0585,-1.059,-1.0585,-1.0612,-1.0699,-1.0721,-1.0737,-1.0737,-1.0737,0.2514,0.2514,0.2514,0.2514,0.2514,0.2514,0.2514,0.2514,0.2514,0.2514,0.2514,0.2514,0.2357,0.2201,0.2361,0.221,0.1913,0.2412,0.2448,0.2496,0.2506,0.2683,0.2346,0.268,0.2686,0.2692,0.2692,0.2692,0.2692,0.2692,0.2692,0.2692,0.2695,0.2692,0.2694,0.2697,0.2692,0.2698,0.2724,0.2752,0.2772,0.2789,0.2811,0.2647,0.1225,-0.0173,-0.1197,-0.2221,-0.2722,-0.2869,-0.3369,-0.3881,-0.4378,-0.5048,-0.5384,-0.5373,-0.533,-0.5294,-0.5281,-0.5232,-0.5188,-0.5204,-0.518,-0.5169,-0.5177,-0.5169,-0.5164,-0.5183,-0.5172,-0.5142,-0.5109,-0.5057,-0.503,-0.5025,-0.5025,-0.5025,-0.5022,-0.5176,-0.5648,-0.6118,-0.6591,-0.7056,-0.769,-0.8707,-0.9041,-0.9218,-0.9585,-1.0131,-1.0147,-0.9993,-1.0035,-1.0077,-1.0166,-1.0442,-1.0655,-1.0699,-1.0715,-1.0737,-1.0737,-1.0737,-1.0737,-1.0737,-1.0737,-1.0732,-1.0721,-1.0693,-1.0661,-1.0677,-1.0672,-1.0699,-1.071,-1.0726,-1.0737,-1.0737,-1.0737,0.2514,0.2514,0.2514,0.2514,0.2514,0.2514,0.2514,0.2514,0.2514,0.2514,0.2514,0.2514,0.2522,0.2534,0.2537,0.2552,0.2581,0.2609,0.2638,0.2668,0.2683,0.2691,0.2692,0.2692,0.2692,0.2692,0.2692,0.2692,0.2692,0.2692,0.2692,0.2695,0.2706,0.2714,0.2714,0.2714,0.2724,0.2736,0.275,0.2773,0.28,0.2819,0.2821,0.2478,0.1058,-0.0175,-0.0691,-0.2081,-0.2591,-0.2743,-0.3075,-0.3569,-0.4214,-0.4715,-0.5051,-0.5376,-0.536,-0.5335,-0.5322,-0.5286,-0.5259,-0.5281,-0.524,-0.5229,-0.5226,-0.5221,-0.5221,-0.5229,-0.5215,-0.5177,-0.512,-0.509,-0.5057,-0.503,-0.5046,-0.5052,-0.503,-0.5022,-0.5179,-0.5655,-0.6148,-0.648,-0.7141,-0.7823,-0.8189,-0.8366,-0.8536,-0.8912,-0.8922,-0.8774,-0.9322,-0.9539,-0.9773,-1.0169,-1.0538,-1.0726,-1.0726,-1.0737,-1.0737,-1.0737,-1.0737,-1.0737,-1.0737,-1.0732,-1.0732,-1.0732,-1.071,-1.0737,-1.0737,-1.0726,-1.0726,-1.0732,-1.0737,-1.0737,-1.0737,0.2514,0.2514,0.2514,0.2514,0.2515,0.2519,0.2523,0.2522,0.2522,0.2529,0.2526,0.2525,0.2541,0.256,0.2566,0.2582,0.2611,0.2638,0.2661,0.2665,0.2683,0.2691,0.2692,0.2692,0.2692,0.2692,0.2692,0.2692,0.2692,0.2692,0.2698,0.2703,0.2722,0.2732,0.2736,0.2744,0.2748,0.2762,0.278,0.2799,0.2826,0.2851,0.2856,0.2491,0.107,0.0,0.0,-0.1754,-0.281,-0.2787,-0.2784,-0.3271,-0.3743,-0.4229,-0.4731,-0.5235,-0.523,-0.5222,-0.5371,-0.5338,-0.5327,-0.5376,-0.53,-0.5264,-0.5283,-0.5275,-0.5275,-0.5267,-0.5251,-0.5185,-0.5134,-0.5109,-0.5085,-0.506,-0.5085,-0.5082,-0.5049,-0.503,-0.5022,-0.5184,-0.5537,-0.6042,-0.6404,-0.693,-0.729,-0.7491,-0.7661,-0.7673,-0.7685,-0.7872,-0.8423,-0.8788,-0.9004,-0.9525,-1.006,-1.057,-1.057,-1.057,-1.057,-1.0737,-1.0737,-1.0737,-1.0737,-1.0737,-1.0737,-1.0737,-1.0737,-1.0737,-1.0737,-1.0737,-1.0737,-1.0737,-1.0737,-1.0737,-1.0737,0.2514,0.2514,0.2514,0.2514,0.2518,0.2541,0.2549,0.2552,0.2549,0.2566,0.2579,0.2563,0.2568,0.2589,0.2594,0.2612,0.2641,0.2667,0.268,0.2682,0.269,0.2692,0.2692,0.2692,0.2692,0.2692,0.2692,0.2692,0.2692,0.2692,0.2705,0.2724,0.2737,0.274,0.2751,0.2759,0.2769,0.2774,0.2799,0.2822,0.2837,0.2857,0.2872,0.2683,0.1076,0.0,0.0,-0.1765,-0.2815,-0.2788,-0.2784,-0.3127,-0.3464,-0.3806,-0.4304,-0.4779,-0.494,-0.5092,-0.539,-0.5376,-0.5371,-0.5379,-0.5354,-0.5346,-0.536,-0.5357,-0.5343,-0.5324,-0.5273,-0.5199,-0.5188,-0.5158,-0.5117,-0.5104,-0.5112,-0.5115,-0.509,-0.4902,-0.487,-0.487,-0.5229,-0.5442,-0.5802,-0.6181,-0.6567,-0.6931,-0.7113,-0.729,-0.7304,-0.7485,-0.8015,-0.8202,-0.8215,-0.8892,-0.9402,-1.007,-1.057,-1.0404,-1.057,-1.057,-1.057,-1.0737,-1.0737,-1.0737,-1.0737,-1.0737,-1.0737,-1.0737,-1.0737,-1.0737,-1.0737,-1.0737,-1.0737,-1.0737,-1.0737,0.2514,0.2514,0.2514,0.2514,0.2519,0.2547,0.2551,0.2542,0.2567,0.2579,0.2581,0.2581,0.2598,0.2619,0.2626,0.2642,0.2668,0.2683,0.2692,0.2692,0.2692,0.2692,0.2692,0.2692,0.2692,0.2692,0.2692,0.2692,0.2692,0.2692,0.271,0.2735,0.2752,0.2769,0.2784,0.2799,0.2806,0.2808,0.2821,0.2837,0.2851,0.2868,0.2872,0.2335,0.0,0.0,0.0,-0.1782,-0.2846,-0.2834,-0.283,-0.3007,-0.3182,-0.3529,-0.4026,-0.4473,-0.4791,-0.4937,-0.523,-0.5384,-0.5384,-0.5384,-0.5384,-0.5384,-0.5384,-0.5382,-0.5384,-0.5363,-0.5316,-0.5251,-0.5248,-0.5213,-0.5196,-0.5175,-0.5183,-0.5008,-0.4808,-0.4455,-0.4431,-0.4576,-0.4793,-0.5002,-0.5021,-0.5406,-0.5814,-0.6186,-0.654,-0.6714,-0.6892,-0.7059,-0.7223,-0.7391,-0.7558,-0.8227,-0.8733,-0.9235,-0.9898,-1.007,-1.007,-1.0237,-1.0404,-1.057,-1.057,-1.0737,-1.0737,-1.0737,-1.0737,-1.0737,-1.0737,-1.0737,-1.0748,-1.0748,-1.0737,-1.0737,-1.0748,0.2514,0.2514,0.2514,0.2518,0.2527,0.2556,0.256,0.2553,0.2592,0.26,0.2583,0.2601,0.2624,0.2643,0.2654,0.2667,0.2686,0.2687,0.2692,0.2692,0.2692,0.2692,0.2692,0.2692,0.2692,0.2692,0.2692,0.2692,0.2692,0.2692,0.2713,0.2742,0.2772,0.2789,0.2807,0.2816,0.2844,0.2844,0.2851,0.2852,0.2868,0.2874,0.2874,0.2694,0.0,0.0,0.0,-0.1794,-0.269,-0.287,-0.2874,-0.2878,-0.3055,-0.3417,-0.3906,-0.4504,-0.4643,-0.4944,-0.5235,-0.5384,-0.5384,-0.5384,-0.5384,-0.5384,-0.5384,-0.5382,-0.5379,-0.536,-0.5308,-0.5254,-0.5071,-0.5084,-0.5063,-0.4882,-0.4898,-0.4921,-0.4529,-0.433,-0.4159,-0.433,-0.4531,-0.4548,-0.456,-0.5113,-0.5688,-0.5697,-0.6047,-0.5882,-0.6053,-0.5888,-0.6053,-0.6556,-0.7056,-0.7558,-0.7893,-0.8232,-0.8729,-0.9068,-0.9235,-0.9402,-0.9903,-1.0237,-1.0404,-1.057,-1.0737,-1.0737,-1.0737,-1.0737,-1.0737,-1.0742,-1.0759,-1.0759,-1.0748,-1.077,-1.0791,0.2514,0.2514,0.2514,0.253,0.2555,0.2582,0.2609,0.2626,0.2632,0.2641,0.2628,0.2637,0.2639,0.2652,0.2675,0.2672,0.2669,0.268,0.2692,0.2692,0.2692,0.2692,0.2692,0.2692,0.2692,0.2692,0.2692,0.2692,0.2695,0.2695,0.2721,0.2759,0.2754,0.2762,0.28,0.2819,0.2815,0.281,0.2844,0.287,0.2872,0.2874,0.2874,0.2335,0.0,0.0,0.0,-0.1796,-0.2874,-0.2876,-0.2897,-0.2896,-0.3063,-0.3441,-0.3953,-0.4597,-0.4881,-0.4989,-0.5245,-0.5387,-0.5216,-0.5216,-0.5384,-0.5384,-0.5384,-0.5214,-0.5198,-0.5305,-0.5259,-0.5055,-0.4707,-0.4675,-0.4337,-0.4197,-0.423,-0.4245,-0.4057,-0.3084,-0.3237,-0.3401,-0.3424,-0.3913,-0.408,-0.4811,-0.5384,-0.5384,-0.5384,-0.5384,-0.5384,-0.5384,-0.5384,-0.5885,-0.6221,-0.6721,-0.6888,-0.7227,-0.7725,-0.806,-0.8395,-0.8562,-0.9235,-0.9736,-1.007,-1.0237,-1.0404,-1.0753,-1.0775,-1.077,-1.0748,-1.0759,-1.0791,-1.078,-1.0748,-1.0786,-1.084,0.2514,0.2514,0.2514,0.2522,0.254,0.2582,0.26,0.2605,0.2632,0.2647,0.2643,0.2627,0.263,0.2649,0.2679,0.2686,0.2677,0.2686,0.2692,0.2692,0.2692,0.2692,0.2692,0.2692,0.2692,0.2692,0.2695,0.2706,0.2707,0.2705,0.2717,0.2751,0.275,0.2766,0.28,0.2821,0.2831,0.2841,0.286,0.2874,0.2874,0.2874,0.2874,0.2874,0.1077,0.0,0.0,-0.1796,-0.2874,-0.2876,-0.2889,-0.2887,-0.3059,-0.342,-0.3938,-0.4038,-0.4533,-0.4831,-0.4937,-0.5237,-0.5051,-0.4878,-0.5046,-0.5384,-0.5384,-0.5046,-0.4873,-0.5349,-0.4823,-0.4447,-0.4406,-0.4078,-0.3572,-0.341,-0.341,-0.3254,-0.31,-0.2132,-0.1805,-0.2135,-0.2464,-0.2958,-0.3621,-0.466,-0.5214,-0.5384,-0.5384,-0.5384,-0.5384,-0.5384,-0.5384,-0.5552,-0.5717,-0.5885,-0.6053,-0.6221,-0.6721,-0.7056,-0.7223,-0.7725,-0.8399,-0.9068,-0.9402,-0.9903,-1.0237,-1.043,-1.064,-1.0797,-1.0764,-1.0797,-1.0835,-1.0846,-1.0857,-1.0851,-1.0884,0.2514,0.2514,0.2514,0.2518,0.2529,0.2572,0.2585,0.2579,0.2626,0.2643,0.2634,0.262,0.2624,0.2642,0.2671,0.2686,0.2679,0.2688,0.2691,0.2692,0.2692,0.2692,0.2692,0.2692,0.2692,0.2692,0.2706,0.2716,0.2725,0.2729,0.2737,0.2758,0.2759,0.278,0.2814,0.283,0.2838,0.2867,0.2871,0.2874,0.2874,0.2874,0.2874,0.2335,0.1436,0.018,-0.0359,-0.1616,-0.2515,-0.2875,-0.2886,-0.2885,-0.3045,-0.3225,-0.3558,-0.3849,-0.4338,-0.4654,-0.4608,-0.4743,-0.4885,-0.4878,-0.471,-0.5216,-0.5046,-0.4542,-0.436,-0.5182,-0.4674,-0.4312,-0.4116,-0.3764,-0.3244,-0.2911,-0.2597,-0.2442,-0.2124,-0.1479,-0.0993,-0.1163,-0.1662,-0.1995,-0.2833,-0.4354,-0.5046,-0.5384,-0.5387,-0.5384,-0.5384,-0.5384,-0.5384,-0.5384,-0.5384,-0.5549,-0.5552,-0.572,-0.5885,-0.605,-0.6385,-0.6721,-0.7558,-0.8232,-0.8566,-0.9235,-0.9908,-1.0461,-1.0683,-1.0651,-1.0797,-1.09,-1.0982,-1.0987,-1.0987,-1.0971,-1.0895,0.2514,0.2514,0.2514,0.253,0.2553,0.256,0.2577,0.2593,0.2628,0.2627,0.2611,0.2628,0.2628,0.2628,0.2664,0.2679,0.2656,0.268,0.269,0.2692,0.2692,0.2692,0.2692,0.2692,0.2692,0.2697,0.2709,0.2725,0.2742,0.2752,0.2781,0.2815,0.2781,0.2799,0.2819,0.2831,0.2848,0.287,0.2874,0.2874,0.2874,0.2874,0.2874,0.2694,0.1796,0.0718,-0.0718,-0.1436,-0.2156,-0.2874,-0.2885,-0.2878,-0.2851,-0.3029,-0.3179,-0.3483,-0.4308,-0.4287,-0.4089,-0.4741,-0.5222,-0.5216,-0.4878,-0.471,-0.4878,-0.471,-0.4688,-0.466,-0.4334,-0.4118,-0.3899,-0.3525,-0.2902,-0.2729,-0.2419,-0.2268,-0.1792,-0.0988,-0.0664,-0.0502,-0.0839,-0.1173,-0.1508,-0.2856,-0.4206,-0.4544,-0.5384,-0.5384,-0.5384,-0.5384,-0.5384,-0.5384,-0.5384,-0.5384,-0.5384,-0.5552,-0.5717,-0.5717,-0.5885,-0.6218,-0.6721,-0.7223,-0.7893,-0.8407,-0.9091,-0.9815,-1.0562,-1.0423,-1.047,-1.0902,-1.1123,-1.1107,-1.109,-1.1074,-1.0944,0.2514,0.2514,0.2514,0.2521,0.2533,0.2552,0.2566,0.2577,0.2587,0.2589,0.2581,0.2623,0.2641,0.2643,0.2668,0.2687,0.2677,0.2686,0.2691,0.2692,0.2692,0.2692,0.2692,0.2692,0.2692,0.2695,0.2707,0.2722,0.2739,0.2757,0.2773,0.2785,0.2788,0.2791,0.2804,0.2837,0.2861,0.2868,0.2874,0.2874,0.2874,0.2874,0.2874,0.2874,0.1257,0.0718,0.0,-0.1436,-0.2335,-0.2693,-0.287,-0.2852,-0.2831,-0.2829,-0.2978,-0.3115,-0.3948,-0.4101,-0.3907,-0.456,-0.5387,-0.5216,-0.4544,-0.4206,-0.471,-0.4374,-0.4369,-0.4352,-0.4174,-0.3805,-0.3608,-0.3101,-0.2769,-0.257,-0.2402,-0.2256,-0.195,-0.1151,-0.0995,-0.1171,-0.0672,-0.0505,-0.0841,-0.1346,-0.2694,-0.3873,-0.4712,-0.5384,-0.5384,-0.5384,-0.5384,-0.5384,-0.5384,-0.5384,-0.5384,-0.5384,-0.5384,-0.5387,-0.539,-0.5726,-0.6062,-0.6553,-0.7227,-0.7909,-0.829,-0.8866,-0.945,-0.9879,-1.0279,-1.0657,-1.102,-1.1194,-1.1183,-1.1166,-1.1014,0.2514,0.2514,0.2514,0.2514,0.2517,0.2537,0.2547,0.2548,0.2557,0.2566,0.2575,0.2624,0.2647,0.2656,0.2677,0.2691,0.269,0.2691,0.2692,0.2692,0.2692,0.2692,0.2692,0.2692,0.2692,0.2694,0.2705,0.2721,0.2737,0.2747,0.2759,0.2773,0.2788,0.2797,0.2811,0.2844,0.2874,0.2874,0.2874,0.2874,0.2874,0.2874,0.2874,0.2874,0.1617,0.0359,-0.018,-0.1436,-0.1976,-0.2689,-0.2859,-0.2841,-0.2825,-0.2807,-0.2781,-0.3107,-0.3435,-0.3936,-0.3915,-0.4387,-0.5219,-0.5048,-0.4374,-0.4206,-0.4374,-0.4038,-0.3868,-0.4036,-0.3698,-0.3352,-0.3316,-0.2967,-0.262,-0.2586,-0.2583,-0.2435,-0.2284,-0.1812,-0.1824,-0.1837,-0.1341,-0.1179,-0.101,-0.1347,-0.2021,-0.3199,-0.4208,-0.488,-0.5046,-0.5216,-0.5384,-0.5384,-0.5384,-0.5384,-0.5384,-0.539,-0.5398,-0.5417,-0.5417,-0.5409,-0.574,-0.624,-0.6583,-0.7113,-0.7669,-0.7909,-0.8494,-0.9087,-0.9816,-1.0539,-1.0914,-1.1122,-1.1232,-1.1199,-1.1074,0.2514,0.2514,0.2514,0.2514,0.2514,0.2515,0.2517,0.2523,0.2545,0.2571,0.2597,0.2631,0.2649,0.2656,0.2683,0.2691,0.2692,0.2692,0.2692,0.2692,0.2692,0.2692,0.2697,0.2698,0.2702,0.2702,0.2714,0.2731,0.2733,0.2747,0.2752,0.2761,0.2784,0.2821,0.2829,0.2857,0.2872,0.2874,0.2874,0.2874,0.2874,0.2874,0.2874,0.2694,0.2335,0.0898,-0.1077,-0.1077,-0.1617,-0.2692,-0.2864,-0.2848,-0.2829,-0.2821,-0.2801,-0.2955,-0.3644,-0.3991,-0.3642,-0.4255,-0.4729,-0.4712,-0.4038,-0.4038,-0.4038,-0.3701,-0.3365,-0.3701,-0.3533,-0.335,-0.3161,-0.2978,-0.263,-0.2615,-0.2612,-0.2609,-0.2458,-0.2471,-0.2321,-0.2167,-0.2345,-0.2356,-0.2021,-0.1852,-0.1852,-0.2694,-0.3535,-0.4208,-0.471,-0.5048,-0.5219,-0.5409,-0.5412,-0.5428,-0.5431,-0.5409,-0.5412,-0.5436,-0.5455,-0.5455,-0.545,-0.5784,-0.613,-0.6656,-0.6877,-0.7111,-0.7694,-0.8456,-0.9009,-0.9745,-1.0677,-1.1218,-1.1319,-1.121,-1.1069,0.2514,0.2514,0.2514,0.2514,0.2514,0.2514,0.2514,0.2515,0.2527,0.2556,0.2596,0.2615,0.2643,0.2669,0.2684,0.2692,0.2692,0.2692,0.2692,0.2692,0.2692,0.2707,0.2714,0.272,0.272,0.2724,0.2735,0.2725,0.2707,0.2727,0.2721,0.2724,0.2776,0.2818,0.2849,0.2871,0.2874,0.2874,0.2874,0.2874,0.2874,0.2874,0.2874,0.2874,0.2335,0.0898,-0.1436,-0.0718,-0.1436,-0.2512,-0.2863,-0.2845,-0.2829,-0.2821,-0.28,-0.2961,-0.3653,-0.4171,-0.3997,-0.4304,-0.4267,-0.4064,-0.3873,-0.3705,-0.3868,-0.3533,-0.3365,-0.3365,-0.3365,-0.3187,-0.2848,-0.2845,-0.2664,-0.2641,-0.2632,-0.262,-0.246,-0.2473,-0.2486,-0.2494,-0.2506,-0.2183,-0.1851,-0.2189,-0.2188,-0.2356,-0.3197,-0.4038,-0.4542,-0.4715,-0.5056,-0.5266,-0.5458,-0.5477,-0.548,-0.5466,-0.5477,-0.551,-0.5523,-0.5526,-0.5515,-0.5499,-0.5682,-0.6043,-0.6085,-0.6301,-0.6872,-0.7449,-0.8021,-0.8943,-0.9669,-1.0318,-1.0374,-1.062,-1.1031,0.2514,0.2514,0.2514,0.2514,0.2514,0.2514,0.2519,0.2527,0.2532,0.2563,0.2609,0.2619,0.2643,0.268,0.2692,0.2692,0.2692,0.2692,0.2692,0.2692,0.2692,0.271,0.2728,0.2739,0.2733,0.2737,0.2735,0.2724,0.2697,0.2692,0.2709,0.2737,0.2763,0.2816,0.2855,0.2874,0.2874,0.2874,0.2874,0.2874,0.2874,0.2874,0.2874,0.2694,0.2156,0.1257,0.0,-0.0718,-0.1436,-0.215,-0.2679,-0.2844,-0.2837,-0.2829,-0.2814,-0.2991,-0.3517,-0.3863,-0.3851,-0.3846,-0.3803,-0.3566,-0.3387,-0.3548,-0.3705,-0.3365,-0.3197,-0.3197,-0.3197,-0.3029,-0.2691,-0.2692,-0.2683,-0.266,-0.2656,-0.2645,-0.2646,-0.2661,-0.2664,-0.2671,-0.2506,-0.2181,-0.2018,-0.2187,-0.2524,-0.2692,-0.2692,-0.3533,-0.4206,-0.4546,-0.4898,-0.5277,-0.5482,-0.5499,-0.5518,-0.5534,-0.5551,-0.5586,-0.5586,-0.5581,-0.5575,-0.5559,-0.5572,-0.5586,-0.5786,-0.5992,-0.5853,-0.6421,-0.6978,-0.7702,-0.8242,-0.8694,-0.9092,-0.9711,-1.033,0.2512,0.2512,0.2512,0.2512,0.2514,0.2514,0.253,0.2556,0.2556,0.2589,0.2645,0.2641,0.2657,0.2686,0.2692,0.2692,0.2692,0.2692,0.2692,0.2692,0.2692,0.2716,0.2732,0.274,0.2743,0.2742,0.2736,0.2722,0.2695,0.2692,0.272,0.2763,0.2777,0.2821,0.2855,0.2874,0.2874,0.2874,0.2874,0.2874,0.2874,0.2874,0.2874,0.2874,0.2515,0.1976,0.1077,0.018,-0.0539,-0.1436,-0.2333,-0.2692,-0.2872,-0.2874,-0.2874,-0.305,-0.3403,-0.3559,-0.3541,-0.371,-0.3326,-0.3101,-0.3086,-0.3234,-0.321,-0.3029,-0.2861,-0.2861,-0.2861,-0.2861,-0.2692,-0.2692,-0.2691,-0.2686,-0.2686,-0.2683,-0.2683,-0.2687,-0.2688,-0.269,-0.252,-0.2356,-0.2356,-0.2692,-0.2524,-0.2694,-0.2694,-0.2861,-0.3701,-0.4712,-0.4902,-0.529,-0.5491,-0.5515,-0.5542,-0.5586,-0.5619,-0.5651,-0.5627,-0.5616,-0.5616,-0.5624,-0.5635,-0.5646,-0.5651,-0.5673,-0.5884,-0.5725,-0.5915,-0.6454,-0.717,-0.7633,-0.8225,-0.8527,-0.8985,0.2482,0.2482,0.2482,0.2495,0.2512,0.2514,0.2532,0.2555,0.254,0.2571,0.2646,0.2624,0.2647,0.269,0.2692,0.2692,0.2692,0.2692,0.2692,0.2692,0.2692,0.2728,0.2746,0.2752,0.2754,0.2755,0.2748,0.2725,0.2699,0.2692,0.2725,0.2773,0.2787,0.2823,0.2855,0.2874,0.2874,0.2874,0.2874,0.2874,0.2874,0.2874,0.2874,0.2874,0.2874,0.2335,0.1616,0.1077,0.018,-0.1257,-0.1616,-0.1976,-0.2874,-0.2874,-0.3053,-0.3411,-0.3587,-0.3582,-0.3573,-0.3571,-0.337,-0.2975,-0.2956,-0.2911,-0.2881,-0.2862,-0.2694,-0.2692,-0.2692,-0.2692,-0.2692,-0.2692,-0.2692,-0.2692,-0.2692,-0.2692,-0.2692,-0.2692,-0.2694,-0.2189,-0.202,-0.1851,-0.2188,-0.2355,-0.2188,-0.2525,-0.2695,-0.2694,-0.3199,-0.4376,-0.5074,-0.5463,-0.5512,-0.554,-0.5608,-0.5657,-0.5687,-0.5706,-0.5679,-0.5665,-0.5681,-0.5692,-0.5698,-0.57,-0.5695,-0.5709,-0.573,-0.5741,-0.5741,-0.5741,-0.6273,-0.6735,-0.702,-0.7509,-0.7956,0.2458,0.2469,0.2469,0.2487,0.2511,0.2514,0.2532,0.2552,0.254,0.2577,0.2639,0.2628,0.2646,0.2686,0.2692,0.2692,0.2692,0.2692,0.2692,0.2692,0.2692,0.2732,0.2755,0.2765,0.2769,0.277,0.2761,0.2736,0.2706,0.271,0.2739,0.278,0.2791,0.2829,0.286,0.2874,0.2874,0.2874,0.2874,0.2874,0.2874,0.2874,0.2874,0.2874,0.2874,0.2515,0.1976,0.1796,0.0539,-0.0718,-0.1077,-0.1796,-0.2694,-0.2874,-0.2874,-0.3231,-0.3231,-0.3231,-0.3228,-0.3228,-0.3033,-0.2834,-0.2811,-0.2772,-0.2729,-0.2702,-0.2697,-0.2692,-0.2692,-0.2692,-0.2692,-0.2692,-0.2692,-0.2692,-0.2692,-0.2692,-0.2692,-0.2692,-0.2188,-0.1683,-0.1346,-0.1178,-0.1346,-0.1514,-0.202,-0.2358,-0.2695,-0.2694,-0.3199,-0.421,-0.491,-0.5466,-0.5521,-0.557,-0.564,-0.5698,-0.5717,-0.5728,-0.5722,-0.5719,-0.5741,-0.5736,-0.5722,-0.5728,-0.5733,-0.5741,-0.5741,-0.5741,-0.5741,-0.5741,-0.5736,-0.605,-0.6356,-0.6501,-0.6765,0.2435,0.2461,0.2467,0.2487,0.2512,0.2514,0.253,0.2555,0.2551,0.2589,0.2632,0.2638,0.2647,0.2668,0.2677,0.2682,0.2684,0.2687,0.2692,0.2692,0.2692,0.2724,0.2758,0.2776,0.2761,0.277,0.2763,0.2729,0.2712,0.2718,0.2747,0.2782,0.2811,0.2842,0.2868,0.2874,0.2874,0.2874,0.2874,0.2874,0.2874,0.2874,0.2874,0.2874,0.2874,0.2874,0.2694,0.1976,0.1077,0.0,-0.0718,-0.1617,-0.2515,-0.2874,-0.2874,-0.2874,-0.3053,-0.3053,-0.3053,-0.3053,-0.304,-0.2844,-0.2829,-0.2793,-0.2754,-0.2718,-0.2709,-0.2694,-0.2692,-0.2692,-0.2692,-0.2692,-0.2692,-0.2692,-0.2692,-0.2692,-0.2692,-0.2356,-0.1683,0.0,0.0,0.0,-0.0337,-0.0505,0.0,-0.1347,-0.219,-0.2189,-0.2871,-0.3883,-0.475,-0.5303,-0.5523,-0.5581,-0.564,-0.5692,-0.5725,-0.5739,-0.5741,-0.5741,-0.5741,-0.5741,-0.5741,-0.5741,-0.5741,-0.5741,-0.5741,-0.5741,-0.5741,-0.5741,-0.5733,-0.5714,-0.5864,-0.6013,-0.6121,0.2393,0.2405,0.245,0.2487,0.2512,0.2514,0.2518,0.2525,0.2525,0.2559,0.2601,0.2594,0.2598,0.263,0.2652,0.2657,0.2661,0.2677,0.269,0.2691,0.269,0.2717,0.274,0.2742,0.2737,0.2735,0.2727,0.2714,0.2705,0.2724,0.2754,0.2782,0.2812,0.2844,0.2867,0.287,0.287,0.2874,0.2874,0.2874,0.2874,0.2874,0.2874,0.2874,0.2874,0.2874,0.2874,0.2694,0.1436,0.0359,-0.018,-0.1257,-0.2694,-0.2874,-0.2874,-0.2874,-0.2874,-0.2874,-0.2874,-0.2874,-0.2867,-0.2857,-0.2841,-0.281,-0.2777,-0.2744,-0.272,-0.2703,-0.2692,-0.2692,-0.2692,-0.2692,-0.2692,-0.2692,-0.2692,-0.2692,-0.2692,-0.1851,-0.1178,0.0,0.0,0.0,0.0,0.0674,0.1515,0.101,-0.0168,-0.0844,-0.1869,-0.2895,-0.4431,-0.5148,-0.5531,-0.5583,-0.5638,-0.5692,-0.5728,-0.5741,-0.5741,-0.5741,-0.5741,-0.5741,-0.5741,-0.5741,-0.5741,-0.5741,-0.5741,-0.5741,-0.5741,-0.5741,-0.5739,-0.5725,-0.5725,-0.5884,-0.5816,0.2367,0.2384,0.2443,0.2487,0.2511,0.2514,0.2514,0.2514,0.2514,0.2532,0.2562,0.2562,0.2575,0.2598,0.262,0.2627,0.2632,0.2658,0.2667,0.2672,0.2694,0.2724,0.2728,0.2725,0.2743,0.2743,0.271,0.2697,0.2698,0.2736,0.277,0.2773,0.2801,0.2836,0.2855,0.2855,0.2863,0.2874,0.2874,0.2874,0.2874,0.2874,0.2874,0.2874,0.2874,0.2874,0.2874,0.2874,0.1796,0.018,-0.0898,-0.1617,-0.2694,-0.2874,-0.2874,-0.2874,-0.2874,-0.2874,-0.2874,-0.2874,-0.2874,-0.2866,-0.2861,-0.2833,-0.2788,-0.2757,-0.2731,-0.2713,-0.2695,-0.2692,-0.2692,-0.2692,-0.2692,-0.2692,-0.2524,-0.2524,-0.185,-0.1009,-0.0336,0.0,0.0,0.0,-0.0338,-0.068,0.051,0.2052,0.1195,-0.017,-0.1195,-0.2406,-0.3782,-0.4831,-0.5219,-0.5572,-0.5594,-0.5662,-0.5733,-0.5741,-0.5741,-0.5741,-0.5741,-0.5741,-0.5741,-0.5741,-0.5741,-0.5741,-0.5741,-0.5741,-0.5741,-0.5741,-0.5741,-0.5739,-0.5741,-0.5741,-0.5695,0.2352,0.2384,0.2435,0.2477,0.2506,0.2508,0.251,0.2514,0.2514,0.2514,0.2522,0.2544,0.2568,0.2583,0.2596,0.2596,0.2609,0.2641,0.2647,0.2658,0.2682,0.271,0.2732,0.2746,0.2752,0.2743,0.2714,0.2699,0.2694,0.2736,0.2758,0.2754,0.2784,0.2825,0.2827,0.2833,0.2844,0.2867,0.2874,0.2874,0.2874,0.2874,0.2874,0.2874,0.2874,0.2874,0.2874,0.2694,0.1796,0.0359,-0.1257,-0.2156,-0.2694,-0.2874,-0.2874,-0.2874,-0.2874,-0.2874,-0.2874,-0.2874,-0.2874,-0.2872,-0.2872,-0.2845,-0.2799,-0.2766,-0.274,-0.2717,-0.2699,-0.2692,-0.2692,-0.2692,-0.2692,-0.2692,-0.2524,-0.2187,-0.1346,-0.0336,0.0505,0.1178,0.0843,0.0,-0.0851,-0.1197,-0.0172,0.1556,0.1731,0.0345,-0.1032,-0.225,-0.3648,-0.4538,-0.5098,-0.5268,-0.5605,-0.5649,-0.5739,-0.5741,-0.5741,-0.5741,-0.5741,-0.5741,-0.5741,-0.5741,-0.5741,-0.5741,-0.5741,-0.5741,-0.5741,-0.5741,-0.5741,-0.5741,-0.5741,-0.5741,-0.5741,0.235,0.2379,0.2391,0.2428,0.2473,0.2478,0.2492,0.2512,0.2514,0.2514,0.2517,0.2518,0.2529,0.2534,0.2559,0.2568,0.2575,0.2616,0.2642,0.2653,0.2677,0.2698,0.2717,0.2739,0.2742,0.2729,0.2712,0.2698,0.2698,0.2728,0.2744,0.2739,0.277,0.2804,0.2826,0.2831,0.2842,0.2864,0.2874,0.2874,0.2874,0.2874,0.2874,0.2874,0.2874,0.2874,0.2874,0.2874,0.2156,0.0898,-0.0719,-0.1977,-0.2695,-0.2876,-0.2878,-0.2874,-0.2874,-0.2874,-0.2874,-0.2874,-0.2874,-0.2872,-0.2863,-0.2833,-0.2792,-0.2763,-0.2735,-0.2706,-0.2692,-0.2692,-0.2692,-0.2692,-0.2692,-0.2692,-0.2524,-0.185,-0.1009,-0.0,0.1009,0.1683,0.2022,0.0678,-0.1026,-0.0859,-0.0345,0.1041,0.1393,0.0,-0.0873,-0.2275,-0.3508,-0.4232,-0.4788,-0.5172,-0.553,-0.5689,-0.5741,-0.5741,-0.5741,-0.5741,-0.5741,-0.5741,-0.5741,-0.5741,-0.5741,-0.5741,-0.5741,-0.5741,-0.5741,-0.5741,-0.5741,-0.5741,-0.5741,-0.5741,-0.5741]}]]